[[{"header":{"parameterUnit":"m.s-1","parameterCategory":1,"la1":31.0,"la2":29.5877,"lo1":-88.7671,"lo2":-86.6584,"dy":0.0162,"dx":0.0185,"nx":115,"ny":88,"refTime":"2024-04-14T18:00:00:Z","depth":0,"parameterNumber":2,"parameterNumberName":"U-component_of_WINDS"},"data":[0.0,0.0,0.0,0.0,0.0,0.0,0.0,0.0,0.0,0.0,0.0,0.0,0.0,0.0,0.0,0.0,0.0,0.0,0.0,0.0,0.0,0.0,0.0,0.0,0.0,0.0,0.0,0.0,0.0,0.0,0.0,0.0,0.0,0.0,0.0,0.0,0.0,0.0,0.0,0.0,0.0,0.0,0.0,0.0,0.0,0.0,0.0,0.0,0.0,0.0,0.0,0.0,0.0,0.0,0.0,0.0,0.0,0.0,0.0,0.0,0.0,0.0,0.0,0.0,0.0,0.0,0.0,0.0,0.0,0.0,0.0,0.0,0.0,0.0,0.0,0.0,0.0,0.0,0.0,0.0,0.0,0.0,0.0,0.0,0.0,0.0,0.0,0.0,0.0,0.0,0.0,0.0,0.0,0.0,0.0,0.0,0.0,0.0,0.0,0.0,0.0,0.0,0.0,0.0,0.0,0.0,0.0,0.0,0.0,0.0,0.0,0.0,0.0,0.0,0.0,0.0,0.0,0.0,0.0,0.0,0.0,0.0,0.0,0.0,0.0,0.0,0.0,0.0,0.0,0.0,0.0,0.0,0.0,0.0,0.0,0.0,0.0,0.0,0.0,0.0,0.0,0.0,0.0,0.0,0.0,0.0,0.0,0.0,0.0,0.0,0.0,0.0,0.0,0.0,0.0,0.0,0.0,0.0,0.0,0.0,0.0,0.0,0.0,0.0,0.0,0.0,0.0,0.0,0.0,0.0,0.0,0.0,0.0,0.0,0.0,0.0,0.0,0.0,0.0,0.0,0.0,0.0,0.0,0.0,0.0,0.0,0.0,0.0,0.0,0.0,0.0,0.0,0.0,0.0,0.0,0.0,0.0,0.0,0.0,0.0,0.0,0.0,0.0,0.0,0.0,0.0,0.0,0.0,0.0,0.0,0.0,0.0,0.0,0.0,0.0,0.0,0.0,0.0,0.0,0.0,0.0,0.0,0.0,0.0,0.0,0.0,0.0,0.0,0.0,0.0,0.0,0.0,0.0,0.0,0.0,0.0,0.0,0.0,0.0,0.0,0.0,0.0,0.0,0.0,0.0,0.0,0.0,0.0,0.0,0.0,0.0,0.0,0.0,0.0,0.0,0.0,0.0,0.0,0.0,0.0,0.0,0.0,0.0,0.0,0.0,0.0,0.0,0.0,0.0,0.0,0.0,0.0,0.0,0.0,0.0,0.0,0.0,0.0,0.0,0.0,0.0,0.0,0.0,0.0,0.0,0.0,0.0,0.0,0.0,0.0,0.0,0.0,0.0,0.0,0.0,0.0,0.0,0.0,0.0,0.0,0.0,0.0,0.0,0.0,0.0,0.0,0.0,0.0,0.0,0.0,0.0,0.0,0.0,0.0,0.0,0.0,0.0,0.0,0.0,0.0,0.0,0.0,0.0,0.0,0.0,0.0,0.0,0.0,0.0,0.0,0.0,0.0,0.0,0.0,0.0,0.0,0.0,0.0,0.0,0.0,0.0,0.0,0.0,0.0,0.0,0.0,0.0,0.0,0.0,0.0,0.0,0.0,0.0,0.0,0.0,0.0,0.0,0.0,0.0,0.0,0.0,0.0,0.0,0.0,0.0,0.0,0.0,0.0,0.0,0.0,0.0,0.0,0.0,0.0,0.0,0.0,0.0,0.0,0.0,0.0,0.0,0.0,0.0,0.0,0.0,0.0,0.0,0.0,0.0,0.0,0.0,0.0,0.0,0.0,0.0,0.0,0.0,0.0,0.0,0.0,0.0,0.0,0.0,0.0,0.0,0.0,0.0,0.0,0.0,0.0,0.0,0.0,0.0,0.0,0.0,0.0,0.0,0.0,0.0,0.0,0.0,0.0,0.0,0.0,0.0,0.0,0.0,0.0,0.0,0.0,0.0,0.0,0.0,0.0,0.0,0.0,0.0,0.0,0.0,0.0,0.0,0.0,0.0,0.0,0.0,0.0,0.0,0.0,0.0,0.0,0.0,0.0,0.0,0.0,0.0,0.0,0.0,0.0,0.0,0.0,0.0,0.0,0.0,0.0,0.0,0.0,0.0,0.0,0.0,0.0,0.0,0.0,0.0,0.0,0.0,0.0,0.0,0.0,0.0,0.0,0.0,0.0,0.0,0.0,0.0,0.0,0.0,0.0,0.0,0.0,0.0,0.0,0.0,0.0,0.0,0.0,0.0,0.0,0.0,0.0,0.0,0.0,0.0,0.0,0.0,0.0,0.0,0.0,0.0,0.0,0.0,0.0,0.0,0.0,0.0,0.0,0.0,0.0,0.0,0.0,0.0,0.0,0.0,0.0,0.0,0.0,0.0,0.0,0.0,0.0,0.0,0.0,0.0,0.0,0.0,0.0,0.0,0.0,0.0,0.0,0.0,0.0,0.0,0.0,0.0,0.0,0.0,0.0,0.0,0.0,0.0,0.0,0.0,0.0,0.0,0.0,0.0,0.0,0.0,0.0,0.0,0.0,0.0,0.0,0.0,0.0,0.0,0.0,0.0,0.0,0.0,0.0,0.0,0.0,0.0,0.0,0.0,0.0,0.0,0.0,0.0,0.0,0.0,0.0,0.0,0.0,0.0,0.0,0.0,0.0,0.0,0.0,0.0,0.0,0.0,0.0,0.0,0.0,0.0,0.0,0.0,0.0,0.0,0.0,0.0,0.0,0.0,0.0,0.0,0.0,0.0,0.0,0.0,0.0,0.0,0.0,0.0,0.0,0.0,0.0,0.0,0.0,0.0,0.0,0.0,0.0,0.0,0.0,0.0,0.0,0.0,0.0,0.0,0.0,0.0,0.0,0.0,0.0,0.0,0.0,0.0,0.0,0.0,0.0,0.0,0.0,0.0,0.0,0.0,0.0,0.0,0.0,0.0,0.0,0.0,0.0,0.0,0.0,0.0,0.0,0.0,0.0,0.0,0.0,0.0,0.0,0.0,0.0,0.0,0.0,0.0,0.0,0.0,0.0,0.0,0.0,0.0,0.0,0.0,0.0,0.0,0.0,0.0,0.0,0.0,0.0,0.0,0.0,0.0,0.0,0.0,0.0,0.0,0.0,0.0,0.0,0.0,0.0,0.0,0.0,0.0,0.0,0.0,0.0,0.0,0.0,0.0,0.0,0.0,0.0,0.0,0.0,0.0,0.0,0.0,0.0,0.0,0.0,0.0,0.0,0.0,0.0,0.0,0.0,0.0,0.0,0.0,0.0,0.0,0.0,0.0,0.0,0.0,0.0,0.0,0.0,0.0,0.0,0.0,0.0,0.0,0.0,0.0,0.0,0.0,0.0,0.0,0.0,0.0,0.0,0.0,0.0,0.0,0.0,0.0,0.0,0.0,0.0,0.0,0.0,0.0,0.0,0.0,0.0,0.0,0.0,0.0,0.0,0.0,0.0,0.0,0.0,0.0,0.0,0.0,0.0,0.0,0.0,0.0,0.0,0.0,0.0,0.0,0.0,0.0,0.0,0.0,0.0,0.0,0.0,0.0,0.0,0.0,0.0,0.0,0.0,0.0,0.0,0.0,0.0,0.0,0.0,0.0,0.0,0.0,0.0,0.0,0.0,0.0,0.0,0.0,0.0,0.0,0.0,0.0,0.0,0.0,0.0,0.0,0.0,0.0,0.0,0.0,0.0,0.0,0.0,0.0,0.0,0.0,0.0,0.0,0.0,0.0,0.0,0.0,0.0,0.0,0.0,0.0,0.0,0.0,0.0,0.0,0.0,0.0,0.0,0.0,0.0,0.0,0.0,0.0,0.0,0.0,0.0,0.0,0.0,0.0,0.0,0.0,0.0,0.0,0.0,0.0,0.0,0.0,0.0,0.0,0.0,0.0,0.0,0.0,0.0,0.0,0.0,0.0,0.0,0.0,0.0,0.0,0.0,0.0,0.0,0.0,0.0,0.0,0.0,0.0,0.0,0.0,0.0,0.0,0.0,0.0,0.0,0.0,0.0,0.0,0.0,0.0,0.0,0.0,0.0,0.0,0.0,0.0,0.0,0.0,0.0,0.0,0.0,0.0,0.0,0.0,0.0,0.0,0.0,0.0,0.0,0.0,0.0,0.0,0.0,0.0,0.0,0.0,0.0,0.0,0.0,0.0,0.0,0.0,0.0,0.0,0.0,0.0,0.0,0.0,0.0,0.0,0.0,0.0,0.0,0.0,0.0,0.0,0.0,0.0,0.0,0.0,0.0,0.0,0.0,0.0,0.0,0.0,0.0,0.0,0.0,0.0,0.0,0.0,0.0,0.0,0.0,0.0,0.0,-0.728,0.0,0.0,0.0,0.0,0.0,0.0,0.0,0.0,0.0,0.0,0.0,0.0,0.0,0.0,0.0,0.0,0.0,0.0,0.0,0.0,0.0,0.0,0.0,0.0,0.0,0.0,0.0,0.0,0.0,0.0,0.0,0.0,0.0,0.0,0.0,0.0,0.0,0.0,0.0,0.0,0.0,0.0,0.0,0.0,0.0,0.0,0.0,0.0,0.0,0.0,0.0,0.0,0.0,0.0,0.0,0.0,0.0,0.0,0.0,0.0,0.0,0.0,0.0,0.0,0.0,0.0,0.0,0.0,0.0,0.0,0.0,0.0,0.0,0.0,0.0,0.0,0.0,0.0,0.0,0.0,0.0,0.0,0.0,0.0,0.0,0.0,0.0,0.0,0.0,0.0,0.0,0.0,0.0,0.0,0.0,0.0,0.0,0.0,0.0,0.0,0.0,0.0,0.0,0.0,0.0,0.0,0.0,0.0,0.0,0.0,-0.7486,-0.7066,-0.7064,-0.712,-0.7231,0.0,0.0,0.0,0.0,0.0,0.0,0.0,0.0,0.0,0.0,0.0,0.0,0.0,0.0,0.0,0.0,0.0,0.0,0.0,0.0,0.0,0.0,0.0,0.0,0.0,0.0,0.0,0.0,0.0,0.0,0.0,0.0,0.0,0.0,0.0,0.0,0.0,0.0,0.0,0.0,0.0,0.0,0.0,0.0,0.0,0.0,0.0,0.0,0.0,0.0,0.0,0.0,0.0,0.0,0.0,0.0,0.0,0.0,0.0,0.0,0.0,0.0,0.0,0.0,0.0,0.0,0.0,0.0,0.0,0.0,0.0,0.0,0.0,0.0,0.0,0.0,0.0,0.0,0.0,0.0,0.0,0.0,0.0,0.0,0.0,0.0,0.0,0.0,0.0,0.0,0.0,0.0,0.0,0.0,0.0,0.0,0.0,0.0,0.0,0.0,0.0,0.0,0.0,0.0,0.0,0.0,0.0,0.0,0.0,0.0,0.0,0.0,-0.7468,-0.7694,-0.802,0.0,0.0,0.0,0.0,0.0,0.0,0.0,0.0,0.0,0.0,0.0,0.0,0.0,0.0,0.0,0.0,0.0,0.0,0.0,0.0,0.0,0.0,0.0,0.0,0.0,0.0,0.0,0.0,0.0,0.0,0.0,0.0,0.0,0.0,0.0,0.0,0.0,0.0,0.0,0.0,0.0,0.0,0.0,0.0,0.0,0.0,0.0,0.0,0.0,0.0,0.0,0.0,0.0,0.0,0.0,0.0,0.0,0.0,0.0,0.0,0.0,0.0,0.0,0.0,0.0,0.0,0.0,0.0,0.0,0.0,0.0,0.0,0.0,0.0,0.0,0.0,0.0,0.0,0.0,0.0,0.0,0.0,0.0,0.0,0.0,0.0,0.0,0.0,0.0,0.0,0.0,0.0,0.0,0.0,0.0,0.0,0.0,0.0,0.0,0.0,0.0,0.0,0.0,0.0,0.0,0.0,0.0,0.0,0.0,0.0,-0.7475,-0.8497,-0.8535,0.0,-1.0292,0.0,0.0,0.0,0.0,0.0,0.0,0.0,0.0,0.0,0.0,0.0,0.0,0.0,0.0,0.0,0.0,0.0,0.0,0.0,0.0,0.0,0.0,0.0,0.0,0.0,0.0,0.0,0.0,0.0,0.0,0.0,0.0,0.0,0.0,0.0,0.0,0.0,0.0,0.0,0.0,0.0,0.0,0.0,0.0,0.0,0.0,0.0,0.0,0.0,0.0,0.0,0.0,0.0,0.0,0.0,0.0,0.0,0.0,0.0,0.0,0.0,0.0,0.0,0.0,0.0,0.0,0.0,0.0,0.0,0.0,0.0,0.0,0.0,0.0,0.0,0.0,0.0,0.0,0.0,0.0,0.0,0.0,0.0,0.0,0.0,0.0,0.0,0.0,0.0,0.0,0.0,0.0,0.0,0.0,0.0,0.0,0.0,0.0,0.0,0.0,0.0,0.0,0.0,0.0,0.0,0.0,0.0,0.0,0.0,0.0,-0.6618,-0.6858,-0.7276,-0.8293,0.0,0.0,0.0,0.0,0.0,0.0,0.0,0.0,0.0,0.0,0.0,0.0,0.0,0.0,0.0,0.0,0.0,0.0,0.0,0.0,0.0,0.0,0.0,0.0,0.0,0.0,0.0,0.0,0.0,0.0,0.0,0.0,0.0,0.0,0.0,0.0,0.0,0.0,0.0,0.0,0.0,0.0,0.0,0.0,0.0,0.0,0.0,0.0,0.0,0.0,0.0,0.0,0.0,0.0,0.0,0.0,0.0,0.0,0.0,0.0,0.0,0.0,0.0,0.0,0.0,0.0,0.0,0.0,0.0,0.0,0.0,0.0,0.0,0.0,0.0,0.0,0.0,0.0,0.0,0.0,0.0,0.0,0.0,0.0,0.0,0.0,0.0,0.0,0.0,0.0,0.0,0.0,0.0,0.0,0.0,0.0,0.0,0.0,0.0,0.0,0.0,0.0,0.0,0.0,0.0,0.0,0.0,0.0,0.0,0.0,-0.6606,-0.6222,-0.6271,-0.6697,-0.7813,-0.965,0.0,0.0,0.0,0.0,0.0,0.0,0.0,0.0,0.0,0.0,0.0,0.0,0.0,0.0,0.0,0.0,0.0,0.0,0.0,0.0,0.0,0.0,0.0,0.0,0.0,0.0,0.0,0.0,0.0,0.0,0.0,0.0,0.0,0.0,0.0,0.0,0.0,0.0,0.0,0.0,0.0,0.0,0.0,0.0,0.0,0.0,0.0,0.0,0.0,0.0,0.0,0.0,0.0,0.0,0.0,0.0,0.0,0.0,0.0,0.0,0.0,0.0,0.0,0.0,0.0,0.0,0.0,0.0,0.0,0.0,0.0,0.0,0.0,0.0,0.0,0.0,0.0,0.0,0.0,0.0,0.0,0.0,0.0,0.0,0.0,0.0,0.0,0.0,0.0,0.0,0.0,0.0,0.0,0.0,0.0,0.0,0.0,0.0,0.0,0.0,0.0,0.0,0.0,0.0,0.0,0.0,0.0,0.0,-0.9355,-0.7326,-0.6727,-0.7769,-0.76,-0.8345,0.0,0.0,0.0,0.0,0.0,0.0,0.0,0.0,0.0,0.0,0.0,0.0,0.0,0.0,0.0,0.0,0.0,0.0,0.0,0.0,0.0,0.0,0.0,0.0,0.0,0.0,0.0,0.0,0.0,0.0,0.0,0.0,0.0,0.0,0.0,0.0,0.0,0.0,0.0,0.0,0.0,0.0,0.0,0.0,0.0,0.0,0.0,0.0,0.0,0.0,0.0,0.0,0.0,0.0,0.0,0.0,0.0,0.0,0.0,0.0,0.0,0.0,0.0,0.0,0.0,0.0,0.0,0.0,0.0,0.0,0.0,0.0,0.0,0.0,0.0,0.0,0.0,0.0,0.0,0.0,0.0,0.0,0.0,0.0,0.0,0.0,0.0,0.0,0.0,0.0,0.0,0.0,0.0,0.0,0.0,0.0,0.0,0.0,0.0,0.0,0.0,0.0,0.0,0.0,0.0,0.0,0.0,0.0,0.0,-0.7079,-0.5936,-0.57,-0.6511,-0.7036,-0.7872,0.0,0.0,0.0,0.0,0.0,0.0,0.0,0.0,0.0,0.0,0.0,0.0,0.0,0.0,0.0,0.0,0.0,0.0,0.0,0.0,0.0,0.0,0.0,0.0,0.0,0.0,0.0,0.0,0.0,0.0,0.0,0.0,0.0,0.0,0.0,0.0,0.0,0.0,0.0,0.0,0.0,0.0,0.0,0.0,0.0,0.0,0.0,0.0,0.0,0.0,0.0,0.0,0.0,0.0,0.0,0.0,0.0,0.0,0.0,0.0,0.0,0.0,0.0,0.0,0.0,0.0,0.0,0.0,0.0,0.0,0.0,0.0,0.0,0.0,0.0,0.0,0.0,0.0,0.0,0.0,0.0,0.0,0.0,0.0,0.0,0.0,0.0,0.0,0.0,0.0,0.0,0.0,0.0,0.0,0.0,0.0,0.0,0.0,0.0,0.0,0.0,0.0,0.0,0.0,0.0,0.0,0.0,0.0,0.0,-0.5885,0.0,-0.5356,-0.5549,-0.6778,-0.7691,0.0,0.0,0.0,0.0,0.0,0.0,0.0,0.0,0.0,0.0,0.0,0.0,0.0,0.0,0.0,0.0,0.0,0.0,0.0,0.0,0.0,0.0,0.0,0.0,0.0,0.0,0.0,0.0,0.0,0.0,0.0,0.0,0.0,0.0,0.0,0.0,0.0,0.0,0.0,0.0,0.0,0.0,0.0,0.0,0.0,0.0,0.0,0.0,0.0,0.0,0.0,0.0,0.0,0.0,0.0,0.0,0.0,0.0,0.0,0.0,0.0,0.0,0.0,0.0,0.0,0.0,0.0,0.0,0.0,0.0,0.0,0.0,0.0,0.0,0.0,0.0,0.0,0.0,0.0,0.0,0.0,0.0,0.0,0.0,0.0,0.0,0.0,0.0,0.0,0.0,0.0,0.0,0.0,0.0,0.0,0.0,0.0,0.0,0.0,0.0,0.0,0.0,0.0,0.0,0.0,0.0,0.0,0.0,-0.7302,-0.625,-0.6171,-0.5911,-0.5317,-0.7057,-0.7862,0.0,0.0,0.0,0.0,0.0,0.0,0.0,0.0,0.0,0.0,0.0,0.0,0.0,0.0,0.0,0.0,0.0,0.0,0.0,0.0,0.0,0.0,0.0,0.0,0.0,0.0,0.0,0.0,0.0,0.0,0.0,0.0,0.0,0.0,0.0,0.0,0.0,0.0,0.0,0.0,0.0,0.0,0.0,0.0,0.0,0.0,0.0,0.0,0.0,0.0,0.0,0.0,0.0,0.0,0.0,0.0,0.0,0.0,0.0,0.0,0.0,0.0,0.0,0.0,0.0,0.0,0.0,0.0,0.0,0.0,0.0,0.0,0.0,0.0,0.0,0.0,0.0,0.0,0.0,0.0,0.0,0.0,0.0,0.0,0.0,0.0,0.0,0.0,0.0,0.0,0.0,0.0,0.0,0.0,0.0,0.0,0.0,0.0,0.0,0.0,0.0,0.0,0.0,0.0,0.0,0.0,0.0,0.0,0.0,-0.6469,-0.6243,-0.6688,-0.7827,-0.7823,-0.8498,0.0,0.0,0.0,0.0,0.0,0.0,0.0,0.0,0.0,0.0,0.0,0.0,0.0,0.0,0.0,0.0,0.0,0.0,0.0,0.0,0.0,0.0,0.0,0.0,0.0,0.0,0.0,0.0,0.0,0.0,0.0,0.0,0.0,0.0,0.0,0.0,0.0,0.0,0.0,0.0,0.0,0.0,0.0,0.0,0.0,0.0,0.0,0.0,0.0,0.0,0.0,0.0,0.0,0.0,0.0,0.0,0.0,0.0,0.0,0.0,0.0,0.0,0.0,0.0,0.0,0.0,0.0,0.0,0.0,0.0,0.0,0.0,0.0,0.0,0.0,0.0,0.0,0.0,0.0,0.0,0.0,0.0,0.0,0.0,0.0,0.0,0.0,0.0,0.0,0.0,0.0,0.0,0.0,0.0,0.0,0.0,0.0,0.0,0.0,0.0,0.0,0.0,0.0,0.0,0.0,0.0,0.0,0.0,0.0,-0.8162,-0.7286,-0.748,-0.8856,-0.8711,-0.9244,-1.0558,0.0,0.0,0.0,0.0,0.0,0.0,0.0,0.0,0.0,0.0,0.0,0.0,0.0,0.0,0.0,0.0,0.0,0.0,0.0,0.0,0.0,0.0,0.0,0.0,0.0,0.0,0.0,0.0,0.0,0.0,0.0,0.0,0.0,0.0,0.0,0.0,0.0,0.0,0.0,0.0,0.0,0.0,0.0,0.0,0.0,0.0,0.0,0.0,0.0,0.0,0.0,0.0,0.0,0.0,0.0,0.0,0.0,0.0,0.0,0.0,0.0,0.0,0.0,0.0,0.0,0.0,0.0,0.0,0.0,0.0,0.0,0.0,0.0,0.0,0.0,0.0,0.0,0.0,0.0,0.0,0.0,0.0,0.0,0.0,0.0,0.0,0.0,0.0,0.0,0.0,0.0,0.0,0.0,0.0,0.0,0.0,0.0,0.0,0.0,0.0,0.0,0.0,0.0,0.0,0.0,0.0,0.0,0.0,-1.0963,-0.9309,-0.8572,-0.8839,-0.9772,-1.0139,0.0,0.0,0.0,0.0,0.0,0.0,0.0,0.0,0.0,0.0,0.0,0.0,0.0,0.0,0.0,0.0,0.0,0.0,0.0,0.0,0.0,0.0,0.0,0.0,0.0,0.0,0.0,0.0,0.0,0.0,0.0,0.0,0.0,0.0,0.0,0.0,0.0,0.0,0.0,0.0,0.0,0.0,0.0,0.0,0.0,0.0,0.0,0.0,0.0,0.0,0.0,0.0,0.0,0.0,0.0,0.0,0.0,0.0,0.0,0.0,0.0,0.0,0.0,0.0,0.0,0.0,0.0,0.0,0.0,0.0,0.0,0.0,0.0,0.0,0.0,0.0,0.0,0.0,0.0,0.0,0.0,0.0,0.0,0.0,0.0,0.0,0.0,0.0,0.0,0.0,0.0,0.0,0.0,0.0,0.0,0.0,0.0,0.0,0.0,0.0,0.0,0.0,0.0,0.0,0.0,0.0,0.0,0.0,0.0,-1.2678,-1.2585,-1.237,-1.2046,-1.1429,-1.154,0.0,0.0,0.0,0.0,0.0,0.0,0.0,0.0,0.0,0.0,0.0,0.0,0.0,0.0,0.0,0.0,0.0,0.0,0.0,0.0,0.0,0.0,0.0,0.0,0.0,0.0,0.0,0.0,0.0,0.0,0.0,0.0,0.0,0.0,0.0,0.0,0.0,0.0,0.0,0.0,0.0,0.0,0.0,0.0,0.0,0.0,0.0,0.0,0.0,0.0,0.0,0.0,0.0,0.0,0.0,0.0,0.0,0.0,0.0,0.0,0.0,0.0,0.0,0.0,0.0,0.0,0.0,0.0,0.0,0.0,0.0,0.0,0.0,0.0,0.0,0.0,0.0,0.0,0.0,0.0,0.0,0.0,0.0,0.0,0.0,0.0,0.0,0.0,0.0,0.0,0.0,0.0,0.0,0.0,0.0,0.0,0.0,0.0,0.0,0.0,0.0,0.0,0.0,0.0,0.0,0.0,0.0,0.0,-1.4286,-1.3515,-1.5191,-1.5566,-1.4377,-1.3452,-1.2822,0.0,0.0,0.0,0.0,0.0,0.0,0.0,0.0,0.0,0.0,0.0,0.0,0.0,0.0,0.0,0.0,0.0,0.0,0.0,0.0,0.0,0.0,0.0,0.0,0.0,0.0,0.0,0.0,0.0,0.0,0.0,0.0,0.0,0.0,0.0,0.0,0.0,0.0,0.0,0.0,0.0,0.0,0.0,0.0,0.0,0.0,0.0,0.0,0.0,0.0,0.0,0.0,0.0,0.0,0.0,0.0,0.0,0.0,0.0,0.0,0.0,0.0,0.0,0.0,0.0,0.0,0.0,0.0,0.0,0.0,0.0,0.0,0.0,0.0,0.0,0.0,0.0,0.0,0.0,0.0,0.0,0.0,0.0,0.0,0.0,0.0,0.0,0.0,0.0,0.0,0.0,0.0,0.0,0.0,0.0,0.0,0.0,0.0,0.0,0.0,0.0,0.0,0.0,0.0,0.0,0.0,0.0,0.0,-1.4838,-1.3934,-1.7089,-1.7801,-1.581,-1.5343,-1.3971,0.0,0.0,0.0,0.0,0.0,0.0,0.0,0.0,0.0,0.0,0.0,0.0,0.0,0.0,0.0,0.0,0.0,0.0,0.0,0.0,0.0,0.0,0.0,0.0,0.0,0.0,0.0,0.0,0.0,0.0,0.0,0.0,0.0,0.0,0.0,0.0,0.0,0.0,0.0,0.0,0.0,0.0,0.0,0.0,0.0,0.0,0.0,0.0,0.0,0.0,0.0,0.0,0.0,0.0,0.0,0.0,0.0,0.0,0.0,0.0,0.0,0.0,0.0,0.0,0.0,0.0,0.0,0.0,0.0,0.0,0.0,0.0,0.0,0.0,0.0,0.0,0.0,0.0,0.0,0.0,0.0,0.0,0.0,0.0,0.0,0.0,0.0,0.0,0.0,0.0,0.0,0.0,0.0,0.0,0.0,0.0,0.0,0.0,0.0,0.0,0.0,0.0,0.0,0.0,0.0,0.0,0.0,0.0,-1.5249,-1.5074,-1.704,-1.7192,-1.5304,-1.5451,-1.4692,0.0,0.0,0.0,0.0,0.0,0.0,0.0,0.0,0.0,0.0,0.0,0.0,0.0,0.0,0.0,0.0,0.0,0.0,0.0,0.0,0.0,0.0,0.0,0.0,0.0,0.0,0.0,0.0,0.0,0.0,0.0,0.0,0.0,0.0,0.0,0.0,0.0,0.0,0.0,0.0,0.0,0.0,0.0,0.0,0.0,0.0,0.0,0.0,-0.0684,0.0,0.0,0.0,0.0,0.0,0.0,0.0,0.0,0.0,0.0,0.0,0.0,0.0,0.0,0.0,0.0,0.0,0.0,0.0,0.0,0.0,0.0,0.0,0.0,0.0,0.0,0.0,0.0,0.0,0.0,0.0,0.0,0.0,0.0,0.0,0.0,0.0,0.0,0.0,0.0,0.0,0.0,0.0,0.0,0.0,0.0,0.0,0.0,0.0,0.0,0.0,0.0,0.0,0.0,0.0,0.0,0.0,0.0,0.0,-1.5027,-1.5248,-1.6932,-1.7227,-1.5954,-1.5419,-1.4307,0.0,0.0,0.0,0.0,0.0,0.0,0.0,0.0,0.0,0.0,0.0,0.0,0.0,0.0,0.0,0.0,0.0,0.0,0.0,0.0,0.0,0.0,0.0,0.0,0.0,0.0,0.0,0.0,0.0,0.0,0.0,0.0,0.0,0.0,0.0,0.0,0.0,0.0,0.0,0.0,0.0,0.0,0.0,0.0,0.0,0.0,0.0,0.0,0.0,0.0,0.0,0.0,0.0,0.0,0.0,0.0,0.0,0.0,0.0,0.0,0.0,0.0,0.0,0.0,0.0,0.0,0.0,0.0,0.0,0.0,0.0,0.0,0.0,0.0,0.0,0.0,0.0,0.0,0.0,0.0,0.0,0.0,0.0,0.0,0.0,0.0,0.0,0.0,0.0,0.0,0.0,0.0,0.0,0.0,0.0,0.0,0.0,0.0,0.0,0.0,0.0,0.0,0.0,0.0,0.0,0.0,0.0,-1.4102,-1.4619,-1.5114,-1.6767,-1.7327,-1.6572,-1.5146,-1.3608,-1.2091,0.0,0.0,0.0,0.0,0.0,0.0,0.0,0.0,0.0,0.0,0.0,0.0,0.0,0.0,0.0,0.0,0.0,0.0,0.0,0.0,0.0,0.0,0.0,0.0,0.0,0.0,0.0,0.0,0.0,0.0,0.0,0.0,0.0,0.0,0.0,0.0,0.0,0.0,-0.4128,-0.393,0.0,0.0,0.0,0.0,0.0,0.0,0.0,0.0,-0.1058,0.0,0.0,0.0,0.0,0.0,0.0,0.0,0.0,0.0,0.0,0.0,0.0,0.0,0.0,0.0,0.0,0.0,0.0,0.0,0.0,0.0,0.0,0.0,0.0,0.0,0.0,0.0,0.0,0.0,0.0,0.0,0.0,0.0,0.0,0.0,0.0,0.0,0.0,0.0,0.0,0.0,0.0,0.0,0.0,0.0,0.0,0.0,0.0,0.0,0.0,0.0,0.0,0.0,0.0,0.0,0.0,-1.446,-1.443,-1.4727,-1.541,-1.6482,-1.6605,-1.5639,-1.4415,-1.3469,-1.2881,0.0,0.0,0.0,0.0,0.0,0.0,0.0,0.0,0.0,0.0,0.0,0.0,0.0,0.0,0.0,0.0,0.0,0.0,0.0,0.0,0.0,0.0,0.0,0.0,0.0,0.0,0.0,0.0,0.0,0.0,0.0,0.0,0.0,0.0,0.0,0.0,0.0,0.0,0.0,-0.4043,-0.4256,0.0,0.0,0.0,0.0,0.0,0.0,0.0,0.0,-0.2503,0.0,0.0,0.0,0.0,0.0,0.0,0.0,0.0,0.0,0.0,0.0,0.0,0.0,0.0,0.0,0.0,0.0,0.0,0.0,0.0,0.0,0.0,0.0,0.0,0.0,0.0,0.0,0.0,0.0,0.0,0.0,0.0,0.0,0.0,0.0,0.0,0.0,0.0,0.0,0.0,0.0,0.0,0.0,0.0,0.0,0.0,0.0,0.0,0.0,0.0,0.0,0.0,0.0,0.0,0.0,-1.5847,-1.4534,-1.4484,-1.589,-1.5775,-1.5525,-1.5214,-1.3432,-1.266,0.0,0.0,0.0,0.0,0.0,0.0,0.0,0.0,0.0,0.0,0.0,0.0,0.0,0.0,0.0,0.0,0.0,0.0,0.0,0.0,0.0,0.0,0.0,0.0,0.0,0.0,0.0,0.0,0.0,0.0,0.0,0.0,0.0,0.0,0.0,0.0,0.0,0.0,0.0,0.0,-0.3964,-0.3911,-0.4641,0.0,0.0,0.0,0.0,0.0,0.0,-0.2657,-0.3326,0.0,0.0,0.0,0.0,0.0,0.0,0.0,0.0,0.0,0.0,0.0,0.0,0.0,0.0,0.0,0.0,0.0,0.0,0.0,0.0,0.0,0.0,0.0,0.0,0.0,0.0,0.0,0.0,0.0,0.0,0.0,0.0,0.0,0.0,0.0,0.0,0.0,0.0,0.0,0.0,0.0,0.0,0.0,0.0,0.0,0.0,0.0,0.0,0.0,0.0,0.0,0.0,0.0,0.0,0.0,-1.6838,-1.4661,-1.4277,-1.5859,-1.5036,-1.468,-1.4937,-1.2673,-1.1976,0.0,0.0,0.0,0.0,0.0,0.0,0.0,0.0,0.0,0.0,0.0,0.0,0.0,0.0,0.0,0.0,0.0,0.0,0.0,0.0,0.0,0.0,0.0,0.0,0.0,0.0,0.0,0.0,0.0,0.0,0.0,0.0,0.0,0.0,0.0,0.0,0.0,0.0,0.0,0.0,0.0,-0.3991,-0.3377,-0.4141,0.0,0.0,0.0,0.0,-0.2482,-0.34,0.0,0.0,0.0,0.0,0.0,0.0,0.0,0.0,0.0,0.0,0.0,0.0,0.0,0.0,0.0,0.0,0.0,0.0,0.0,0.0,0.0,0.0,0.0,0.0,0.0,0.0,0.0,0.0,0.0,0.0,0.0,0.0,0.0,0.0,0.0,0.0,0.0,0.0,0.0,0.0,0.0,0.0,0.0,0.0,0.0,0.0,0.0,0.0,0.0,0.0,0.0,0.0,0.0,0.0,0.0,0.0,-1.6187,-1.5001,-1.4404,-1.4539,-1.4628,-1.4657,-1.4548,-1.2614,-1.2148,0.0,0.0,0.0,0.0,0.0,0.0,0.0,0.0,0.0,0.0,0.0,0.0,0.0,0.0,0.0,0.0,0.0,0.0,0.0,0.0,0.0,0.0,0.0,0.0,0.0,0.0,0.0,0.0,0.0,0.0,0.0,0.0,0.0,0.0,0.0,0.0,0.0,0.0,0.0,0.0,0.0,-0.5181,-0.2253,-0.2896,-0.396,0.0,0.0,-0.4292,-0.3414,-0.4563,0.0,0.0,0.0,0.0,0.0,0.0,0.0,0.0,0.0,0.0,0.0,0.0,0.0,0.0,0.0,0.0,0.0,0.0,0.0,0.0,0.0,0.0,0.0,0.0,0.0,0.0,0.0,0.0,0.0,0.0,0.0,0.0,0.0,0.0,0.0,0.0,0.0,0.0,0.0,0.0,0.0,0.0,0.0,0.0,0.0,0.0,0.0,0.0,0.0,0.0,0.0,0.0,0.0,0.0,0.0,-1.7056,-1.7423,-1.546,-1.4599,-1.494,-1.4331,-1.3922,-1.3871,-1.1916,-1.1652,0.0,0.0,0.0,0.0,0.0,0.0,0.0,0.0,0.0,0.0,0.0,0.0,0.0,0.0,0.0,0.0,0.0,0.0,0.0,0.0,0.0,0.0,0.0,0.0,0.0,0.0,0.0,0.0,0.0,0.0,0.0,0.0,0.0,0.0,0.0,0.0,0.0,0.0,0.0,0.0,0.0,0.0,-0.3123,-0.3734,0.0,0.0,0.0,-0.5707,-0.5024,0.0,0.0,0.0,0.0,0.0,0.0,0.0,0.0,0.0,0.0,0.0,0.0,0.0,0.0,0.0,0.0,0.0,0.0,0.0,0.0,0.0,0.0,0.0,0.0,0.0,0.0,0.0,0.0,0.0,0.0,0.0,0.0,0.0,0.0,0.0,0.0,0.0,0.0,0.0,0.0,0.0,0.0,0.0,0.0,0.0,0.0,0.0,0.0,0.0,0.0,0.0,0.0,0.0,0.0,0.0,0.0,0.0,-1.8227,-1.5673,-1.4615,-1.5146,-1.4066,-1.346,-1.3369,-1.158,0.0,0.0,0.0,0.0,0.0,0.0,0.0,0.0,0.0,0.0,0.0,0.0,0.0,0.0,0.0,0.0,0.0,0.0,0.0,0.0,0.0,0.0,0.0,0.0,0.0,0.0,0.0,0.0,0.0,0.0,0.0,0.0,0.0,0.0,0.0,0.0,0.0,0.0,0.0,0.0,0.0,0.0,-0.5943,-0.4775,-0.5436,-0.6445,0.0,0.0,-0.7192,-0.6804,-0.7715,-0.8354,0.0,0.0,0.0,0.0,0.0,0.0,0.0,0.0,0.0,0.0,0.0,0.0,0.0,0.0,0.0,0.0,0.0,0.0,0.0,0.0,0.0,0.0,0.0,0.0,0.0,0.0,0.0,0.0,0.0,0.0,0.0,0.0,0.0,0.0,0.0,0.0,0.0,0.0,0.0,0.0,0.0,0.0,0.0,0.0,0.0,0.0,0.0,0.0,0.0,0.0,0.0,0.0,0.0,0.0,0.0,-1.7406,-1.5434,-1.4387,-1.4372,-1.3916,-1.3588,-1.3377,-1.2112,-1.2021,0.0,0.0,0.0,0.0,0.0,0.0,0.0,0.0,0.0,0.0,0.0,0.0,0.0,0.0,0.0,0.0,0.0,0.0,0.0,0.0,0.0,0.0,0.0,0.0,0.0,0.0,0.0,0.0,0.0,0.0,0.0,0.0,0.0,0.0,0.0,0.0,0.0,0.0,0.0,0.0,0.0,-0.885,-0.7111,-0.7896,-0.9108,0.0,0.0,-0.8921,-0.8583,-0.9541,-0.9942,-0.889,0.0,0.0,0.0,0.0,0.0,0.0,0.0,0.0,0.0,0.0,0.0,0.0,0.0,0.0,0.0,0.0,0.0,0.0,0.0,0.0,0.0,0.0,0.0,0.0,0.0,0.0,0.0,0.0,0.0,0.0,0.0,0.0,0.0,0.0,0.0,0.0,0.0,0.0,0.0,0.0,0.0,0.0,0.0,0.0,0.0,0.0,0.0,0.0,0.0,0.0,0.0,0.0,0.0,-1.7402,-1.7378,-1.5416,-1.4356,-1.4293,-1.3984,-1.3899,-1.4076,-1.2993,-1.3073,0.0,0.0,0.0,0.0,0.0,0.0,0.0,0.0,0.0,0.0,0.0,0.0,0.0,0.0,0.0,0.0,0.0,0.0,0.0,0.0,0.0,0.0,0.0,0.0,0.0,0.0,0.0,0.0,-0.6569,-0.6396,-0.4377,0.0,0.0,0.0,0.0,0.0,0.0,0.0,0.0,0.0,0.0,-0.9509,-0.8547,-0.9391,0.0,0.0,-1.1214,-1.1163,-1.043,-1.0682,-1.0771,-1.0069,-1.0279,0.0,0.0,0.0,0.0,0.0,0.0,0.0,0.0,0.0,0.0,0.0,0.0,0.0,0.0,0.0,0.0,0.0,0.0,0.0,0.0,0.0,0.0,0.0,0.0,0.0,0.0,0.0,0.0,0.0,0.0,0.0,0.0,0.0,0.0,0.0,0.0,0.0,0.0,0.0,0.0,0.0,0.0,0.0,0.0,0.0,0.0,0.0,0.0,0.0,0.0,0.0,0.0,-1.7908,-1.7402,-1.5674,-1.4739,-1.4662,-1.4442,-1.4488,-1.4835,-1.4102,-1.4208,0.0,0.0,0.0,0.0,0.0,0.0,0.0,0.0,0.0,0.0,0.0,0.0,0.0,0.0,0.0,0.0,0.0,0.0,0.0,0.0,0.0,0.0,0.0,0.0,0.0,0.0,0.0,0.0,-0.6495,-0.6783,-0.6009,0.0,0.0,0.0,0.0,0.0,0.0,0.0,0.0,0.0,0.0,-1.0648,-0.9767,-1.0702,-1.1668,-1.1999,-1.2719,-1.2932,-1.2066,-1.1942,-1.1736,-1.1103,0.0,0.0,0.0,0.0,0.0,0.0,0.0,0.0,0.0,0.0,0.0,0.0,0.0,0.0,0.0,0.0,0.0,0.0,0.0,0.0,0.0,0.0,0.0,0.0,0.0,0.0,0.0,0.0,0.0,0.0,-2.4754,0.0,0.0,0.0,0.0,0.0,0.0,0.0,0.0,0.0,0.0,0.0,0.0,0.0,0.0,0.0,0.0,0.0,0.0,0.0,0.0,0.0,0.0,-1.9039,-1.7435,-1.6259,-1.5604,-1.5476,-1.5357,-1.5415,-1.5676,-1.5402,-1.5386,-1.5662,0.0,0.0,0.0,0.0,0.0,0.0,0.0,0.0,0.0,0.0,0.0,0.0,0.0,0.0,0.0,0.0,0.0,0.0,0.0,0.0,0.0,0.0,0.0,0.0,0.0,0.0,-0.6246,-0.5559,-0.5891,0.0,0.0,0.0,0.0,0.0,0.0,0.0,0.0,0.0,0.0,-1.3528,-1.2741,-1.0929,-1.1949,-1.3259,-1.4168,-1.4277,-1.4045,-1.3434,-1.3374,-1.3057,0.0,0.0,0.0,0.0,0.0,0.0,0.0,0.0,0.0,0.0,0.0,0.0,0.0,0.0,0.0,0.0,0.0,0.0,0.0,0.0,0.0,0.0,0.0,0.0,0.0,0.0,0.0,-2.5132,-2.5151,0.0,0.0,0.0,0.0,0.0,0.0,0.0,0.0,0.0,0.0,0.0,-2.712,-2.6877,0.0,0.0,0.0,0.0,0.0,0.0,0.0,0.0,0.0,0.0,0.0,0.0,-1.9331,-1.8208,-1.7077,-1.6447,-1.6365,-1.628,-1.6413,-1.6762,-1.6463,-1.605,-1.5527,0.0,0.0,0.0,0.0,0.0,0.0,0.0,0.0,0.0,0.0,0.0,0.0,0.0,0.0,0.0,0.0,0.0,0.0,0.0,0.0,0.0,0.0,0.0,0.0,0.0,-0.7205,0.0,0.0,0.0,0.0,0.0,0.0,0.0,0.0,0.0,0.0,0.0,-1.4241,-1.5513,-1.4139,-1.3293,-1.4192,-1.3896,-1.3475,0.0,0.0,0.0,0.0,0.0,0.0,0.0,0.0,0.0,0.0,0.0,0.0,0.0,0.0,-1.5652,-1.272,-1.1013,-1.0019,-0.9896,0.0,0.0,0.0,0.0,0.0,0.0,0.0,0.0,0.0,0.0,0.0,0.0,0.0,0.0,-2.5481,0.0,-2.575,0.0,0.0,0.0,0.0,0.0,0.0,0.0,0.0,-2.7302,-2.7673,-2.7998,-2.7839,-2.7738,0.0,-2.7313,-2.6666,0.0,0.0,0.0,0.0,0.0,0.0,0.0,0.0,-2.0038,-1.865,-1.7751,-1.7284,-1.7209,-1.7177,-1.7329,-1.7681,-1.7295,-1.6736,-1.6049,-1.5652,-1.5027,0.0,0.0,0.0,0.0,0.0,0.0,0.0,0.0,0.0,0.0,0.0,0.0,0.0,0.0,0.0,0.0,0.0,0.0,0.0,0.0,0.0,0.0,0.0,-0.7114,0.0,0.0,0.0,0.0,0.0,0.0,0.0,0.0,0.0,-1.2675,-1.4112,-1.5677,-1.6984,-1.5171,-1.4177,-1.534,0.0,0.0,0.0,0.0,0.0,0.0,0.0,-1.3981,-1.4053,-1.4874,-1.5596,-1.5931,-1.5592,-1.5599,-1.657,0.0,0.0,-1.5474,-1.3699,-1.2485,-1.2089,-1.0754,-0.9696,-0.9921,-0.9339,-0.8414,0.0,0.0,0.0,0.0,0.0,0.0,0.0,0.0,-2.5462,-2.5885,0.0,-2.6582,0.0,0.0,0.0,0.0,0.0,-2.7295,0.0,0.0,-2.9114,-2.9509,-2.8867,-2.8828,-2.8828,-2.8764,-2.7919,-2.7558,-2.7629,-2.7134,0.0,0.0,0.0,0.0,0.0,0.0,-2.1147,-1.8852,-1.8444,-1.8214,-1.8158,-1.815,-1.8251,-1.852,-1.7932,-1.7455,-1.7187,-1.668,-1.6313,-1.6047,-1.4673,0.0,0.0,0.0,0.0,0.0,0.0,0.0,0.0,0.0,0.0,0.0,0.0,0.0,0.0,0.0,0.0,0.0,0.0,0.0,0.0,-0.6547,0.0,0.0,0.0,0.0,0.0,0.0,0.0,0.0,0.0,0.0,-1.8815,-1.6984,-1.5984,-1.7632,0.0,0.0,0.0,0.0,-1.2072,-1.2297,-1.3694,-1.4733,-1.4639,-1.5196,-1.5689,-1.5876,0.0,0.0,-1.8087,-1.9281,-1.9381,-1.6959,-1.8441,-1.9469,-1.7555,-1.6416,-1.5514,-1.4476,-1.3643,-1.3176,-1.2788,-1.21,-1.1366,-2.825,0.0,0.0,0.0,0.0,-2.8047,-2.8038,-2.8091,-2.8028,-2.7486,-2.6621,-2.6621,0.0,0.0,0.0,0.0,0.0,0.0,-2.7937,-2.8465,-2.8897,-2.9285,-2.9588,-2.9523,-2.95,-2.9418,-2.9107,-2.9022,-2.9076,-2.8939,-2.804,-2.644,0.0,0.0,0.0,0.0,-2.259,-2.126,-2.0982,-2.0836,-2.0723,-2.062,-2.0174,-1.9379,-1.9178,-1.8538,-1.7396,-1.7195,-1.6681,-1.5804,-1.5637,0.0,0.0,0.0,0.0,0.0,0.0,0.0,0.0,0.0,0.0,0.0,0.0,0.0,0.0,0.0,0.0,0.0,0.0,0.0,-0.897,-0.7344,-0.7013,0.0,0.0,0.0,0.0,0.0,0.0,0.0,0.0,0.0,-1.6295,-1.5547,-1.5133,0.0,0.0,-1.3525,-1.4418,-1.2193,-1.1604,-1.5001,-1.595,0.0,0.0,-1.6426,-1.6536,-1.6536,-1.7764,-1.8771,-1.9025,-1.9943,-2.0339,-1.9333,-1.918,-1.8974,-1.8427,-1.7,-1.5823,-1.5216,-1.4587,-1.4079,-1.3919,-1.3627,-1.3363,-3.0794,-2.9813,-2.9179,-2.9203,-2.9665,-2.9635,-2.9646,-2.9689,-2.9635,-2.9236,-2.8615,-2.825,-2.7827,-2.7288,-2.6602,0.0,0.0,0.0,-2.8548,-2.9228,-2.9228,-2.9471,-2.9888,-2.9847,-2.9823,-2.9779,-2.9736,-2.9736,-2.9787,-2.9481,-2.8522,-2.6924,0.0,0.0,-2.3902,-2.3725,-2.3221,-2.2322,-2.2122,-2.1988,-2.1887,-2.1688,-2.1243,-2.0473,-1.9974,-1.9245,-1.8346,-1.773,-1.7065,-1.6342,-1.6305,-1.5322,0.0,0.0,0.0,0.0,0.0,0.0,0.0,0.0,0.0,0.0,0.0,-0.8843,0.0,0.0,0.0,0.0,-0.7571,-0.8149,-0.8219,-0.8094,0.0,0.0,0.0,0.0,0.0,0.0,0.0,-1.8355,-1.7557,-1.6404,-1.514,-1.4915,-1.5097,-1.5725,-1.4579,-1.3943,-1.4691,0.0,-1.3154,-1.7241,-1.7851,-1.7638,-1.706,-1.719,-1.738,-1.7597,-1.8232,-1.8821,-1.9172,-1.9673,-1.9935,-1.9738,-1.923,-1.878,-1.8684,-1.7614,-1.6673,-1.6314,-1.5787,-1.5415,-1.5428,-1.5168,-1.5078,-3.3237,-3.3179,-3.1654,-3.0923,-3.0692,-3.0692,-3.0712,-3.0712,-3.0712,-3.1077,-3.1621,-3.0865,-3.0423,-3.0192,-2.8826,0.0,-2.9,-2.907,-2.9416,-3.0008,-2.9934,-2.9916,-2.9916,-2.9916,-2.9916,-2.9907,-2.9916,-2.9916,-2.9878,-2.922,-2.8403,-2.7516,-2.7478,-2.6248,-2.3936,-2.3759,-2.3347,-2.2615,-2.2445,-2.2294,-2.2187,-2.1924,-2.178,-2.168,-2.0562,-1.9879,-1.9686,-1.8346,-1.7537,-1.7434,-1.6882,-1.5433,-1.3104,0.0,0.0,0.0,0.0,0.0,0.0,0.0,0.0,0.0,0.0,0.0,0.0,0.0,0.0,0.0,-0.6432,0.0,-0.601,-0.8846,0.0,0.0,0.0,-1.1553,-1.2083,-1.6415,-1.9612,-2.024,0.0,0.0,-1.5431,0.0,-1.5786,-1.7383,-1.6542,-1.5617,-1.5142,-1.4785,-1.5765,-1.8743,-1.926,-1.8757,-1.7502,-1.772,-1.8268,-1.8729,-1.8852,-1.8815,-1.8833,-1.8832,-1.8823,-1.8858,-1.8797,-1.8723,-1.8514,-1.8225,-1.7995,-1.7504,-1.7142,-1.6928,-1.6929,-1.6649,-1.6444,-3.6173,-3.6757,-3.6353,-3.5084,-3.3301,-3.3301,-3.3301,-3.3295,-3.3295,-3.2699,-3.1698,-3.1487,-3.0636,-2.9345,-2.9619,-2.9806,-2.9893,-2.9865,-3.0247,-3.0901,-3.0232,-2.9916,-2.9916,-2.9916,-2.9916,-2.9916,-2.9916,-2.9916,-2.9888,-2.9614,-2.8782,-2.749,-2.7373,-2.6465,-2.4833,-2.4762,-2.4594,-2.4305,-2.4252,-2.4099,-2.3846,-2.3658,-2.3243,-2.2538,-2.2225,-2.1363,-1.9923,-1.9515,-1.8833,-1.7867,-1.8427,-1.8564,-1.7978,-1.7382,0.0,0.0,0.0,0.0,0.0,0.0,0.0,0.0,0.0,-1.1594,-0.8688,0.0,-1.0898,0.0,-0.8728,-0.6862,-0.8577,-0.9526,0.0,0.0,-0.9823,-1.0402,-1.5311,-1.8239,-1.9955,-2.026,-1.9887,-1.9087,-1.7657,-1.7103,-1.7188,-1.8084,-1.6367,-1.5325,-1.622,-1.5305,-1.5668,-1.8588,-1.9279,-1.9168,-1.8775,-1.8817,-1.8947,-1.9099,-1.8991,-1.8887,-1.8869,-1.8834,-1.8797,-1.8797,-1.8797,-1.8695,-1.8418,-1.8408,-1.8338,-1.8009,-1.7601,-1.732,-1.7502,-1.732,-1.7158,-3.7565,-3.8007,-3.8007,-3.718,-3.5898,-3.5898,-3.5892,-3.586,-3.5488,-3.4584,-3.3365,-3.2968,-3.1834,-3.0285,-3.0701,-3.0861,-3.0727,-3.0696,-3.0902,-3.123,-3.0717,-3.0276,-2.9916,-2.9916,-2.9916,-2.9916,-2.9916,-2.9916,-2.9888,-2.9822,-2.9179,-2.7979,-2.7593,-2.6977,-2.6181,-2.5473,-2.5049,-2.5,-2.4877,-2.47,-2.449,-2.4303,-2.3776,-2.2941,-2.2474,-2.1589,-2.0164,-1.9657,-1.9076,-1.8383,-1.8961,-1.8969,-1.825,-1.9203,-1.7822,0.0,0.0,0.0,0.0,0.0,0.0,0.0,0.0,0.0,0.0,0.0,-0.8984,-1.3092,-1.0502,-0.9123,-1.038,-1.3149,-1.4743,-1.4267,-1.3424,-1.3518,-1.5087,-1.8055,-2.0077,-2.0288,-2.0117,-1.9749,-1.9035,-1.8356,-1.8036,-1.8422,-1.7235,-1.6767,-1.7754,-1.7226,-1.7307,-1.8985,-1.9279,-1.9279,-1.9279,-1.9269,-1.924,-1.9192,-1.9051,-1.894,-1.8904,-1.8843,-1.8797,-1.8797,-1.8797,-1.8723,-1.8475,-1.8505,-1.8514,-1.8345,-1.7992,-1.776,-1.7783,-1.7584,-1.7389,-3.8219,-3.8315,-3.8334,-3.845,-3.8623,-3.8296,-3.8046,-3.7777,-3.6923,-3.6154,-3.5462,-3.4699,-3.3487,-3.2045,-3.2025,-3.1917,-3.1747,-3.1637,-3.1554,-3.1533,-3.1402,-3.0901,-3.0059,-3.0067,-3.001,-2.9916,-2.9916,-2.9916,-2.9916,-2.9872,-2.9491,-2.87,-2.7998,-2.7592,-2.7461,-2.6123,-2.5357,-2.5275,-2.5017,-2.485,-2.4797,-2.4458,-2.387,-2.3051,-2.2264,-2.136,-2.0431,-1.9488,-1.8941,-1.8816,-1.9006,-1.8442,-1.7063,-2.0096,-2.081,0.0,-2.0843,0.0,0.0,0.0,0.0,0.0,0.0,0.0,0.0,-0.8866,-0.7863,-1.2453,-1.2543,-1.2277,-1.2113,-1.744,-1.9481,-1.6037,-1.8022,-1.81,-1.4373,-1.7436,-2.0086,-2.0259,-2.0072,-1.9897,-1.9763,-1.9174,-1.8695,-1.8621,-1.8495,-1.8593,-1.9325,-1.9243,-1.9113,-1.9279,-1.9279,-1.9279,-1.9279,-1.9297,-1.9285,-1.9198,-1.9111,-1.9009,-1.8948,-1.8861,-1.8797,-1.8797,-1.8797,-1.8742,-1.8581,-1.86,-1.8601,-1.859,-1.8315,-1.8119,-1.8131,-1.79,-1.7614,-3.9431,-4.0035,-4.0035,-4.0843,-4.195,-3.9912,-3.8257,-3.6885,-3.6077,-3.5635,-3.5481,-3.5327,-3.4673,-3.3763,-3.3725,-3.3691,-3.353,-3.2802,-3.2775,-3.3297,-3.2517,-3.1753,-3.0977,-3.0958,-3.0579,-2.9934,-2.9916,-2.9916,-2.9907,-2.9777,-2.9395,-2.8787,-2.8506,-2.812,-2.7592,0.0,0.0,0.0,-2.5927,-2.5819,-2.5804,-2.5069,-2.4214,-2.3281,-2.307,0.0,-2.0502,-2.0206,-1.9694,-1.8878,-1.9401,0.0,0.0,0.0,0.0,0.0,0.0,0.0,0.0,0.0,0.0,0.0,-1.639,-1.2384,-0.9169,-1.5932,-1.9407,-1.6612,-1.6608,-1.6412,-1.5377,-1.7524,-1.882,-1.8183,-1.9205,-1.9616,-1.8735,-1.9473,-2.001,-2.0066,-2.0023,-1.996,-1.9871,-1.9631,-1.9445,-1.931,-1.9265,-1.9243,-1.9331,-1.932,-1.9279,-1.9279,-1.9279,-1.9279,-1.9279,-1.9279,-1.9289,-1.9259,-1.9206,-1.9145,-1.9052,-1.8966,-1.8852,-1.8815,-1.8797,-1.8788,-1.8724,-1.8751,-1.8696,-1.8611,-1.8408,-1.843,-1.8966,-1.8848,-1.8769,-4.0535,0.0,-4.0496,-4.1266,0.0,-4.0208,-3.8796,-3.793,-3.7103,-3.6481,-3.6077,-3.5673,-3.5026,-3.4205,-3.4205,-3.4166,-3.4076,-3.3619,-3.3547,-3.376,-3.2919,-3.2241,-3.1781,-3.0939,-3.056,-3.0522,-3.0086,-2.9916,-2.9907,-2.9839,-2.9647,-2.9345,-2.8828,-2.8618,-2.8745,-2.8733,-2.8146,-2.6943,-2.6818,-2.6699,-2.6524,-2.6066,-2.534,-2.4375,0.0,0.0,0.0,0.0,0.0,0.0,0.0,0.0,0.0,0.0,0.0,-2.381,-2.3192,-2.2648,-2.2282,-2.0823,-2.0097,-2.0446,-1.6812,-1.3939,-1.2535,-2.0,-2.2797,-1.8408,-1.852,-1.9,-1.9201,-2.0276,-2.0872,-2.0543,-2.0229,-2.0028,-1.9999,-1.9988,-1.9988,-1.9977,-1.989,-1.9837,-1.9806,-1.9713,-1.9614,-1.952,-1.9438,-1.9398,-1.9312,-1.9279,-1.9279,-1.9279,-1.9279,-1.9279,-1.9279,-1.9279,-1.9279,-1.9289,-1.9256,-1.9186,-1.9104,-1.8958,-1.8843,-1.8806,-1.8797,-1.8797,-1.8788,-1.8751,-1.8561,-1.8141,-1.8106,-1.8291,-1.8709,-1.8808,-1.8841,-4.1431,-4.0516,-4.0689,-4.1162,-4.1681,-4.0169,-3.9515,-3.9419,0.0,0.0,0.0,-3.6154,-3.5565,-3.4898,-3.4879,-3.4838,-3.4786,-3.4767,-3.4588,-3.4243,-3.3604,-3.3058,-3.2603,-3.1248,-3.0785,-3.1156,-3.0484,-3.0048,-2.9916,-2.9916,-2.988,-2.9799,-2.9101,-2.9101,-2.9817,-2.988,-2.9246,-2.7996,-2.7725,-2.749,-2.7286,-2.7019,-2.6413,-2.5481,-2.468,-2.386,-2.3024,-2.251,-2.2161,-2.2014,-2.2143,-2.2896,-2.4291,-2.3786,-2.4006,-2.5246,-2.4787,-2.4355,-2.4153,-2.1702,-2.016,-2.0152,-1.7729,-1.6895,-1.8529,-2.2342,-2.3325,-1.9945,-2.0289,-2.1259,-2.2587,-2.3293,-2.3399,-2.2593,-2.1494,-2.0774,-2.0464,-2.0121,-1.9988,-1.9971,-1.9844,-1.9712,-1.9719,-1.964,-1.9543,-1.9468,-1.956,-1.9486,-1.9349,-1.9279,-1.9279,-1.9279,-1.9279,-1.9279,-1.9279,-1.9279,-1.9279,-1.9279,-1.9246,-1.9184,-1.9095,-1.8967,-1.8878,-1.8797,-1.8797,-1.894,-1.9127,-1.8917,-1.846,-1.7921,-1.7942,-1.8102,-1.8143,-1.854,-1.8735,-4.197,-4.0573,-4.1316,-4.1673,-4.1712,-4.0739,-4.0323,-4.0131,-3.7892,-3.6808,-3.6731,-3.7373,-3.7584,-3.7469,-3.7469,-3.7432,-3.7364,-3.7364,-3.6925,-3.6118,-3.6003,-3.5113,-3.3629,-3.3363,-3.2522,-3.125,-3.1061,-3.0635,-2.9972,-2.9916,-2.9839,-2.9734,-2.9604,-2.9585,-2.9725,-2.9839,-2.9791,-2.9553,-2.8815,-2.8426,-2.8374,-2.7564,-2.6667,-2.5689,-2.4971,-2.4056,-2.3052,-2.3584,-2.3547,-2.2896,-2.3492,-2.4281,-2.5164,-2.5136,-2.5154,-2.5384,-2.5301,-2.4934,-2.4263,-2.3768,-2.3511,-2.3492,-2.3088,-2.2444,-2.1517,-2.3392,-2.4445,-2.3825,-2.378,-2.4099,-2.4358,-2.4415,-2.4178,-2.3486,-2.3761,-2.35,-2.2129,-2.0755,-1.9982,-1.9977,-1.9838,-1.9725,-1.9732,-1.9647,-1.9578,-1.9593,-2.0028,-2.0123,-1.9635,-1.9279,-1.9279,-1.9279,-1.9279,-1.9279,-1.9389,-1.9334,-1.9407,-1.9279,-1.9392,-1.9384,-1.912,-1.9204,-1.9127,-1.8851,-1.8868,-1.9314,-2.0269,-1.9556,-1.891,-1.8913,-1.8589,-1.8119,-1.8081,-1.8461,-1.8944,-4.2758,-4.1316,-4.1623,-4.2085,-4.247,-4.2066,-4.1623,-4.1123,-3.9988,-3.8931,-3.818,-3.8534,-3.845,-3.8007,-3.8007,-3.7993,-3.7955,-3.7955,-3.7705,-3.7212,-3.6323,-3.5638,-3.5053,-3.3779,-3.271,-3.1838,-3.1402,-3.0749,-2.9964,-2.9811,-2.9751,-2.9689,-2.9626,-2.9626,-2.9708,-2.977,-2.9796,-2.9796,-2.9479,-2.924,-2.9072,-2.8661,-2.8156,-2.7498,-2.6743,-2.6113,-2.5631,-2.5548,-2.5346,-2.4969,-2.5034,-2.5566,-2.6623,-2.6557,-2.6568,-2.666,-2.587,-2.5429,-2.5493,-2.5099,-2.4677,-2.4245,-2.4199,-2.4155,-2.3993,-2.4409,-2.4681,-2.4681,-2.4681,-2.4681,-2.4681,-2.4681,-2.4557,-2.4197,-2.4501,-2.4396,-2.3519,-2.1387,-1.9993,-1.9862,-1.9751,-1.9693,-1.9642,-1.9863,-2.0054,-2.0112,-2.069,-2.1023,-2.0692,-2.0362,-1.9958,-1.9452,-1.9297,-1.9517,-1.9877,-2.0399,-2.0417,-2.006,-2.0362,-2.015,-1.949,-1.9536,-1.9667,-1.9039,-1.9225,-1.9617,-2.0028,-1.9141,-1.8741,-1.8723,-1.8456,-1.7983,-1.7956,-1.785,-1.8144,-4.3605,-4.2096,-4.2297,-4.2758,-4.3335,-4.3162,-4.2797,-4.2374,-4.2354,-4.1527,-4.0239,-3.9958,-3.9373,-3.8604,-3.8565,-3.8565,-3.8565,-3.8565,-3.8439,-3.8078,-3.6677,-3.612,-3.6133,-3.4154,-3.2934,-3.246,-3.196,-3.1223,-3.0297,-3.0242,-3.0227,-3.0133,-2.9876,-2.9782,-2.9842,-2.9739,-2.9644,-2.9663,-2.9753,-2.969,-2.9453,-2.9412,-2.9265,-2.8973,-2.8411,-2.797,-2.7798,-2.7383,-2.706,-2.6888,-2.6638,-2.6998,-2.797,-2.7868,-2.7787,-2.7695,-2.6641,-2.6127,-2.6502,-2.587,-2.5209,-2.4777,-2.4392,-2.4616,-2.5532,-2.5809,-2.5533,-2.5102,-2.4839,-2.47,-2.4684,-2.4692,-2.4692,-2.4676,-2.4692,-2.4471,-2.3949,-2.1652,-1.9926,-1.9732,-1.9653,-1.9555,-1.9622,-2.0076,-2.0647,-2.1125,-2.1657,-2.2088,-2.2235,-2.1914,-2.128,-2.0637,-2.0123,-2.016,-2.0731,-2.14,-2.1537,-2.0933,-2.1298,-2.102,-2.0216,-2.0372,-2.0129,-1.9272,-1.9921,-2.0313,-1.9571,-1.9125,-1.8997,-1.9049,-1.8645,-1.8059,-1.7822,-1.7264,-1.7122,-4.4498,-4.322,-4.372,-4.4105,-4.4085,-4.3451,-4.3489,-4.4008,-4.4066,-4.3585,-4.2624,-4.1912,-4.1085,-4.0342,-4.0227,-4.0208,-4.0189,-4.0265,-3.9854,-3.9115,-3.8192,-3.734,-3.6569,-3.5463,-3.4121,-3.2858,-3.3114,-3.253,-3.1157,-3.1629,-3.1788,-3.1451,-3.0787,-3.0353,-3.0275,-2.9807,-2.9522,-2.9522,-2.9531,-2.9434,-2.923,-2.9123,-2.9021,-2.8987,-2.8932,-2.8546,-2.7879,-2.8448,-2.8436,-2.7824,-2.8308,-2.8748,-2.8858,-2.8858,-2.8528,-2.7849,-2.7658,-2.7328,-2.6649,-2.587,-2.5705,-2.619,-2.5071,-2.4735,-2.5755,-2.7811,-2.8199,-2.6341,-2.5158,-2.4679,-2.4631,-2.4653,-2.4668,-2.4604,-2.466,-2.4148,-2.2799,-2.104,-1.9902,-1.9719,-1.9689,-1.9383,-1.9741,-2.0286,-2.118,-2.2492,-2.274,-2.307,-2.3566,-2.3648,-2.3538,-2.33,-2.2547,-2.1666,-2.1749,-2.2134,-2.2271,-2.1822,-2.1757,-2.1597,-2.1243,-2.0752,-2.0181,-1.9764,-2.041,-2.1276,-2.1089,-2.0632,-2.0314,-2.0123,-1.9499,-1.8606,-1.7946,-1.7224,-1.698,-4.4921,-4.3855,-4.4162,-4.4316,-4.4316,-4.4489,-4.4767,-4.5056,-4.5075,-4.4594,-4.3835,-4.3431,-4.2527,-4.1296,-4.1277,-4.1008,-4.0516,-4.0496,-4.0342,-3.9958,-3.9169,-3.8278,-3.7356,-3.6405,-3.5034,-3.3418,-3.3588,-3.308,-3.2116,-3.1985,-3.1926,-3.1624,-3.078,-3.0412,-3.0485,-2.9741,-2.9314,-2.9332,-2.9322,-2.9238,-2.9104,-2.9115,-2.9071,-2.9017,-2.8987,-2.8877,-2.8583,-2.884,-2.884,-2.8546,-2.8822,-2.8947,-2.8834,-2.8929,-2.8765,-2.8209,-2.8263,-2.7803,-2.6693,-2.6722,-2.6751,-2.6638,-2.63,-2.6381,-2.6957,-2.7707,-2.7559,-2.6635,-2.5346,-2.4553,-2.4503,-2.458,-2.4596,-2.4528,-2.461,-2.4357,-2.3632,-2.1189,-1.9845,-2.0714,-2.0831,-2.079,-2.096,-2.1507,-2.2419,-2.3465,-2.3685,-2.3841,-2.4163,-2.4199,-2.4199,-2.4116,-2.3584,-2.3052,-2.2685,-2.3088,-2.3125,-2.2813,-2.2923,-2.2987,-2.1824,-2.2215,-2.1926,-2.0432,-2.1258,-2.2139,-2.2524,-2.1372,-2.0674,-2.0755,-2.03,-1.9118,-1.7507,-1.6999,-1.6843,-4.5778,-4.5086,-4.5009,-4.5009,-4.5047,-4.5421,-4.5594,-4.5594,-4.5594,-4.5229,-4.4701,-4.4662,-4.3855,-4.2585,-4.2277,-4.1797,-4.1227,-4.0969,-4.0843,-4.0719,-3.9785,-3.8946,-3.8231,-3.7327,-3.5935,-3.4469,-3.4383,-3.3932,-3.3025,-3.2657,-3.2432,-3.2133,-3.1115,-3.0763,-3.1062,-3.0083,-2.9474,-2.9474,-2.9485,-2.9326,-2.9076,-2.9093,-2.9104,-2.8998,-2.8987,-2.8987,-2.8987,-2.8987,-2.8987,-2.8987,-2.8987,-2.8905,-2.8718,-2.8912,-2.8846,-2.8543,-2.8551,-2.8203,-2.724,-2.7526,-2.7585,-2.7288,-2.7299,-2.7386,-2.7738,-2.7637,-2.7253,-2.6669,-2.5727,-2.4976,-2.4419,-2.4478,-2.4495,-2.4399,-2.4537,-2.4543,-2.4211,-2.1968,-2.1021,-2.1702,-2.2133,-2.2345,-2.229,-2.2776,-2.3547,-2.4006,-2.4171,-2.4199,-2.4199,-2.4199,-2.4199,-2.4199,-2.419,-2.3951,-2.3492,-2.3694,-2.3823,-2.3694,-2.3786,-2.3582,-2.2415,-2.325,-2.3556,-2.1964,-2.2225,-2.2413,-2.2919,-2.2071,-2.1061,-2.116,-2.0567,-1.9355,-1.7912,-1.7405,-1.7184,-4.7509,-4.6778,-4.675,-4.6663,-4.6712,-4.5951,-4.5633,-4.5787,-4.5691,-4.5614,-4.5556,-4.5594,-4.5056,-4.4162,-4.3508,-4.3028,-4.2835,-4.2085,-4.1692,-4.1519,-4.0123,-3.9315,-3.9173,-3.8278,-3.6913,-3.5392,-3.5794,-3.5456,-3.4342,-3.4085,-3.39,-3.3595,-3.2113,-3.1727,-3.2101,-3.0907,-3.0166,-3.0087,-3.008,-2.9763,-2.9115,-2.8998,-2.8998,-2.8987,-2.8987,-2.8987,-2.8987,-2.8987,-2.8987,-2.8987,-2.8987,-2.8923,-2.8731,-2.8851,-2.8846,-2.8682,-2.8487,-2.8487,-2.8415,-2.7931,-2.7893,-2.8464,-2.7552,-2.6973,-2.7727,-2.8326,-2.8033,-2.6607,-2.6576,-2.6005,-2.4626,-2.4531,-2.4447,-2.4321,-2.4383,-2.4407,-2.4389,-2.3953,-2.3217,-2.2473,-2.3088,-2.3511,-2.3061,-2.3657,-2.4006,-2.4181,-2.4199,-2.4199,-2.4199,-2.4199,-2.4199,-2.4199,-2.4199,-2.4181,-2.4126,-2.4116,-2.4153,-2.4043,-2.396,-2.4087,-2.3979,-2.384,-2.3581,-2.341,-2.3258,-2.3202,-2.3341,-2.2928,-2.2098,-2.1469,-2.0334,-1.9142,-1.842,-1.8065,-1.7788,-4.6336,-4.6067,-4.6067,-4.6374,-4.6846,-4.6547,-4.6721,-4.7182,-4.7182,-4.6894,-4.6586,-4.6971,-4.674,-4.5932,-4.5663,-4.4624,-4.3162,-4.2758,-4.2335,-4.1788,-4.1162,-4.0335,-3.9296,-3.8861,-3.8044,-3.7014,-3.7002,-3.646,-3.5273,-3.4965,-3.4484,-3.3723,-3.2706,-3.2339,-3.2344,-3.1513,-3.0742,-3.0265,-3.021,-2.9794,-2.9115,-2.8987,-2.8987,-2.8987,-2.8987,-2.8987,-2.8987,-2.8987,-2.8987,-2.8987,-2.8987,-2.8858,-2.8543,-2.8304,-2.8304,-2.8448,-2.8327,-2.8313,-2.8443,-2.8234,-2.8274,-2.8676,-2.8263,-2.7954,-2.8305,-2.8692,-2.8453,-2.7527,-2.7789,-2.721,-2.5553,-2.506,-2.4885,-2.4376,-2.433,-2.4355,-2.4294,-2.4219,-2.3933,-2.3538,-2.3914,-2.4025,-2.3896,-2.4025,-2.419,-2.4199,-2.4199,-2.4199,-2.4199,-2.4199,-2.4199,-2.4199,-2.4199,-2.4199,-2.4199,-2.4199,-2.4199,-2.4199,-2.4162,-2.4095,-2.3998,-2.3927,-2.3709,-2.3526,-2.3578,-2.3441,-2.3319,-2.3017,-2.2341,-2.1566,-2.0403,-1.9653,-1.908,-1.8545,-1.82,-4.674,-4.721,-4.7268,-4.7413,-4.7702,-4.7712,-4.7855,-4.8077,-4.7836,-4.7538,-4.7394,-4.7625,-4.7528,-4.7317,-4.7288,-4.6259,-4.4374,-4.3778,-4.3162,-4.2604,-4.2335,-4.147,-4.0288,-4.0018,-3.9295,-3.8172,-3.7555,-3.6737,-3.568,-3.5328,-3.4713,-3.3788,-3.2986,-3.2729,-3.2816,-3.2192,-3.1494,-3.1054,-3.0962,-3.0503,-2.9574,-2.9659,-2.9629,-2.9427,-2.939,-2.9262,-2.9023,-2.8987,-2.8987,-2.8987,-2.8987,-2.8827,-2.8505,-2.8003,-2.7872,-2.8228,-2.8109,-2.8095,-2.8309,-2.8375,-2.8461,-2.8657,-2.87,-2.8718,-2.8644,-2.8846,-2.8554,-2.8179,-2.8444,-2.8106,-2.6744,-2.6225,-2.5794,-2.4806,-2.445,-2.4312,-2.4237,-2.4199,-2.4199,-2.4126,-2.4144,-2.4199,-2.4199,-2.4199,-2.4199,-2.4199,-2.4199,-2.4199,-2.4199,-2.4199,-2.4199,-2.4199,-2.4199,-2.4199,-2.4218,-2.4208,-2.4168,-2.4158,-2.4113,-2.4056,-2.4016,-2.3955,-2.3884,-2.3711,-2.3533,-2.3354,-2.3151,-2.2902,-2.2392,-2.174,-2.0918,-2.0108,-1.951,-1.8897,-1.8427,-4.8952,-5.0106,-5.0616,-4.976,-4.9202,-4.9067,-4.8798,-4.824,-4.7548,-4.7721,-4.8038,-4.7471,-4.774,-4.799,-4.8105,-4.7625,-4.6654,-4.5182,-4.4297,-4.4008,-4.3393,-4.2566,-4.1596,-4.1484,-4.0586,-3.8974,-3.7581,-3.6533,-3.5861,-3.5483,-3.4848,-3.388,-3.3188,-3.317,-3.3752,-3.2963,-3.2564,-3.2399,-3.2344,-3.1684,-3.0522,-3.0834,-3.0815,-3.0228,-3.0173,-2.9824,-2.9042,-2.8987,-2.8987,-2.8994,-2.8975,-2.8893,-2.8582,-2.8041,-2.7818,-2.7993,-2.7864,-2.789,-2.816,-2.8277,-2.8409,-2.8576,-2.8803,-2.8755,-2.8569,-2.8694,-2.8694,-2.844,-2.8628,-2.8524,-2.782,-2.7567,-2.6946,-2.565,-2.4834,-2.4521,-2.4401,-2.4236,-2.4199,-2.4199,-2.4199,-2.4199,-2.4199,-2.4199,-2.4199,-2.4199,-2.4199,-2.4199,-2.4199,-2.4199,-2.4199,-2.4226,-2.4502,-2.4777,-2.4502,-2.4217,-2.4165,-2.4095,-2.4042,-2.3968,-2.3955,-2.3915,-2.3955,-2.381,-2.36,-2.343,-2.3199,-2.2982,-2.2829,-2.2194,-2.1361,-2.0528,-1.985,-1.9178,-1.8381,-4.7453,-4.8058,-4.8086,-4.8625,-4.924,-4.8779,-4.8952,-4.9837,-4.9606,-4.9317,-4.9106,-4.9356,-4.9336,-4.9029,-4.899,-4.8856,-4.8471,-4.6874,-4.547,-4.4451,-4.4047,-4.3181,-4.2069,-4.1711,-4.0995,-3.9822,-3.8936,-3.8115,-3.733,-3.686,-3.6046,-3.4821,-3.438,-3.4069,-3.3825,-3.3532,-3.3201,-3.2656,-3.2601,-3.2063,-3.1127,-3.1268,-3.1017,-3.0375,-3.0723,-3.0411,-2.9115,-2.8987,-2.8987,-2.8987,-2.887,-2.865,-2.8282,-2.7904,-2.7745,-2.7806,-2.7745,-2.773,-2.7847,-2.8063,-2.8268,-2.8422,-2.8538,-2.8576,-2.8487,-2.8273,-2.8192,-2.8255,-2.8538,-2.8403,-2.7813,-2.7738,-2.7126,-2.5576,-2.564,-2.5676,-2.5474,-2.4795,-2.4291,-2.4199,-2.4199,-2.4199,-2.419,-2.4208,-2.417,-2.4198,-2.4198,-2.4235,-2.419,-2.4199,-2.4199,-2.4218,-2.485,-2.5456,-2.5199,-2.5051,-2.5024,-2.4738,-2.4452,-2.4218,-2.4114,-2.3915,-2.3955,-2.3886,-2.3682,-2.3487,-2.3247,-2.3095,-2.297,-2.2595,-2.1802,-2.0981,-2.0174,-1.9484,-1.8847,-4.6896,-4.7346,-4.7346,-4.7913,-4.8836,-4.8317,-4.8702,-4.9586,-4.9413,-4.9125,-4.9048,-4.9452,-4.9644,-4.949,-4.9721,-4.9683,-4.926,-4.7952,-4.6586,-4.5336,-4.4874,-4.4162,-4.3049,-4.1996,-4.1046,-4.016,-3.9563,-3.8881,-3.8109,-3.7664,-3.6798,-3.5679,-3.5463,-3.5059,-3.4325,-3.4229,-3.3844,-3.3183,-3.3073,-3.2669,-3.2082,-3.2137,-3.1898,-3.1292,-3.1476,-3.1201,-3.0326,-2.9537,-2.897,-2.8858,-2.8619,-2.8349,-2.814,-2.7861,-2.7716,-2.7716,-2.7716,-2.7716,-2.773,-2.7982,-2.8164,-2.8309,-2.8409,-2.8448,-2.8414,-2.8063,-2.7975,-2.8017,-2.8378,-2.8457,-2.8088,-2.815,-2.7501,-2.6017,-2.5621,-2.575,-2.5566,-2.485,-2.4291,-2.419,-2.4151,-2.4161,-2.4198,-2.4084,-2.4074,-2.4074,-2.432,-2.436,-2.4279,-2.4199,-2.441,-2.4887,-2.575,-2.6043,-2.5897,-2.5873,-2.5931,-2.5521,-2.5049,-2.4755,-2.4529,-2.4096,-2.3927,-2.3852,-2.3678,-2.3591,-2.3399,-2.3295,-2.3163,-2.2646,-2.2248,-2.1579,-2.0873,-2.0291,-1.9653,-4.7136,-4.7991,-4.7991,-4.802,-4.826,-4.8154,-4.8336,-4.8298,-4.7663,-4.7875,-4.8355,-4.8567,-4.8779,-4.949,-5.0192,-5.0154,-4.9375,-4.8625,-4.7817,-4.6932,-4.6144,-4.5327,-4.4467,-4.2603,-4.1312,-4.0471,-3.9776,-3.9081,-3.8532,-3.7964,-3.718,-3.6431,-3.6321,-3.5936,-3.5243,-3.5096,-3.4729,-3.4174,-3.4027,-3.3623,-3.2913,-3.344,-3.3348,-3.2528,-3.2375,-3.2265,-3.1775,-3.0155,-2.8955,-2.8675,-2.834,-2.815,-2.8091,-2.7861,-2.7716,-2.7716,-2.7716,-2.7716,-2.776,-2.7936,-2.8122,-2.8228,-2.8401,-2.85,-2.8349,-2.8183,-2.7961,-2.78,-2.8264,-2.8596,-2.8597,-2.8724,-2.8079,-2.673,-2.5585,-2.4869,-2.4309,-2.4245,-2.4218,-2.417,-2.4094,-2.4036,-2.4132,-2.3927,-2.3837,-2.3933,-2.44,-2.4602,-2.461,-2.4697,-2.5151,-2.5949,-2.6987,-2.6869,-2.6796,-2.6675,-2.6768,-2.6892,-2.6218,-2.5581,-2.5002,-2.4452,-2.4117,-2.4005,-2.3881,-2.3747,-2.3573,-2.3481,-2.3383,-2.3118,-2.2682,-2.2183,-2.1558,-2.0842,-2.0195,-4.6606,-4.6981,-4.7011,-4.772,-4.867,-4.8337,-4.8836,-4.9798,-4.9009,-4.8913,-4.9663,-4.9336,-4.9096,-4.9471,-5.026,-5.0231,-4.9529,-4.9125,-4.9009,-4.8548,-4.7201,-4.5303,-4.3781,-4.2823,-4.2177,-4.1639,-4.066,-4.0147,-3.9864,-3.8869,-3.797,-3.7217,-3.7217,-3.6813,-3.6083,-3.5954,-3.5881,-3.5679,-3.5605,-3.5147,-3.4472,-3.4454,-3.3977,-3.2766,-3.3073,-3.2742,-3.1768,-3.0264,-2.9104,-2.8515,-2.8246,-2.8011,-2.7861,-2.776,-2.7716,-2.7716,-2.7716,-2.7716,-2.776,-2.7936,-2.8109,-2.8191,-2.8242,-2.844,-2.8761,-2.8179,-2.7861,-2.7742,-2.8045,-2.8322,-2.8479,-2.8633,-2.8019,-2.6892,-2.5988,-2.5273,-2.4447,-2.4199,-2.4199,-2.418,-2.4084,-2.3986,-2.3876,-2.3786,-2.3623,-2.3723,-2.4341,-2.5038,-2.5099,-2.5084,-2.5444,-2.7358,-2.8363,-2.7978,-2.7732,-2.7567,-2.7691,-2.813,-2.7571,-2.6609,-2.5814,-2.4935,-2.4709,-2.4582,-2.4392,-2.4248,-2.3894,-2.3652,-2.3567,-2.3797,-2.3052,-2.2494,-2.1731,-2.103,-2.0453,-4.5867,-4.6003,-4.6421,-4.6939,-4.7496,-4.7559,-4.799,-4.8384,-4.8067,-4.8241,-4.8788,-4.8855,-4.8951,-4.9315,-4.9795,-5.0038,-4.9875,-4.9183,-4.8836,-4.8548,-4.7067,-4.5217,-4.3665,-4.3252,-4.2967,-4.2287,-4.1262,-4.072,-4.0461,-3.97,-3.8884,-3.8245,-3.8355,-3.7918,-3.6868,-3.6795,-3.6629,-3.6285,-3.5991,-3.5463,-3.5059,-3.4656,-3.4087,-3.328,-3.3532,-3.2955,-3.1128,-3.0355,-2.9598,-2.8636,-2.8119,-2.7864,-2.773,-2.7716,-2.7716,-2.7716,-2.7716,-2.7716,-2.773,-2.7847,-2.7936,-2.7993,-2.8007,-2.8128,-2.8291,-2.7943,-2.7716,-2.773,-2.7954,-2.8178,-2.8316,-2.8292,-2.7785,-2.6962,-2.6122,-2.5244,-2.4263,-2.4199,-2.4199,-2.4161,-2.4044,-2.3845,-2.3703,-2.3747,-2.3825,-2.4077,-2.4993,-2.5511,-2.5817,-2.5713,-2.6127,-2.7963,-2.897,-2.856,-2.8317,-2.8189,-2.7988,-2.8451,-2.8427,-2.7514,-2.6729,-2.5721,-2.5422,-2.5259,-2.5002,-2.4744,-2.4475,-2.4408,-2.4769,-2.4611,-2.3655,-2.3077,-2.2585,-2.1809,-2.1165,-4.5103,-4.5171,-4.6031,-4.6018,-4.5742,-4.6532,-4.6895,-4.6105,-4.6287,-4.6637,-4.7278,-4.7656,-4.8405,-4.9092,-4.9469,-4.9733,-5.0365,-4.925,-4.8491,-4.7847,-4.6674,-4.5236,-4.4275,-4.4112,-4.3702,-4.2902,-4.1699,-4.1229,-4.103,-4.0591,-3.9782,-3.9154,-3.9478,-3.8982,-3.7915,-3.7639,-3.7254,-3.6743,-3.6285,-3.5738,-3.5316,-3.478,-3.4247,-3.377,-3.3697,-3.2761,-3.1229,-3.0531,-3.0056,-2.8555,-2.7986,-2.7745,-2.7716,-2.7716,-2.7716,-2.7716,-2.7716,-2.7716,-2.7716,-2.773,-2.773,-2.7745,-2.7745,-2.7716,-2.7789,-2.7745,-2.7716,-2.7716,-2.794,-2.8091,-2.8268,-2.7934,-2.7659,-2.7126,-2.5652,-2.4599,-2.4178,-2.417,-2.4199,-2.419,-2.3968,-2.3757,-2.3832,-2.4,-2.4343,-2.4511,-2.5302,-2.5678,-2.6255,-2.6652,-2.7224,-2.8396,-2.8912,-2.8935,-2.882,-2.879,-2.8555,-2.8547,-2.8633,-2.8142,-2.7658,-2.6886,-2.6376,-2.6045,-2.5845,-2.5613,-2.5332,-2.5494,-2.5817,-2.5524,-2.4676,-2.4447,-2.4179,-2.3193,-2.2414,-4.5103,-4.5122,-4.5157,-4.5558,-4.6202,-4.7206,-4.7607,-4.7442,-4.749,-4.7751,-4.8471,-4.8111,-4.8335,-4.9157,-4.9663,-4.9929,-4.9703,-4.9613,-4.9442,-4.7873,-4.7098,-4.6004,-4.5163,-4.5017,-4.481,-4.4174,-4.3359,-4.2739,-4.2319,-4.146,-4.0628,-3.984,-3.9772,-3.9423,-3.8597,-3.8358,-3.8395,-3.8138,-3.7866,-3.7019,-3.6046,-3.5661,-3.4945,-3.3972,-3.3752,-3.3017,-3.1783,-3.1034,-3.0256,-2.9204,-2.8232,-2.7716,-2.7716,-2.7716,-2.7716,-2.7716,-2.7716,-2.7716,-2.7716,-2.7716,-2.7716,-2.7716,-2.7716,-2.7716,-2.7716,-2.7716,-2.7716,-2.7716,-2.7777,-2.7922,-2.8101,-2.8335,-2.8008,-2.7381,-2.6489,-2.519,-2.4089,-2.3971,-2.4122,-2.4362,-2.418,-2.414,-2.4607,-2.4353,-2.4635,-2.505,-2.5447,-2.5811,-2.6493,-2.7276,-2.7896,-2.8569,-2.8543,-2.8531,-2.8607,-2.8576,-2.8495,-2.8456,-2.8563,-2.8626,-2.8158,-2.7952,-2.7404,-2.7014,-2.672,-2.6505,-2.6339,-2.6189,-2.6417,-2.6026,-2.5643,-2.508,-2.4515,-2.3942,-2.3269,-4.5174,-4.4865,-4.5224,-4.5458,-4.5782,-4.6776,-4.7106,-4.6858,-4.6905,-4.7578,-4.8354,-4.7909,-4.8384,-4.951,-4.9534,-4.9408,-4.9465,-4.9231,-4.8726,-4.7674,-4.6974,-4.629,-4.6027,-4.5959,-4.59,-4.4988,-4.3907,-4.3297,-4.276,-4.2254,-4.1443,-4.054,-4.0451,-4.0065,-3.9258,-3.8909,-3.8689,-3.8524,-3.8285,-3.7496,-3.6468,-3.5844,-3.5169,-3.3935,-3.3408,-3.2666,-3.1405,-3.0624,-2.9669,-2.8711,-2.8017,-2.7716,-2.7716,-2.7716,-2.7716,-2.7716,-2.7716,-2.7716,-2.7716,-2.7716,-2.7716,-2.7716,-2.7716,-2.7716,-2.7716,-2.7716,-2.7716,-2.7716,-2.7716,-2.7792,-2.7908,-2.8073,-2.7939,-2.7328,-2.6925,-2.579,-2.4129,-2.3696,-2.4685,-2.5418,-2.5263,-2.4915,-2.4821,-2.4917,-2.5313,-2.5891,-2.6363,-2.6673,-2.6617,-2.7329,-2.7695,-2.8105,-2.8063,-2.8073,-2.821,-2.8233,-2.8242,-2.8299,-2.8461,-2.8543,-2.8399,-2.8393,-2.8377,-2.7979,-2.756,-2.7641,-2.7493,-2.7302,-2.7024,-2.6804,-2.6348,-2.5454,-2.4561,-2.378,-2.309,-4.526,-4.4607,-4.5442,-4.5388,-4.5066,-4.6027,-4.6122,-4.5466,-4.5592,-4.6714,-4.7567,-4.7574,-4.839,-4.9562,-4.9202,-4.9337,-4.9423,-4.8483,-4.7719,-4.7567,-4.7022,-4.6515,-4.6468,-4.6864,-4.6752,-4.511,-4.4366,-4.3722,-4.314,-4.2773,-4.2274,-4.1456,-4.126,-4.0708,-3.99,-3.9276,-3.8872,-3.867,-3.8193,-3.7349,-3.6431,-3.5679,-3.4931,-3.3862,-3.325,-3.2247,-3.1109,-3.0194,-2.9194,-2.7848,-2.7716,-2.7716,-2.7716,-2.7716,-2.7716,-2.7716,-2.7716,-2.7716,-2.7716,-2.7716,-2.7716,-2.7716,-2.7716,-2.7716,-2.7716,-2.7716,-2.7716,-2.773,-2.7745,-2.7774,-2.7716,-2.7832,-2.7443,-2.6923,-2.6993,-2.6109,-2.4651,-2.3966,-2.5817,-2.6972,-2.6222,-2.5415,-2.5575,-2.5768,-2.6237,-2.6653,-2.7096,-2.7371,-2.7244,-2.7197,-2.7494,-2.7554,-2.7474,-2.7565,-2.7681,-2.8,-2.7996,-2.8097,-2.8277,-2.8427,-2.851,-2.8518,-2.8507,-2.8626,-2.8433,-2.8375,-2.8301,-2.8104,-2.7867,-2.7666,-2.6838,-2.5743,-2.4667,-2.3626,-2.2968,-4.5324,-4.4751,-4.4737,-4.474,-4.4915,-4.5748,-4.578,-4.5453,-4.5848,-4.6776,-4.7649,-4.7498,-4.8272,-4.9413,-4.974,-4.9803,-4.9619,-4.8378,-4.7566,-4.7547,-4.725,-4.6953,-4.67,-4.7821,-4.7731,-4.6741,-4.5758,-4.4841,-4.3915,-4.3622,-4.298,-4.2283,-4.2047,-4.1368,-4.0377,-3.9714,-3.9294,-3.8891,-3.8487,-3.7716,-3.6541,-3.5844,-3.5128,-3.3903,-3.3346,-3.2391,-3.1135,-3.0406,-2.9494,-2.7921,-2.7733,-2.7716,-2.7716,-2.7716,-2.7716,-2.7716,-2.7716,-2.7716,-2.7716,-2.7716,-2.7716,-2.7716,-2.7716,-2.7716,-2.7716,-2.7716,-2.7716,-2.7745,-2.7832,-2.7922,-2.773,-2.7716,-2.7577,-2.7245,-2.7006,-2.6874,-2.6368,-2.6532,-2.6706,-2.7169,-2.6428,-2.5958,-2.6254,-2.6406,-2.6513,-2.6703,-2.6938,-2.7214,-2.7228,-2.7053,-2.6989,-2.6956,-2.6841,-2.6988,-2.7164,-2.758,-2.7815,-2.7876,-2.8049,-2.8313,-2.8411,-2.8463,-2.8528,-2.8632,-2.8662,-2.8533,-2.8538,-2.863,-2.8034,-2.7356,-2.6611,-2.5879,-2.4587,-2.3369,-2.2946,-4.5133,-4.4651,-4.4524,-4.4551,-4.4716,-4.5154,-4.5267,-4.5118,-4.5502,-4.6435,-4.7296,-4.7498,-4.8223,-4.9438,-4.9682,-4.9711,-4.9344,-4.8072,-4.7373,-4.7297,-4.724,-4.7114,-4.6908,-4.8483,-4.84,-4.7728,-4.7105,-4.6064,-4.4547,-4.3882,-4.3503,-4.2979,-4.2543,-4.1864,-4.1075,-4.0302,-3.979,-3.9276,-3.8854,-3.7936,-3.634,-3.5624,-3.4504,-3.3973,-3.3204,-3.2371,-3.1506,-3.0169,-2.9381,-2.8463,-2.7944,-2.7768,-2.7716,-2.7716,-2.7716,-2.7716,-2.7716,-2.7716,-2.7716,-2.7716,-2.7716,-2.7716,-2.7716,-2.7716,-2.7716,-2.7716,-2.7716,-2.773,-2.776,-2.7806,-2.7615,-2.7569,-2.743,-2.7324,-2.7117,-2.7037,-2.7211,-2.7792,-2.7489,-2.6916,-2.6552,-2.6533,-2.6996,-2.7009,-2.6807,-2.6818,-2.6873,-2.7006,-2.7133,-2.7037,-2.6841,-2.6758,-2.6725,-2.6857,-2.7068,-2.7413,-2.776,-2.7821,-2.7954,-2.8191,-2.8304,-2.8384,-2.8523,-2.8669,-2.865,-2.8528,-2.8605,-2.8582,-2.7815,-2.7023,-2.6304,-2.5468,-2.4181,-2.3206,-2.2779,-4.5058,-4.474,-4.4576,-4.4594,-4.4749,-4.4729,-4.489,-4.5048,-4.5192,-4.6251,-4.7631,-4.7678,-4.8343,-4.9376,-4.9597,-4.9487,-4.9321,-4.7777,-4.7126,-4.7109,-4.7051,-4.7003,-4.756,-4.8554,-4.9175,-4.8487,-4.7984,-4.7239,-4.5558,-4.466,-4.4115,-4.3731,-4.309,-4.2506,-4.2011,-4.0873,-4.0267,-3.968,-3.9093,-3.7918,-3.6505,-3.4981,-3.4045,-3.3931,-3.303,-3.2336,-3.1729,-3.0614,-2.9571,-2.8888,-2.8333,-2.7912,-2.7751,-2.7716,-2.7716,-2.7716,-2.7716,-2.7716,-2.7716,-2.7716,-2.7716,-2.7716,-2.7716,-2.7716,-2.7716,-2.7716,-2.7716,-2.7701,-2.7674,-2.7644,-2.7526,-2.7308,-2.7277,-2.7308,-2.7117,-2.7021,-2.7432,-2.7751,-2.7733,-2.7291,-2.693,-2.6985,-2.7317,-2.7332,-2.7075,-2.6886,-2.6941,-2.6842,-2.6972,-2.7069,-2.694,-2.6775,-2.6741,-2.6873,-2.71,-2.74,-2.7701,-2.789,-2.8049,-2.8304,-2.8318,-2.8318,-2.8471,-2.8594,-2.8432,-2.8345,-2.8458,-2.8399,-2.7666,-2.6889,-2.6077,-2.4949,-2.3536,-2.2855,-2.2544,-4.5503,-4.5491,-4.4782,-4.4909,-4.5359,-4.4824,-4.5079,-4.574,-4.5639,-4.6684,-4.827,-4.8168,-4.8536,-4.9348,-4.9521,-4.9509,-4.9002,-4.7856,-4.7066,-4.7151,-4.7066,-4.708,-4.7452,-4.881,-4.9427,-4.908,-4.8493,-4.7466,-4.6529,-4.6013,-4.534,-4.4751,-4.4281,-4.3754,-4.2433,-4.135,-4.0618,-3.9918,-3.9111,-3.8193,-3.7144,-3.5591,-3.4894,-3.4398,-3.3626,-3.2658,-3.2068,-3.1162,-3.04,-2.9156,-2.8895,-2.8421,-2.7859,-2.7716,-2.7716,-2.7716,-2.7716,-2.7716,-2.7716,-2.7716,-2.7716,-2.7716,-2.7716,-2.7716,-2.7716,-2.7716,-2.7716,-2.7683,-2.7615,-2.7509,-2.7434,-2.72,-2.7217,-2.7294,-2.7324,-2.734,-2.7617,-2.7868,-2.7806,-2.7476,-2.7068,-2.7213,-2.747,-2.7413,-2.734,-2.7136,-2.6958,-2.6842,-2.6808,-2.6907,-2.6956,-2.6775,-2.6758,-2.6891,-2.718,-2.7476,-2.7716,-2.7929,-2.816,-2.8358,-2.8345,-2.8327,-2.8358,-2.8393,-2.8277,-2.8313,-2.8525,-2.8261,-2.7556,-2.6647,-2.5666,-2.4278,-2.277,-2.2406,-2.2324,-4.4969,-4.4984,-4.4632,-4.4688,-4.5021,-4.5115,-4.5416,-4.5754,-4.5773,-4.6675,-4.7974,-4.7747,-4.8232,-4.9283,-4.9509,-4.9509,-4.9133,-4.7763,-4.7041,-4.7104,-4.707,-4.7051,-4.7547,-4.8867,-4.9764,-4.9472,-4.9299,-4.9043,-4.8056,-4.6878,-4.5933,-4.5186,-4.4898,-4.4226,-4.2945,-4.1735,-4.1056,-4.0212,-3.9001,-3.7661,-3.6725,-3.5683,-3.4747,-3.4213,-3.3535,-3.2946,-3.2418,-3.2042,-3.1369,-3.0299,-2.9895,-2.9193,-2.8614,-2.8351,-2.8245,-2.7716,-2.7716,-2.7716,-2.7716,-2.7733,-2.7716,-2.7716,-2.7716,-2.7716,-2.7716,-2.7701,-2.7701,-2.7701,-2.7585,-2.7463,-2.734,-2.712,-2.7152,-2.723,-2.7386,-2.7677,-2.7795,-2.7954,-2.7982,-2.76,-2.7246,-2.7308,-2.7353,-2.7355,-2.7214,-2.7006,-2.6892,-2.6825,-2.6758,-2.6758,-2.6775,-2.6725,-2.6775,-2.6891,-2.7244,-2.7567,-2.7821,-2.8049,-2.8228,-2.8398,-2.8367,-2.838,-2.8393,-2.8458,-2.8484,-2.8538,-2.8639,-2.8026,-2.723,-2.6203,-2.5181,-2.3902,-2.2723,-2.247,-2.2391,-4.4473,-4.4482,-4.4482,-4.4726,-4.5153,-4.5566,-4.5979,-4.635,-4.6129,-4.6861,-4.7725,-4.7669,-4.8194,-4.9227,-4.9509,-4.949,-4.9377,-4.7763,-4.7143,-4.6993,-4.6993,-4.6993,-4.7588,-4.8857,-4.9769,-4.949,-4.9636,-4.9527,-4.9017,-4.8093,-4.6894,-4.5679,-4.5537,-4.4809,-4.3659,-4.2341,-4.1295,-4.0451,-3.8854,-3.7606,-3.6725,-3.5866,-3.4902,-3.4152,-3.3528,-3.3157,-3.2832,-3.2506,-3.1966,-3.1159,-3.065,-3.0001,-2.9351,-2.9176,-2.9018,-2.8631,-2.8561,-2.8526,-2.8315,-2.8105,-2.7804,-2.7716,-2.7716,-2.7716,-2.7686,-2.7657,-2.7627,-2.7627,-2.745,-2.7341,-2.723,-2.7071,-2.7135,-2.7197,-2.7307,-2.7704,-2.8042,-2.8112,-2.7864,-2.7258,-2.7022,-2.7087,-2.7135,-2.7198,-2.7086,-2.6875,-2.6792,-2.6775,-2.6725,-2.6708,-2.6775,-2.6791,-2.6842,-2.7021,-2.7444,-2.7745,-2.7965,-2.8164,-2.834,-2.8424,-2.8406,-2.8419,-2.8445,-2.8523,-2.8612,-2.8518,-2.8461,-2.7664,-2.6856,-2.5933,-2.4988,-2.3885,-2.2986,-2.2675,-2.2432,-4.4387,-4.4482,-4.4482,-4.5345,-4.6655,-4.6017,-4.658,-4.7706,-4.7143,-4.7312,-4.8007,-4.8157,-4.8532,-4.9302,-4.9509,-4.9509,-4.9415,-4.7763,-4.7237,-4.7068,-4.7012,-4.7068,-4.769,-4.866,-4.9597,-4.9505,-4.9653,-4.9623,-4.9468,-4.9181,-4.8319,-4.7568,-4.6416,-4.5545,-4.4247,-4.2652,-4.1222,-4.0286,-3.8927,-3.812,-3.7309,-3.6505,-3.5691,-3.4804,-3.3909,-3.3235,-3.3091,-3.2784,-3.2318,-3.1528,-3.1265,-3.0791,-3.0176,-3.0018,-2.9843,-2.9597,-2.9544,-2.9527,-2.9369,-2.8631,-2.7912,-2.7768,-2.7733,-2.7839,-2.8122,-2.7487,-2.7371,-2.7548,-2.7445,-2.728,-2.7184,-2.7085,-2.7181,-2.7244,-2.7353,-2.7615,-2.7925,-2.814,-2.7821,-2.7036,-2.6858,-2.7054,-2.72,-2.7326,-2.7214,-2.7022,-2.6858,-2.6825,-2.6741,-2.6725,-2.6874,-2.6923,-2.6957,-2.7214,-2.7695,-2.7957,-2.8083,-2.8295,-2.8497,-2.8502,-2.8463,-2.8471,-2.8497,-2.8497,-2.8549,-2.8419,-2.8147,-2.7366,-2.6593,-2.5765,-2.4808,-2.3672,-2.293,-2.2556,-2.2391,-4.4373,-4.4501,-4.4482,-4.5139,-4.6204,-4.6411,-4.7143,-4.7932,-4.7368,-4.7143,-4.75,-4.7988,-4.8683,-4.9302,-4.9509,-4.9509,-4.9265,-4.7763,-4.7462,-4.7406,-4.7331,-4.7331,-4.7999,-4.8807,-4.9638,-4.9567,-4.9612,-4.9612,-4.9505,-4.949,-4.9252,-4.8366,-4.707,-4.5532,-4.4142,-4.2612,-4.1093,-4.0084,-3.9129,-3.8322,-3.7529,-3.6729,-3.5989,-3.5294,-3.474,-3.4239,-3.4055,-3.3582,-3.309,-3.2634,-3.216,-3.1528,-3.1001,-3.0878,-3.0703,-3.0387,-3.0318,-3.0301,-3.0213,-2.9579,-2.9211,-2.893,-2.8438,-2.8102,-2.8757,-2.8058,-2.7754,-2.7736,-2.7582,-2.736,-2.731,-2.7277,-2.7308,-2.7338,-2.743,-2.763,-2.7868,-2.8126,-2.8011,-2.7353,-2.7213,-2.7277,-2.7404,-2.7529,-2.7373,-2.7182,-2.7005,-2.6858,-2.6758,-2.6708,-2.6825,-2.6957,-2.6974,-2.7215,-2.7686,-2.7926,-2.8161,-2.8409,-2.8625,-2.8587,-2.8536,-2.8536,-2.8562,-2.8536,-2.8474,-2.8381,-2.7965,-2.7142,-2.6396,-2.5737,-2.466,-2.3425,-2.2868,-2.246,-2.2366,-4.427,-4.443,-4.4426,-4.5092,-4.611,-4.6749,-4.7462,-4.7969,-4.735,-4.6993,-4.703,-4.765,-4.8495,-4.9227,-4.9509,-4.9246,-4.8776,-4.7763,-4.7519,-4.7387,-4.7312,-4.7563,-4.8332,-4.9091,-4.9638,-4.9593,-4.9608,-4.9612,-4.949,-4.9509,-4.9146,-4.8437,-4.738,-4.5846,-4.4524,-4.2276,-4.0818,-4.0194,-3.9203,-3.8322,-3.7511,-3.6986,-3.6251,-3.574,-3.5263,-3.4982,-3.4606,-3.4093,-3.367,-3.3301,-3.2915,-3.2353,-3.2019,-3.1826,-3.1756,-3.137,-3.1089,-3.1072,-3.1001,-3.0404,-3.0176,-2.9722,-2.9193,-2.9228,-2.9376,-2.8816,-2.8643,-2.8319,-2.7917,-2.7481,-2.7496,-2.7494,-2.7657,-2.7745,-2.7478,-2.7617,-2.794,-2.8182,-2.8042,-2.7733,-2.7733,-2.776,-2.7569,-2.7677,-2.7587,-2.7324,-2.6956,-2.6825,-2.6741,-2.6708,-2.6725,-2.6842,-2.6925,-2.723,-2.7585,-2.7929,-2.8273,-2.8474,-2.8662,-2.8687,-2.8662,-2.8637,-2.8587,-2.8554,-2.8469,-2.8386,-2.7747,-2.6814,-2.6277,-2.5824,-2.4519,-2.3074,-2.2846,-2.2487,-2.2366,-4.4026,-4.4285,-4.4314,-4.5319,-4.673,-4.6955,-4.7406,-4.7932,-4.7331,-4.6922,-4.6918,-4.7143,-4.795,-4.9058,-4.9189,-4.8889,-4.8138,-4.7331,-4.7087,-4.7237,-4.7181,-4.7631,-4.8461,-4.9229,-4.9648,-4.9726,-4.9682,-4.9597,-4.9509,-4.9509,-4.908,-4.819,-4.7137,-4.6164,-4.5723,-4.2791,-4.1203,-4.0855,-3.9494,-3.8505,-3.7771,-3.7441,-3.6781,-3.6293,-3.5887,-3.5614,-3.5296,-3.4639,-3.4231,-3.395,-3.3669,-3.3125,-3.2546,-3.3582,-3.3634,-3.3002,-3.3073,-3.3161,-3.3143,-3.1248,-3.0529,-3.0458,-3.0159,-3.0282,-3.0211,-2.9884,-2.9468,-2.9004,-2.8213,-2.7799,-2.7707,-2.776,-2.8003,-2.8045,-2.7806,-2.7736,-2.8067,-2.8196,-2.8071,-2.8039,-2.8273,-2.8367,-2.8021,-2.7806,-2.7763,-2.7491,-2.7021,-2.6791,-2.6741,-2.6691,-2.6691,-2.6792,-2.6925,-2.7277,-2.7627,-2.8059,-2.8383,-2.8582,-2.8712,-2.8761,-2.8737,-2.8687,-2.8643,-2.8554,-2.8433,-2.8288,-2.741,-2.6459,-2.5835,-2.5111,-2.3957,-2.2851,-2.2676,-2.2542,-2.2408,-4.4255,-4.443,-4.443,-4.5077,-4.6073,-4.6148,-4.6617,-4.7274,-4.7087,-4.6692,-4.6486,-4.7181,-4.7631,-4.8025,-4.8363,-4.8213,-4.7406,-4.658,-4.6411,-4.7669,-4.7312,-4.8116,-4.8971,-4.949,-4.9721,-4.9764,-4.9711,-4.9612,-4.9509,-4.949,-4.8983,-4.8108,-4.6746,-4.5522,-4.4517,-4.2749,-4.1859,-4.1146,-4.0089,-3.9111,-3.8355,-3.7863,-3.7457,-3.7097,-3.666,-3.6381,-3.6179,-3.5447,-3.4969,-3.4757,-3.4529,-3.388,-3.3371,-3.4231,-3.4038,-3.3319,-3.3108,-3.3248,-3.2915,-3.1879,-3.1703,-3.1581,-3.1493,-3.1458,-3.1598,-3.0764,-3.017,-2.9548,-2.8782,-2.8373,-2.8156,-2.8246,-2.8414,-2.8445,-2.8282,-2.8178,-2.8291,-2.8237,-2.815,-2.8214,-2.8388,-2.8513,-2.8327,-2.8468,-2.845,-2.8094,-2.7637,-2.704,-2.6842,-2.6741,-2.6708,-2.6792,-2.694,-2.7291,-2.7669,-2.8138,-2.8461,-2.8662,-2.8785,-2.8858,-2.8822,-2.8712,-2.8668,-2.858,-2.8391,-2.8113,-2.7073,-2.6047,-2.5138,-2.4212,-2.3367,-2.2842,-2.2703,-2.2569,-2.2432,-4.4255,-4.443,-4.443,-4.4754,-4.5289,-4.5566,-4.6054,-4.6448,-4.6298,-4.5941,-4.5979,-4.688,-4.7293,-4.7199,-4.7443,-4.7631,-4.6955,-4.6523,-4.6711,-4.8025,-4.7725,-4.8455,-4.9339,-4.9802,-4.9848,-4.9843,-4.9802,-4.9707,-4.9608,-4.9536,-4.8814,-4.762,-4.6327,-4.5298,-4.4199,-4.3169,-4.2347,-4.1709,-4.0929,-4.001,-3.9403,-3.8937,-3.8583,-3.8062,-3.7663,-3.7434,-3.6997,-3.6432,-3.5811,-3.5653,-3.5232,-3.4495,-3.4091,-3.3863,-3.3828,-3.3283,-3.3108,-3.3231,-3.2932,-3.2458,-3.2248,-3.2248,-3.2406,-3.2406,-3.2073,-3.0849,-3.0306,-2.9787,-2.9289,-2.8774,-2.8349,-2.8471,-2.8587,-2.86,-2.8587,-2.8458,-2.8536,-2.8497,-2.8484,-2.8531,-2.8616,-2.867,-2.8907,-2.9094,-2.9271,-2.8817,-2.8317,-2.7687,-2.7055,-2.6956,-2.6971,-2.7116,-2.7132,-2.7413,-2.7811,-2.8259,-2.8538,-2.8737,-2.8822,-2.8893,-2.8773,-2.8637,-2.8612,-2.8556,-2.8348,-2.7873,-2.6665,-2.5623,-2.4583,-2.3902,-2.3359,-2.2952,-2.2751,-2.2582,-2.2432,-4.4029,-4.4285,-4.4318,-4.4406,-4.4651,-4.5303,-4.566,-4.5679,-4.5059,-4.5115,-4.5641,-4.581,-4.6261,-4.6768,-4.6918,-4.6843,-4.6659,-4.6599,-4.7199,-4.7781,-4.7763,-4.8767,-4.94,-4.9749,-4.9832,-4.9897,-4.9749,-4.9394,-4.9651,-4.9333,-4.8438,-4.727,-4.6223,-4.5246,-4.4321,-4.3625,-4.2936,-4.2392,-4.1807,-4.0969,-4.0325,-4.0587,-3.9911,-3.9272,-3.8817,-3.8434,-3.7774,-3.6785,-3.6264,-3.596,-3.5674,-3.4794,-3.4196,-3.3863,-3.374,-3.3634,-3.3599,-3.3388,-3.3125,-3.2599,-3.2458,-3.2406,-3.2406,-3.2406,-3.1932,-3.0916,-3.0422,-2.9765,-2.913,-2.8682,-2.8291,-2.8458,-2.8619,-2.8662,-2.87,-2.8749,-2.8881,-2.8893,-2.8893,-2.896,-2.9076,-2.9296,-2.9877,-3.0124,-3.0139,-2.9714,-2.9158,-2.8365,-2.7787,-2.7319,-2.7426,-2.7725,-2.771,-2.7574,-2.7968,-2.8466,-2.8639,-2.8846,-2.881,-2.8834,-2.8682,-2.8587,-2.8549,-2.8461,-2.8314,-2.7644,-2.6531,-2.5241,-2.3934,-2.3393,-2.317,-2.294,-2.2685,-2.2528,-2.2377,-4.427,-4.4444,-4.4444,-4.4473,-4.4538,-4.4745,-4.5153,-4.5679,-4.6017,-4.5904,-4.4928,-4.6129,-4.6035,-4.5289,-4.5791,-4.5697,-4.5491,-4.5435,-4.6223,-4.6843,-4.75,-4.8589,-4.9202,-4.9416,-4.965,-4.9553,-4.9245,-4.8927,-4.9452,-4.9156,-4.8323,-4.7226,-4.6229,-4.5345,-4.4655,-4.4172,-4.3619,-4.3092,-4.2571,-4.195,-4.1431,-4.1546,-4.0923,-4.0475,-3.9832,-3.9404,-3.8681,-3.7596,-3.7184,-3.7238,-3.6781,-3.61,-3.5651,-3.5168,-3.4828,-3.4337,-3.3862,-3.3283,-3.2809,-3.2529,-3.2406,-3.2406,-3.2406,-3.2002,-3.1686,-3.1264,-3.0662,-3.0,-2.9195,-2.8717,-2.8708,-2.8895,-2.9082,-2.9211,-2.9162,-2.9028,-2.9133,-2.9115,-2.9152,-2.9519,-2.9647,-3.0296,-3.0874,-3.1094,-3.1034,-3.0645,-3.0062,-2.9228,-2.8459,-2.7986,-2.7865,-2.8192,-2.855,-2.8496,-2.8407,-2.8766,-2.8846,-2.8917,-2.9059,-2.9059,-2.8845,-2.8744,-2.8533,-2.8327,-2.8155,-2.7447,-2.6481,-2.516,-2.3871,-2.3365,-2.3102,-2.285,-2.2632,-2.2487,-2.2349,-4.4296,-4.4482,-4.4482,-4.467,-4.4965,-4.4984,-4.5284,-4.5716,-4.5941,-4.5345,-4.4688,-4.5514,-4.5439,-4.4763,-4.5059,-4.519,-4.5172,-4.5284,-4.5904,-4.6768,-4.6955,-4.7754,-4.8407,-4.8713,-4.9017,-4.8972,-4.8877,-4.8646,-4.9295,-4.8973,-4.8132,-4.7251,-4.6293,-4.5406,-4.4716,-4.4393,-4.4163,-4.3764,-4.3378,-4.2895,-4.2563,-4.2377,-4.2184,-4.1455,-4.0766,-4.0317,-3.9635,-3.8514,-3.8069,-3.8033,-3.7468,-3.7002,-3.6346,-3.5632,-3.5112,-3.4566,-3.3932,-3.3406,-3.2985,-3.2581,-3.2476,-3.2406,-3.2388,-3.1967,-3.1598,-3.1229,-3.0901,-3.0462,-2.9571,-2.8959,-2.9215,-2.9446,-2.9698,-2.9917,-2.9654,-2.9372,-2.9299,-2.9262,-2.9592,-3.0063,-3.0613,-3.128,-3.1706,-3.1939,-3.1991,-3.1717,-3.1138,-3.0272,-2.9339,-2.8523,-2.8438,-2.8626,-2.9174,-2.9547,-2.9372,-2.9234,-2.957,-2.9807,-3.0044,-2.9895,-2.9359,-2.8954,-2.8806,-2.8394,-2.7941,-2.7266,-2.6615,-2.526,-2.4066,-2.356,-2.303,-2.2712,-2.2528,-2.2419,-2.2338,-4.4132,-4.4468,-4.4426,-4.4721,-4.5435,-4.5247,-4.5266,-4.5435,-4.4745,-4.4444,-4.4501,-4.4538,-4.4613,-4.4519,-4.4651,-4.4984,-4.5078,-4.5266,-4.5641,-4.6843,-4.6711,-4.7222,-4.7749,-4.7567,-4.8277,-4.8493,-4.8283,-4.7839,-4.9297,-4.9288,-4.8535,-4.7407,-4.6611,-4.5768,-4.4942,-4.4576,-4.4374,-4.4271,-4.4073,-4.3772,-4.3529,-4.3571,-4.3565,-4.2236,-4.1623,-4.1167,-4.0173,-3.9208,-3.8316,-3.8132,-3.7753,-3.7326,-3.6737,-3.599,-3.5437,-3.478,-3.4286,-3.3705,-3.3248,-3.2757,-3.2476,-3.2406,-3.2388,-3.2072,-3.1756,-3.1563,-3.1344,-3.1008,-3.0225,-3.014,-3.0368,-3.0228,-3.0299,-3.0461,-3.0338,-2.9916,-2.9555,-3.0051,-3.1109,-3.1439,-3.1623,-3.2234,-3.2601,-3.2828,-3.2852,-3.2708,-3.2153,-3.123,-3.0674,-2.9698,-2.918,-2.9265,-2.9813,-3.0254,-2.997,-2.9953,-3.0474,-3.0766,-3.0766,-3.023,-2.9313,-2.9112,-2.9116,-2.8711,-2.8282,-2.758,-2.6777,-2.5474,-2.4349,-2.3578,-2.3068,-2.259,-2.2391,-2.2352,-2.2324,-4.3569,-4.4283,-4.3816,-4.3707,-4.3764,-4.3168,-4.3313,-4.3839,-4.3688,-4.3914,-4.4407,-4.4463,-4.4482,-4.4482,-4.4482,-4.4721,-4.4796,-4.5021,-4.5322,-4.5772,-4.6017,-4.673,-4.7707,-4.7027,-4.7685,-4.8003,-4.7637,-4.6953,-4.8316,-4.9008,-4.927,-4.8359,-4.741,-4.6377,-4.5255,-4.4871,-4.457,-4.4584,-4.4477,-4.4379,-4.4191,-4.4196,-4.4074,-4.3521,-4.3161,-4.2329,-4.1334,-4.0385,-3.9581,-3.9038,-3.8086,-3.7754,-3.7732,-3.7202,-3.6559,-3.5809,-3.5012,-3.4358,-3.3547,-3.2984,-3.265,-3.2458,-3.2388,-3.2318,-3.2177,-3.2055,-3.1835,-3.1477,-3.1344,-3.1442,-3.1382,-3.1141,-3.0985,-3.1064,-3.1127,-3.0558,-3.0014,-3.1219,-3.254,-3.2706,-3.2748,-3.3018,-3.3385,-3.3563,-3.3623,-3.3316,-3.2784,-3.2258,-3.2258,-3.1609,-3.0338,-3.0283,-3.0607,-3.0851,-3.0619,-3.0722,-3.1276,-3.0856,-3.0552,-2.9948,-2.9284,-2.9031,-2.8907,-2.8967,-2.8667,-2.805,-2.7175,-2.5833,-2.4754,-2.3853,-2.3179,-2.2754,-2.2445,-2.2324,-2.231,-4.2623,-4.3118,-4.2865,-4.2731,-4.2637,-4.2192,-4.2286,-4.2675,-4.2731,-4.2975,-4.3525,-4.4106,-4.4482,-4.4482,-4.4482,-4.4444,-4.4444,-4.4501,-4.4796,-4.5078,-4.5303,-4.5891,-4.6215,-4.634,-4.6572,-4.6915,-4.679,-4.6755,-4.7659,-4.8799,-4.9269,-4.8487,-4.766,-4.6853,-4.5653,-4.4971,-4.4694,-4.4776,-4.4685,-4.4613,-4.4587,-4.4551,-4.4496,-4.4271,-4.3726,-4.3031,-4.2522,-4.1539,-4.0658,-3.9705,-3.8679,-3.8138,-3.805,-3.7754,-3.7149,-3.6417,-3.5687,-3.5031,-3.4023,-3.3387,-3.3013,-3.2855,-3.2422,-3.237,-3.262,-3.2512,-3.2412,-3.2161,-3.2682,-3.2825,-3.2551,-3.229,-3.2344,-3.2441,-3.2522,-3.2302,-3.2118,-3.2632,-3.3275,-3.3348,-3.3366,-3.3403,-3.3687,-3.3784,-3.3839,-3.3878,-3.3337,-3.3136,-3.3209,-3.3128,-3.1953,-3.1317,-3.1624,-3.1764,-3.1695,-3.1823,-3.2117,-3.1482,-3.0491,-3.0216,-2.9856,-2.9106,-2.8675,-2.8834,-2.888,-2.8675,-2.7664,-2.6411,-2.5114,-2.4112,-2.347,-2.2914,-2.2649,-2.2482,-2.2499,-4.1436,-4.1511,-4.1745,-4.1929,-4.1967,-4.1854,-4.1929,-4.2042,-4.2155,-4.2042,-4.2192,-4.3769,-4.4369,-4.435,-4.4346,-4.4332,-4.4275,-4.4139,-4.4289,-4.4327,-4.4364,-4.5191,-4.5469,-4.5331,-4.5547,-4.5946,-4.6187,-4.6567,-4.7199,-4.8524,-4.9055,-4.8109,-4.7463,-4.6901,-4.5673,-4.4844,-4.4558,-4.4789,-4.4781,-4.4688,-4.4643,-4.4605,-4.4524,-4.4233,-4.3876,-4.3444,-4.3088,-4.2541,-4.1598,-4.0626,-3.9516,-3.8857,-3.8435,-3.8201,-3.7678,-3.7001,-3.6556,-3.5683,-3.4777,-3.4415,-3.3947,-3.3471,-3.2871,-3.2746,-3.3073,-3.358,-3.3498,-3.3122,-3.3628,-3.3738,-3.3463,-3.3316,-3.3408,-3.3476,-3.3568,-3.3642,-3.366,-3.3889,-3.4131,-3.4168,-3.4026,-3.4007,-3.391,-3.4007,-3.4097,-3.4148,-3.4092,-3.3952,-3.3805,-3.3613,-3.2981,-3.2549,-3.26,-3.2691,-3.2553,-3.254,-3.2627,-3.1825,-3.0931,-3.0759,-3.0331,-2.9357,-2.8785,-2.8791,-2.8803,-2.8736,-2.8281,-2.722,-2.591,-2.4638,-2.4007,-2.3541,-2.3345,-2.3139,-2.2919,-4.0164,-3.9853,-4.0671,-4.1366,-4.1817,-4.131,-4.1385,-4.2061,-4.2693,-4.2355,-4.1849,-4.3313,-4.4214,-4.352,-4.352,-4.3595,-4.3745,-4.3726,-4.3595,-4.352,-4.3839,-4.4667,-4.5142,-4.5,-4.4671,-4.4951,-4.5473,-4.6084,-4.6481,-4.8105,-4.8846,-4.7831,-4.7084,-4.6541,-4.5955,-4.5038,-4.4081,-4.4565,-4.4673,-4.4448,-4.4688,-4.4653,-4.4524,-4.4388,-4.435,-4.3857,-4.3444,-4.3163,-4.2517,-4.1673,-4.0659,-3.9737,-3.9245,-3.893,-3.8542,-3.8147,-3.7664,-3.6911,-3.6228,-3.5666,-3.5191,-3.4939,-3.4395,-3.3782,-3.4712,-3.6364,-3.5569,-3.374,-3.3933,-3.3995,-3.3797,-3.366,-3.3697,-3.3697,-3.3752,-3.3752,-3.377,-3.4739,-3.5555,-3.5251,-3.4911,-3.4624,-3.4181,-3.4325,-3.4513,-3.4519,-3.4432,-3.4284,-3.3991,-3.3913,-3.3847,-3.3732,-3.3556,-3.3134,-3.2781,-3.275,-3.2658,-3.1929,-3.1182,-3.0613,-3.0003,-2.9349,-2.894,-2.8905,-2.8863,-2.8815,-2.8239,-2.7699,-2.6839,-2.5645,-2.481,-2.4267,-2.4017,-2.3797,-2.356]},{"header":{"parameterUnit":"m.s-1","parameterCategory":1,"la1":31.0,"la2":29.5877,"lo1":-88.7671,"lo2":-86.6584,"dy":0.0162,"dx":0.0185,"nx":115,"ny":88,"refTime":"2024-04-14T18:00:00:Z","depth":0,"parameterNumber":3,"parameterNumberName":"V-component_of_WINDS"},"data":[0.0,0.0,0.0,0.0,0.0,0.0,0.0,0.0,0.0,0.0,0.0,0.0,0.0,0.0,0.0,0.0,0.0,0.0,0.0,0.0,0.0,0.0,0.0,0.0,0.0,0.0,0.0,0.0,0.0,0.0,0.0,0.0,0.0,0.0,0.0,0.0,0.0,0.0,0.0,0.0,0.0,0.0,0.0,0.0,0.0,0.0,0.0,0.0,0.0,0.0,0.0,0.0,0.0,0.0,0.0,0.0,0.0,0.0,0.0,0.0,0.0,0.0,0.0,0.0,0.0,0.0,0.0,0.0,0.0,0.0,0.0,0.0,0.0,0.0,0.0,0.0,0.0,0.0,0.0,0.0,0.0,0.0,0.0,0.0,0.0,0.0,0.0,0.0,0.0,0.0,0.0,0.0,0.0,0.0,0.0,0.0,0.0,0.0,0.0,0.0,0.0,0.0,0.0,0.0,0.0,0.0,0.0,0.0,0.0,0.0,0.0,0.0,0.0,0.0,0.0,0.0,0.0,0.0,0.0,0.0,0.0,0.0,0.0,0.0,0.0,0.0,0.0,0.0,0.0,0.0,0.0,0.0,0.0,0.0,0.0,0.0,0.0,0.0,0.0,0.0,0.0,0.0,0.0,0.0,0.0,0.0,0.0,0.0,0.0,0.0,0.0,0.0,0.0,0.0,0.0,0.0,0.0,0.0,0.0,0.0,0.0,0.0,0.0,0.0,0.0,0.0,0.0,0.0,0.0,0.0,0.0,0.0,0.0,0.0,0.0,0.0,0.0,0.0,0.0,0.0,0.0,0.0,0.0,0.0,0.0,0.0,0.0,0.0,0.0,0.0,0.0,0.0,0.0,0.0,0.0,0.0,0.0,0.0,0.0,0.0,0.0,0.0,0.0,0.0,0.0,0.0,0.0,0.0,0.0,0.0,0.0,0.0,0.0,0.0,0.0,0.0,0.0,0.0,0.0,0.0,0.0,0.0,0.0,0.0,0.0,0.0,0.0,0.0,0.0,0.0,0.0,0.0,0.0,0.0,0.0,0.0,0.0,0.0,0.0,0.0,0.0,0.0,0.0,0.0,0.0,0.0,0.0,0.0,0.0,0.0,0.0,0.0,0.0,0.0,0.0,0.0,0.0,0.0,0.0,0.0,0.0,0.0,0.0,0.0,0.0,0.0,0.0,0.0,0.0,0.0,0.0,0.0,0.0,0.0,0.0,0.0,0.0,0.0,0.0,0.0,0.0,0.0,0.0,0.0,0.0,0.0,0.0,0.0,0.0,0.0,0.0,0.0,0.0,0.0,0.0,0.0,0.0,0.0,0.0,0.0,0.0,0.0,0.0,0.0,0.0,0.0,0.0,0.0,0.0,0.0,0.0,0.0,0.0,0.0,0.0,0.0,0.0,0.0,0.0,0.0,0.0,0.0,0.0,0.0,0.0,0.0,0.0,0.0,0.0,0.0,0.0,0.0,0.0,0.0,0.0,0.0,0.0,0.0,0.0,0.0,0.0,0.0,0.0,0.0,0.0,0.0,0.0,0.0,0.0,0.0,0.0,0.0,0.0,0.0,0.0,0.0,0.0,0.0,0.0,0.0,0.0,0.0,0.0,0.0,0.0,0.0,0.0,0.0,0.0,0.0,0.0,0.0,0.0,0.0,0.0,0.0,0.0,0.0,0.0,0.0,0.0,0.0,0.0,0.0,0.0,0.0,0.0,0.0,0.0,0.0,0.0,0.0,0.0,0.0,0.0,0.0,0.0,0.0,0.0,0.0,0.0,0.0,0.0,0.0,0.0,0.0,0.0,0.0,0.0,0.0,0.0,0.0,0.0,0.0,0.0,0.0,0.0,0.0,0.0,0.0,0.0,0.0,0.0,0.0,0.0,0.0,0.0,0.0,0.0,0.0,0.0,0.0,0.0,0.0,0.0,0.0,0.0,0.0,0.0,0.0,0.0,0.0,0.0,0.0,0.0,0.0,0.0,0.0,0.0,0.0,0.0,0.0,0.0,0.0,0.0,0.0,0.0,0.0,0.0,0.0,0.0,0.0,0.0,0.0,0.0,0.0,0.0,0.0,0.0,0.0,0.0,0.0,0.0,0.0,0.0,0.0,0.0,0.0,0.0,0.0,0.0,0.0,0.0,0.0,0.0,0.0,0.0,0.0,0.0,0.0,0.0,0.0,0.0,0.0,0.0,0.0,0.0,0.0,0.0,0.0,0.0,0.0,0.0,0.0,0.0,0.0,0.0,0.0,0.0,0.0,0.0,0.0,0.0,0.0,0.0,0.0,0.0,0.0,0.0,0.0,0.0,0.0,0.0,0.0,0.0,0.0,0.0,0.0,0.0,0.0,0.0,0.0,0.0,0.0,0.0,0.0,0.0,0.0,0.0,0.0,0.0,0.0,0.0,0.0,0.0,0.0,0.0,0.0,0.0,0.0,0.0,0.0,0.0,0.0,0.0,0.0,0.0,0.0,0.0,0.0,0.0,0.0,0.0,0.0,0.0,0.0,0.0,0.0,0.0,0.0,0.0,0.0,0.0,0.0,0.0,0.0,0.0,0.0,0.0,0.0,0.0,0.0,0.0,0.0,0.0,0.0,0.0,0.0,0.0,0.0,0.0,0.0,0.0,0.0,0.0,0.0,0.0,0.0,0.0,0.0,0.0,0.0,0.0,0.0,0.0,0.0,0.0,0.0,0.0,0.0,0.0,0.0,0.0,0.0,0.0,0.0,0.0,0.0,0.0,0.0,0.0,0.0,0.0,0.0,0.0,0.0,0.0,0.0,0.0,0.0,0.0,0.0,0.0,0.0,0.0,0.0,0.0,0.0,0.0,0.0,0.0,0.0,0.0,0.0,0.0,0.0,0.0,0.0,0.0,0.0,0.0,0.0,0.0,0.0,0.0,0.0,0.0,0.0,0.0,0.0,0.0,0.0,0.0,0.0,0.0,0.0,0.0,0.0,0.0,0.0,0.0,0.0,0.0,0.0,0.0,0.0,0.0,0.0,0.0,0.0,0.0,0.0,0.0,0.0,0.0,0.0,0.0,0.0,0.0,0.0,0.0,0.0,0.0,0.0,0.0,0.0,0.0,0.0,0.0,0.0,0.0,0.0,0.0,0.0,0.0,0.0,0.0,0.0,0.0,0.0,0.0,0.0,0.0,0.0,0.0,0.0,0.0,0.0,0.0,0.0,0.0,0.0,0.0,0.0,0.0,0.0,0.0,0.0,0.0,0.0,0.0,0.0,0.0,0.0,0.0,0.0,0.0,0.0,0.0,0.0,0.0,0.0,0.0,0.0,0.0,0.0,0.0,0.0,0.0,0.0,0.0,0.0,0.0,0.0,0.0,0.0,0.0,0.0,0.0,0.0,0.0,0.0,0.0,0.0,0.0,0.0,0.0,0.0,0.0,0.0,0.0,0.0,0.0,0.0,0.0,0.0,0.0,0.0,0.0,0.0,0.0,0.0,0.0,0.0,0.0,0.0,0.0,0.0,0.0,0.0,0.0,0.0,0.0,0.0,0.0,0.0,0.0,0.0,0.0,0.0,0.0,0.0,0.0,0.0,0.0,0.0,0.0,0.0,0.0,0.0,0.0,0.0,0.0,0.0,0.0,0.0,0.0,0.0,0.0,0.0,0.0,0.0,0.0,0.0,0.0,0.0,0.0,0.0,0.0,0.0,0.0,0.0,0.0,0.0,0.0,0.0,0.0,0.0,0.0,0.0,0.0,0.0,0.0,0.0,0.0,0.0,0.0,0.0,0.0,0.0,0.0,0.0,0.0,0.0,0.0,0.0,0.0,0.0,0.0,0.0,0.0,0.0,0.0,0.0,0.0,0.0,0.0,0.0,0.0,0.0,0.0,0.0,0.0,0.0,0.0,0.0,0.0,0.0,0.0,0.0,0.0,0.0,0.0,0.0,0.0,0.0,0.0,0.0,0.0,0.0,0.0,0.0,0.0,0.0,0.0,0.0,0.0,0.0,0.0,0.0,0.0,0.0,0.0,0.0,0.0,0.0,0.0,0.0,0.0,0.0,0.0,0.0,0.0,0.0,0.0,0.0,0.0,0.0,0.0,0.0,0.0,0.0,0.0,0.0,0.0,0.0,0.0,0.0,0.0,0.0,0.0,0.0,0.0,0.0,0.0,0.0,0.0,0.0,0.0,0.0,0.0,0.0,0.0,0.0,0.0,0.0,0.0,0.0,0.0,0.0,0.0,0.0,0.0,0.0,0.0,0.0,0.0,0.0,0.0,0.0,0.0,0.0,0.0,0.0,0.0,0.0,0.7138,0.0,0.0,0.0,0.0,0.0,0.0,0.0,0.0,0.0,0.0,0.0,0.0,0.0,0.0,0.0,0.0,0.0,0.0,0.0,0.0,0.0,0.0,0.0,0.0,0.0,0.0,0.0,0.0,0.0,0.0,0.0,0.0,0.0,0.0,0.0,0.0,0.0,0.0,0.0,0.0,0.0,0.0,0.0,0.0,0.0,0.0,0.0,0.0,0.0,0.0,0.0,0.0,0.0,0.0,0.0,0.0,0.0,0.0,0.0,0.0,0.0,0.0,0.0,0.0,0.0,0.0,0.0,0.0,0.0,0.0,0.0,0.0,0.0,0.0,0.0,0.0,0.0,0.0,0.0,0.0,0.0,0.0,0.0,0.0,0.0,0.0,0.0,0.0,0.0,0.0,0.0,0.0,0.0,0.0,0.0,0.0,0.0,0.0,0.0,0.0,0.0,0.0,0.0,0.0,0.0,0.0,0.0,0.0,0.0,0.0,0.695,0.7349,0.7379,0.7325,0.7215,0.0,0.0,0.0,0.0,0.0,0.0,0.0,0.0,0.0,0.0,0.0,0.0,0.0,0.0,0.0,0.0,0.0,0.0,0.0,0.0,0.0,0.0,0.0,0.0,0.0,0.0,0.0,0.0,0.0,0.0,0.0,0.0,0.0,0.0,0.0,0.0,0.0,0.0,0.0,0.0,0.0,0.0,0.0,0.0,0.0,0.0,0.0,0.0,0.0,0.0,0.0,0.0,0.0,0.0,0.0,0.0,0.0,0.0,0.0,0.0,0.0,0.0,0.0,0.0,0.0,0.0,0.0,0.0,0.0,0.0,0.0,0.0,0.0,0.0,0.0,0.0,0.0,0.0,0.0,0.0,0.0,0.0,0.0,0.0,0.0,0.0,0.0,0.0,0.0,0.0,0.0,0.0,0.0,0.0,0.0,0.0,0.0,0.0,0.0,0.0,0.0,0.0,0.0,0.0,0.0,0.0,0.0,0.0,0.0,0.0,0.0,0.0,0.815,0.8073,0.8055,0.0,0.0,0.0,0.0,0.0,0.0,0.0,0.0,0.0,0.0,0.0,0.0,0.0,0.0,0.0,0.0,0.0,0.0,0.0,0.0,0.0,0.0,0.0,0.0,0.0,0.0,0.0,0.0,0.0,0.0,0.0,0.0,0.0,0.0,0.0,0.0,0.0,0.0,0.0,0.0,0.0,0.0,0.0,0.0,0.0,0.0,0.0,0.0,0.0,0.0,0.0,0.0,0.0,0.0,0.0,0.0,0.0,0.0,0.0,0.0,0.0,0.0,0.0,0.0,0.0,0.0,0.0,0.0,0.0,0.0,0.0,0.0,0.0,0.0,0.0,0.0,0.0,0.0,0.0,0.0,0.0,0.0,0.0,0.0,0.0,0.0,0.0,0.0,0.0,0.0,0.0,0.0,0.0,0.0,0.0,0.0,0.0,0.0,0.0,0.0,0.0,0.0,0.0,0.0,0.0,0.0,0.0,0.0,0.0,0.0,0.8486,1.0611,1.0706,0.0,1.0588,0.0,0.0,0.0,0.0,0.0,0.0,0.0,0.0,0.0,0.0,0.0,0.0,0.0,0.0,0.0,0.0,0.0,0.0,0.0,0.0,0.0,0.0,0.0,0.0,0.0,0.0,0.0,0.0,0.0,0.0,0.0,0.0,0.0,0.0,0.0,0.0,0.0,0.0,0.0,0.0,0.0,0.0,0.0,0.0,0.0,0.0,0.0,0.0,0.0,0.0,0.0,0.0,0.0,0.0,0.0,0.0,0.0,0.0,0.0,0.0,0.0,0.0,0.0,0.0,0.0,0.0,0.0,0.0,0.0,0.0,0.0,0.0,0.0,0.0,0.0,0.0,0.0,0.0,0.0,0.0,0.0,0.0,0.0,0.0,0.0,0.0,0.0,0.0,0.0,0.0,0.0,0.0,0.0,0.0,0.0,0.0,0.0,0.0,0.0,0.0,0.0,0.0,0.0,0.0,0.0,0.0,0.0,0.0,0.0,0.0,0.8903,1.1191,1.0994,1.0449,0.0,0.0,0.0,0.0,0.0,0.0,0.0,0.0,0.0,0.0,0.0,0.0,0.0,0.0,0.0,0.0,0.0,0.0,0.0,0.0,0.0,0.0,0.0,0.0,0.0,0.0,0.0,0.0,0.0,0.0,0.0,0.0,0.0,0.0,0.0,0.0,0.0,0.0,0.0,0.0,0.0,0.0,0.0,0.0,0.0,0.0,0.0,0.0,0.0,0.0,0.0,0.0,0.0,0.0,0.0,0.0,0.0,0.0,0.0,0.0,0.0,0.0,0.0,0.0,0.0,0.0,0.0,0.0,0.0,0.0,0.0,0.0,0.0,0.0,0.0,0.0,0.0,0.0,0.0,0.0,0.0,0.0,0.0,0.0,0.0,0.0,0.0,0.0,0.0,0.0,0.0,0.0,0.0,0.0,0.0,0.0,0.0,0.0,0.0,0.0,0.0,0.0,0.0,0.0,0.0,0.0,0.0,0.0,0.0,0.0,0.857,0.9513,1.1641,1.1037,1.0228,0.938,0.0,0.0,0.0,0.0,0.0,0.0,0.0,0.0,0.0,0.0,0.0,0.0,0.0,0.0,0.0,0.0,0.0,0.0,0.0,0.0,0.0,0.0,0.0,0.0,0.0,0.0,0.0,0.0,0.0,0.0,0.0,0.0,0.0,0.0,0.0,0.0,0.0,0.0,0.0,0.0,0.0,0.0,0.0,0.0,0.0,0.0,0.0,0.0,0.0,0.0,0.0,0.0,0.0,0.0,0.0,0.0,0.0,0.0,0.0,0.0,0.0,0.0,0.0,0.0,0.0,0.0,0.0,0.0,0.0,0.0,0.0,0.0,0.0,0.0,0.0,0.0,0.0,0.0,0.0,0.0,0.0,0.0,0.0,0.0,0.0,0.0,0.0,0.0,0.0,0.0,0.0,0.0,0.0,0.0,0.0,0.0,0.0,0.0,0.0,0.0,0.0,0.0,0.0,0.0,0.0,0.0,0.0,0.0,1.1449,1.02,1.0559,1.274,1.1294,1.0657,0.0,0.0,0.0,0.0,0.0,0.0,0.0,0.0,0.0,0.0,0.0,0.0,0.0,0.0,0.0,0.0,0.0,0.0,0.0,0.0,0.0,0.0,0.0,0.0,0.0,0.0,0.0,0.0,0.0,0.0,0.0,0.0,0.0,0.0,0.0,0.0,0.0,0.0,0.0,0.0,0.0,0.0,0.0,0.0,0.0,0.0,0.0,0.0,0.0,0.0,0.0,0.0,0.0,0.0,0.0,0.0,0.0,0.0,0.0,0.0,0.0,0.0,0.0,0.0,0.0,0.0,0.0,0.0,0.0,0.0,0.0,0.0,0.0,0.0,0.0,0.0,0.0,0.0,0.0,0.0,0.0,0.0,0.0,0.0,0.0,0.0,0.0,0.0,0.0,0.0,0.0,0.0,0.0,0.0,0.0,0.0,0.0,0.0,0.0,0.0,0.0,0.0,0.0,0.0,0.0,0.0,0.0,0.0,0.0,0.9437,1.0465,1.1037,1.108,1.1287,1.1011,0.0,0.0,0.0,0.0,0.0,0.0,0.0,0.0,0.0,0.0,0.0,0.0,0.0,0.0,0.0,0.0,0.0,0.0,0.0,0.0,0.0,0.0,0.0,0.0,0.0,0.0,0.0,0.0,0.0,0.0,0.0,0.0,0.0,0.0,0.0,0.0,0.0,0.0,0.0,0.0,0.0,0.0,0.0,0.0,0.0,0.0,0.0,0.0,0.0,0.0,0.0,0.0,0.0,0.0,0.0,0.0,0.0,0.0,0.0,0.0,0.0,0.0,0.0,0.0,0.0,0.0,0.0,0.0,0.0,0.0,0.0,0.0,0.0,0.0,0.0,0.0,0.0,0.0,0.0,0.0,0.0,0.0,0.0,0.0,0.0,0.0,0.0,0.0,0.0,0.0,0.0,0.0,0.0,0.0,0.0,0.0,0.0,0.0,0.0,0.0,0.0,0.0,0.0,0.0,0.0,0.0,0.0,0.0,0.0,0.8563,0.0,1.0861,1.0166,1.0873,1.0635,0.0,0.0,0.0,0.0,0.0,0.0,0.0,0.0,0.0,0.0,0.0,0.0,0.0,0.0,0.0,0.0,0.0,0.0,0.0,0.0,0.0,0.0,0.0,0.0,0.0,0.0,0.0,0.0,0.0,0.0,0.0,0.0,0.0,0.0,0.0,0.0,0.0,0.0,0.0,0.0,0.0,0.0,0.0,0.0,0.0,0.0,0.0,0.0,0.0,0.0,0.0,0.0,0.0,0.0,0.0,0.0,0.0,0.0,0.0,0.0,0.0,0.0,0.0,0.0,0.0,0.0,0.0,0.0,0.0,0.0,0.0,0.0,0.0,0.0,0.0,0.0,0.0,0.0,0.0,0.0,0.0,0.0,0.0,0.0,0.0,0.0,0.0,0.0,0.0,0.0,0.0,0.0,0.0,0.0,0.0,0.0,0.0,0.0,0.0,0.0,0.0,0.0,0.0,0.0,0.0,0.0,0.0,0.0,0.7529,0.9354,0.9663,0.996,1.0268,1.0056,0.9516,0.0,0.0,0.0,0.0,0.0,0.0,0.0,0.0,0.0,0.0,0.0,0.0,0.0,0.0,0.0,0.0,0.0,0.0,0.0,0.0,0.0,0.0,0.0,0.0,0.0,0.0,0.0,0.0,0.0,0.0,0.0,0.0,0.0,0.0,0.0,0.0,0.0,0.0,0.0,0.0,0.0,0.0,0.0,0.0,0.0,0.0,0.0,0.0,0.0,0.0,0.0,0.0,0.0,0.0,0.0,0.0,0.0,0.0,0.0,0.0,0.0,0.0,0.0,0.0,0.0,0.0,0.0,0.0,0.0,0.0,0.0,0.0,0.0,0.0,0.0,0.0,0.0,0.0,0.0,0.0,0.0,0.0,0.0,0.0,0.0,0.0,0.0,0.0,0.0,0.0,0.0,0.0,0.0,0.0,0.0,0.0,0.0,0.0,0.0,0.0,0.0,0.0,0.0,0.0,0.0,0.0,0.0,0.0,0.0,0.828,0.8476,0.9143,1.034,0.9447,0.9193,0.0,0.0,0.0,0.0,0.0,0.0,0.0,0.0,0.0,0.0,0.0,0.0,0.0,0.0,0.0,0.0,0.0,0.0,0.0,0.0,0.0,0.0,0.0,0.0,0.0,0.0,0.0,0.0,0.0,0.0,0.0,0.0,0.0,0.0,0.0,0.0,0.0,0.0,0.0,0.0,0.0,0.0,0.0,0.0,0.0,0.0,0.0,0.0,0.0,0.0,0.0,0.0,0.0,0.0,0.0,0.0,0.0,0.0,0.0,0.0,0.0,0.0,0.0,0.0,0.0,0.0,0.0,0.0,0.0,0.0,0.0,0.0,0.0,0.0,0.0,0.0,0.0,0.0,0.0,0.0,0.0,0.0,0.0,0.0,0.0,0.0,0.0,0.0,0.0,0.0,0.0,0.0,0.0,0.0,0.0,0.0,0.0,0.0,0.0,0.0,0.0,0.0,0.0,0.0,0.0,0.0,0.0,0.0,0.0,0.7398,0.7813,0.8662,1.0054,0.9342,0.9124,0.9465,0.0,0.0,0.0,0.0,0.0,0.0,0.0,0.0,0.0,0.0,0.0,0.0,0.0,0.0,0.0,0.0,0.0,0.0,0.0,0.0,0.0,0.0,0.0,0.0,0.0,0.0,0.0,0.0,0.0,0.0,0.0,0.0,0.0,0.0,0.0,0.0,0.0,0.0,0.0,0.0,0.0,0.0,0.0,0.0,0.0,0.0,0.0,0.0,0.0,0.0,0.0,0.0,0.0,0.0,0.0,0.0,0.0,0.0,0.0,0.0,0.0,0.0,0.0,0.0,0.0,0.0,0.0,0.0,0.0,0.0,0.0,0.0,0.0,0.0,0.0,0.0,0.0,0.0,0.0,0.0,0.0,0.0,0.0,0.0,0.0,0.0,0.0,0.0,0.0,0.0,0.0,0.0,0.0,0.0,0.0,0.0,0.0,0.0,0.0,0.0,0.0,0.0,0.0,0.0,0.0,0.0,0.0,0.0,0.6817,0.7622,0.8498,0.9437,0.9561,0.923,0.0,0.0,0.0,0.0,0.0,0.0,0.0,0.0,0.0,0.0,0.0,0.0,0.0,0.0,0.0,0.0,0.0,0.0,0.0,0.0,0.0,0.0,0.0,0.0,0.0,0.0,0.0,0.0,0.0,0.0,0.0,0.0,0.0,0.0,0.0,0.0,0.0,0.0,0.0,0.0,0.0,0.0,0.0,0.0,0.0,0.0,0.0,0.0,0.0,0.0,0.0,0.0,0.0,0.0,0.0,0.0,0.0,0.0,0.0,0.0,0.0,0.0,0.0,0.0,0.0,0.0,0.0,0.0,0.0,0.0,0.0,0.0,0.0,0.0,0.0,0.0,0.0,0.0,0.0,0.0,0.0,0.0,0.0,0.0,0.0,0.0,0.0,0.0,0.0,0.0,0.0,0.0,0.0,0.0,0.0,0.0,0.0,0.0,0.0,0.0,0.0,0.0,0.0,0.0,0.0,0.0,0.0,0.0,0.0,0.71,0.8017,0.8926,0.9798,0.9132,0.8895,0.0,0.0,0.0,0.0,0.0,0.0,0.0,0.0,0.0,0.0,0.0,0.0,0.0,0.0,0.0,0.0,0.0,0.0,0.0,0.0,0.0,0.0,0.0,0.0,0.0,0.0,0.0,0.0,0.0,0.0,0.0,0.0,0.0,0.0,0.0,0.0,0.0,0.0,0.0,0.0,0.0,0.0,0.0,0.0,0.0,0.0,0.0,0.0,0.0,0.0,0.0,0.0,0.0,0.0,0.0,0.0,0.0,0.0,0.0,0.0,0.0,0.0,0.0,0.0,0.0,0.0,0.0,0.0,0.0,0.0,0.0,0.0,0.0,0.0,0.0,0.0,0.0,0.0,0.0,0.0,0.0,0.0,0.0,0.0,0.0,0.0,0.0,0.0,0.0,0.0,0.0,0.0,0.0,0.0,0.0,0.0,0.0,0.0,0.0,0.0,0.0,0.0,0.0,0.0,0.0,0.0,0.0,0.0,0.6473,0.7073,0.8727,0.9845,1.035,1.0091,0.9662,0.0,0.0,0.0,0.0,0.0,0.0,0.0,0.0,0.0,0.0,0.0,0.0,0.0,0.0,0.0,0.0,0.0,0.0,0.0,0.0,0.0,0.0,0.0,0.0,0.0,0.0,0.0,0.0,0.0,0.0,0.0,0.0,0.0,0.0,0.0,0.0,0.0,0.0,0.0,0.0,0.0,0.0,0.0,0.0,0.0,0.0,0.0,0.0,0.0,0.0,0.0,0.0,0.0,0.0,0.0,0.0,0.0,0.0,0.0,0.0,0.0,0.0,0.0,0.0,0.0,0.0,0.0,0.0,0.0,0.0,0.0,0.0,0.0,0.0,0.0,0.0,0.0,0.0,0.0,0.0,0.0,0.0,0.0,0.0,0.0,0.0,0.0,0.0,0.0,0.0,0.0,0.0,0.0,0.0,0.0,0.0,0.0,0.0,0.0,0.0,0.0,0.0,0.0,0.0,0.0,0.0,0.0,0.0,0.6529,0.6852,0.9376,1.0723,1.079,1.1509,1.0891,0.0,0.0,0.0,0.0,0.0,0.0,0.0,0.0,0.0,0.0,0.0,0.0,0.0,0.0,0.0,0.0,0.0,0.0,0.0,0.0,0.0,0.0,0.0,0.0,0.0,0.0,0.0,0.0,0.0,0.0,0.0,0.0,0.0,0.0,0.0,0.0,0.0,0.0,0.0,0.0,0.0,0.0,0.0,0.0,0.0,0.0,0.0,0.0,0.0,0.0,0.0,0.0,0.0,0.0,0.0,0.0,0.0,0.0,0.0,0.0,0.0,0.0,0.0,0.0,0.0,0.0,0.0,0.0,0.0,0.0,0.0,0.0,0.0,0.0,0.0,0.0,0.0,0.0,0.0,0.0,0.0,0.0,0.0,0.0,0.0,0.0,0.0,0.0,0.0,0.0,0.0,0.0,0.0,0.0,0.0,0.0,0.0,0.0,0.0,0.0,0.0,0.0,0.0,0.0,0.0,0.0,0.0,0.0,0.6414,0.6476,0.8847,1.0026,0.9891,1.0794,1.0846,0.0,0.0,0.0,0.0,0.0,0.0,0.0,0.0,0.0,0.0,0.0,0.0,0.0,0.0,0.0,0.0,0.0,0.0,0.0,0.0,0.0,0.0,0.0,0.0,0.0,0.0,0.0,0.0,0.0,0.0,0.0,0.0,0.0,0.0,0.0,0.0,0.0,0.0,0.0,0.0,0.0,0.0,0.0,0.0,0.0,0.0,0.0,0.0,1.027,0.0,0.0,0.0,0.0,0.0,0.0,0.0,0.0,0.0,0.0,0.0,0.0,0.0,0.0,0.0,0.0,0.0,0.0,0.0,0.0,0.0,0.0,0.0,0.0,0.0,0.0,0.0,0.0,0.0,0.0,0.0,0.0,0.0,0.0,0.0,0.0,0.0,0.0,0.0,0.0,0.0,0.0,0.0,0.0,0.0,0.0,0.0,0.0,0.0,0.0,0.0,0.0,0.0,0.0,0.0,0.0,0.0,0.0,0.0,0.6186,0.6809,0.8885,1.0198,1.061,1.0771,1.0611,0.0,0.0,0.0,0.0,0.0,0.0,0.0,0.0,0.0,0.0,0.0,0.0,0.0,0.0,0.0,0.0,0.0,0.0,0.0,0.0,0.0,0.0,0.0,0.0,0.0,0.0,0.0,0.0,0.0,0.0,0.0,0.0,0.0,0.0,0.0,0.0,0.0,0.0,0.0,0.0,0.0,0.0,0.0,0.0,0.0,0.0,0.0,0.0,0.0,0.0,0.0,0.0,0.0,0.0,0.0,0.0,0.0,0.0,0.0,0.0,0.0,0.0,0.0,0.0,0.0,0.0,0.0,0.0,0.0,0.0,0.0,0.0,0.0,0.0,0.0,0.0,0.0,0.0,0.0,0.0,0.0,0.0,0.0,0.0,0.0,0.0,0.0,0.0,0.0,0.0,0.0,0.0,0.0,0.0,0.0,0.0,0.0,0.0,0.0,0.0,0.0,0.0,0.0,0.0,0.0,0.0,0.0,0.5168,0.5944,0.7148,0.8986,1.0411,1.1336,1.0853,1.0371,0.9989,0.0,0.0,0.0,0.0,0.0,0.0,0.0,0.0,0.0,0.0,0.0,0.0,0.0,0.0,0.0,0.0,0.0,0.0,0.0,0.0,0.0,0.0,0.0,0.0,0.0,0.0,0.0,0.0,0.0,0.0,0.0,0.0,0.0,0.0,0.0,0.0,0.0,0.0,0.7804,0.7905,0.0,0.0,0.0,0.0,0.0,0.0,0.0,0.0,1.0867,0.0,0.0,0.0,0.0,0.0,0.0,0.0,0.0,0.0,0.0,0.0,0.0,0.0,0.0,0.0,0.0,0.0,0.0,0.0,0.0,0.0,0.0,0.0,0.0,0.0,0.0,0.0,0.0,0.0,0.0,0.0,0.0,0.0,0.0,0.0,0.0,0.0,0.0,0.0,0.0,0.0,0.0,0.0,0.0,0.0,0.0,0.0,0.0,0.0,0.0,0.0,0.0,0.0,0.0,0.0,0.0,0.4542,0.5004,0.5616,0.6383,0.8263,0.9323,0.9467,1.0094,1.0359,1.0223,0.0,0.0,0.0,0.0,0.0,0.0,0.0,0.0,0.0,0.0,0.0,0.0,0.0,0.0,0.0,0.0,0.0,0.0,0.0,0.0,0.0,0.0,0.0,0.0,0.0,0.0,0.0,0.0,0.0,0.0,0.0,0.0,0.0,0.0,0.0,0.0,0.0,0.0,0.0,0.7182,0.7353,0.0,0.0,0.0,0.0,0.0,0.0,0.0,0.0,1.0326,0.0,0.0,0.0,0.0,0.0,0.0,0.0,0.0,0.0,0.0,0.0,0.0,0.0,0.0,0.0,0.0,0.0,0.0,0.0,0.0,0.0,0.0,0.0,0.0,0.0,0.0,0.0,0.0,0.0,0.0,0.0,0.0,0.0,0.0,0.0,0.0,0.0,0.0,0.0,0.0,0.0,0.0,0.0,0.0,0.0,0.0,0.0,0.0,0.0,0.0,0.0,0.0,0.0,0.0,0.0,0.4883,0.5004,0.5596,0.6704,0.7973,0.8851,0.9301,0.9318,0.9649,0.0,0.0,0.0,0.0,0.0,0.0,0.0,0.0,0.0,0.0,0.0,0.0,0.0,0.0,0.0,0.0,0.0,0.0,0.0,0.0,0.0,0.0,0.0,0.0,0.0,0.0,0.0,0.0,0.0,0.0,0.0,0.0,0.0,0.0,0.0,0.0,0.0,0.0,0.0,0.0,0.7115,0.7454,0.7555,0.0,0.0,0.0,0.0,0.0,0.0,1.0368,0.9906,0.0,0.0,0.0,0.0,0.0,0.0,0.0,0.0,0.0,0.0,0.0,0.0,0.0,0.0,0.0,0.0,0.0,0.0,0.0,0.0,0.0,0.0,0.0,0.0,0.0,0.0,0.0,0.0,0.0,0.0,0.0,0.0,0.0,0.0,0.0,0.0,0.0,0.0,0.0,0.0,0.0,0.0,0.0,0.0,0.0,0.0,0.0,0.0,0.0,0.0,0.0,0.0,0.0,0.0,0.0,0.5048,0.4995,0.5588,0.6875,0.7703,0.8518,0.9266,0.8629,0.8902,0.0,0.0,0.0,0.0,0.0,0.0,0.0,0.0,0.0,0.0,0.0,0.0,0.0,0.0,0.0,0.0,0.0,0.0,0.0,0.0,0.0,0.0,0.0,0.0,0.0,0.0,0.0,0.0,0.0,0.0,0.0,0.0,0.0,0.0,0.0,0.0,0.0,0.0,0.0,0.0,0.0,0.8049,0.754,0.8061,0.0,0.0,0.0,0.0,1.1433,1.0662,0.0,0.0,0.0,0.0,0.0,0.0,0.0,0.0,0.0,0.0,0.0,0.0,0.0,0.0,0.0,0.0,0.0,0.0,0.0,0.0,0.0,0.0,0.0,0.0,0.0,0.0,0.0,0.0,0.0,0.0,0.0,0.0,0.0,0.0,0.0,0.0,0.0,0.0,0.0,0.0,0.0,0.0,0.0,0.0,0.0,0.0,0.0,0.0,0.0,0.0,0.0,0.0,0.0,0.0,0.0,0.0,0.4337,0.4838,0.5367,0.5985,0.7254,0.8083,0.8357,0.8153,0.8665,0.0,0.0,0.0,0.0,0.0,0.0,0.0,0.0,0.0,0.0,0.0,0.0,0.0,0.0,0.0,0.0,0.0,0.0,0.0,0.0,0.0,0.0,0.0,0.0,0.0,0.0,0.0,0.0,0.0,0.0,0.0,0.0,0.0,0.0,0.0,0.0,0.0,0.0,0.0,0.0,0.0,0.9299,0.9663,0.8236,0.7627,0.0,0.0,1.541,1.2633,1.2244,0.0,0.0,0.0,0.0,0.0,0.0,0.0,0.0,0.0,0.0,0.0,0.0,0.0,0.0,0.0,0.0,0.0,0.0,0.0,0.0,0.0,0.0,0.0,0.0,0.0,0.0,0.0,0.0,0.0,0.0,0.0,0.0,0.0,0.0,0.0,0.0,0.0,0.0,0.0,0.0,0.0,0.0,0.0,0.0,0.0,0.0,0.0,0.0,0.0,0.0,0.0,0.0,0.0,0.0,0.0,0.4411,0.4628,0.5192,0.5677,0.6036,0.7106,0.7717,0.7808,0.7794,0.8485,0.0,0.0,0.0,0.0,0.0,0.0,0.0,0.0,0.0,0.0,0.0,0.0,0.0,0.0,0.0,0.0,0.0,0.0,0.0,0.0,0.0,0.0,0.0,0.0,0.0,0.0,0.0,0.0,0.0,0.0,0.0,0.0,0.0,0.0,0.0,0.0,0.0,0.0,0.0,0.0,0.0,0.0,0.9685,0.9571,0.0,0.0,0.0,1.3087,1.1765,0.0,0.0,0.0,0.0,0.0,0.0,0.0,0.0,0.0,0.0,0.0,0.0,0.0,0.0,0.0,0.0,0.0,0.0,0.0,0.0,0.0,0.0,0.0,0.0,0.0,0.0,0.0,0.0,0.0,0.0,0.0,0.0,0.0,0.0,0.0,0.0,0.0,0.0,0.0,0.0,0.0,0.0,0.0,0.0,0.0,0.0,0.0,0.0,0.0,0.0,0.0,0.0,0.0,0.0,0.0,0.0,0.0,0.4799,0.5416,0.5849,0.61,0.6937,0.7423,0.7506,0.7665,0.0,0.0,0.0,0.0,0.0,0.0,0.0,0.0,0.0,0.0,0.0,0.0,0.0,0.0,0.0,0.0,0.0,0.0,0.0,0.0,0.0,0.0,0.0,0.0,0.0,0.0,0.0,0.0,0.0,0.0,0.0,0.0,0.0,0.0,0.0,0.0,0.0,0.0,0.0,0.0,0.0,0.0,0.9042,0.971,1.0843,1.0915,0.0,0.0,1.0391,1.081,1.0643,1.055,0.0,0.0,0.0,0.0,0.0,0.0,0.0,0.0,0.0,0.0,0.0,0.0,0.0,0.0,0.0,0.0,0.0,0.0,0.0,0.0,0.0,0.0,0.0,0.0,0.0,0.0,0.0,0.0,0.0,0.0,0.0,0.0,0.0,0.0,0.0,0.0,0.0,0.0,0.0,0.0,0.0,0.0,0.0,0.0,0.0,0.0,0.0,0.0,0.0,0.0,0.0,0.0,0.0,0.0,0.0,0.4461,0.5146,0.5631,0.5825,0.6619,0.7187,0.7492,0.7922,0.8774,0.0,0.0,0.0,0.0,0.0,0.0,0.0,0.0,0.0,0.0,0.0,0.0,0.0,0.0,0.0,0.0,0.0,0.0,0.0,0.0,0.0,0.0,0.0,0.0,0.0,0.0,0.0,0.0,0.0,0.0,0.0,0.0,0.0,0.0,0.0,0.0,0.0,0.0,0.0,0.0,0.0,0.985,1.0517,1.1542,1.1869,0.0,0.0,0.9359,1.0389,1.1371,1.1362,0.9389,0.0,0.0,0.0,0.0,0.0,0.0,0.0,0.0,0.0,0.0,0.0,0.0,0.0,0.0,0.0,0.0,0.0,0.0,0.0,0.0,0.0,0.0,0.0,0.0,0.0,0.0,0.0,0.0,0.0,0.0,0.0,0.0,0.0,0.0,0.0,0.0,0.0,0.0,0.0,0.0,0.0,0.0,0.0,0.0,0.0,0.0,0.0,0.0,0.0,0.0,0.0,0.0,0.0,0.4399,0.4413,0.5139,0.5601,0.5811,0.6428,0.7139,0.7923,0.8139,0.9048,0.0,0.0,0.0,0.0,0.0,0.0,0.0,0.0,0.0,0.0,0.0,0.0,0.0,0.0,0.0,0.0,0.0,0.0,0.0,0.0,0.0,0.0,0.0,0.0,0.0,0.0,0.0,0.0,0.72,0.7198,0.7213,0.0,0.0,0.0,0.0,0.0,0.0,0.0,0.0,0.0,0.0,0.879,0.9492,1.0545,0.0,0.0,0.8355,0.8585,0.881,0.9265,0.9342,0.86,0.8287,0.0,0.0,0.0,0.0,0.0,0.0,0.0,0.0,0.0,0.0,0.0,0.0,0.0,0.0,0.0,0.0,0.0,0.0,0.0,0.0,0.0,0.0,0.0,0.0,0.0,0.0,0.0,0.0,0.0,0.0,0.0,0.0,0.0,0.0,0.0,0.0,0.0,0.0,0.0,0.0,0.0,0.0,0.0,0.0,0.0,0.0,0.0,0.0,0.0,0.0,0.0,0.0,0.4548,0.4399,0.5168,0.5695,0.5942,0.6411,0.7184,0.8287,0.8536,0.9426,0.0,0.0,0.0,0.0,0.0,0.0,0.0,0.0,0.0,0.0,0.0,0.0,0.0,0.0,0.0,0.0,0.0,0.0,0.0,0.0,0.0,0.0,0.0,0.0,0.0,0.0,0.0,0.0,0.7135,0.7533,0.8139,0.0,0.0,0.0,0.0,0.0,0.0,0.0,0.0,0.0,0.0,0.7807,0.8323,0.9242,0.8953,0.643,0.6906,0.7561,0.7632,0.7681,0.7712,0.7775,0.0,0.0,0.0,0.0,0.0,0.0,0.0,0.0,0.0,0.0,0.0,0.0,0.0,0.0,0.0,0.0,0.0,0.0,0.0,0.0,0.0,0.0,0.0,0.0,0.0,0.0,0.0,0.0,0.0,0.0,0.6546,0.0,0.0,0.0,0.0,0.0,0.0,0.0,0.0,0.0,0.0,0.0,0.0,0.0,0.0,0.0,0.0,0.0,0.0,0.0,0.0,0.0,0.0,0.4857,0.4428,0.5263,0.5892,0.6273,0.6558,0.7332,0.8622,0.9141,0.9944,1.1172,0.0,0.0,0.0,0.0,0.0,0.0,0.0,0.0,0.0,0.0,0.0,0.0,0.0,0.0,0.0,0.0,0.0,0.0,0.0,0.0,0.0,0.0,0.0,0.0,0.0,0.0,0.7959,0.85,0.8201,0.0,0.0,0.0,0.0,0.0,0.0,0.0,0.0,0.0,0.0,0.7174,0.7227,0.7268,0.7778,0.7502,0.5599,0.5642,0.6198,0.7143,0.713,0.6979,0.0,0.0,0.0,0.0,0.0,0.0,0.0,0.0,0.0,0.0,0.0,0.0,0.0,0.0,0.0,0.0,0.0,0.0,0.0,0.0,0.0,0.0,0.0,0.0,0.0,0.0,0.0,0.5199,0.5203,0.0,0.0,0.0,0.0,0.0,0.0,0.0,0.0,0.0,0.0,0.0,0.6168,0.7076,0.0,0.0,0.0,0.0,0.0,0.0,0.0,0.0,0.0,0.0,0.0,0.0,0.4977,0.4794,0.559,0.6149,0.6364,0.6578,0.7265,0.8403,0.9055,1.0029,1.1359,0.0,0.0,0.0,0.0,0.0,0.0,0.0,0.0,0.0,0.0,0.0,0.0,0.0,0.0,0.0,0.0,0.0,0.0,0.0,0.0,0.0,0.0,0.0,0.0,0.0,0.7268,0.0,0.0,0.0,0.0,0.0,0.0,0.0,0.0,0.0,0.0,0.0,0.6755,0.6886,0.665,0.6737,0.7506,0.7272,0.6409,0.0,0.0,0.0,0.0,0.0,0.0,0.0,0.0,0.0,0.0,0.0,0.0,0.0,0.0,1.3221,1.2747,1.2475,1.2344,1.2468,0.0,0.0,0.0,0.0,0.0,0.0,0.0,0.0,0.0,0.0,0.0,0.0,0.0,0.0,0.4522,0.0,0.4569,0.0,0.0,0.0,0.0,0.0,0.0,0.0,0.0,0.6335,0.6548,0.6271,0.6941,0.7335,0.0,0.7703,0.7333,0.0,0.0,0.0,0.0,0.0,0.0,0.0,0.0,0.5205,0.4954,0.5853,0.6419,0.6563,0.6701,0.7311,0.8434,0.9366,1.0331,1.1369,1.1715,1.1793,0.0,0.0,0.0,0.0,0.0,0.0,0.0,0.0,0.0,0.0,0.0,0.0,0.0,0.0,0.0,0.0,0.0,0.0,0.0,0.0,0.0,0.0,0.0,0.6633,0.0,0.0,0.0,0.0,0.0,0.0,0.0,0.0,0.0,0.5429,0.6191,0.6655,0.6329,0.6091,0.6238,0.7031,0.0,0.0,0.0,0.0,0.0,0.0,0.0,0.5542,0.5571,0.6545,0.7543,0.8227,0.9048,0.9938,1.0812,0.0,0.0,1.3158,1.2774,1.2457,1.2437,1.2182,1.2027,1.2197,1.2478,1.2957,0.0,0.0,0.0,0.0,0.0,0.0,0.0,0.0,0.4518,0.4593,0.0,0.4687,0.0,0.0,0.0,0.0,0.0,0.5028,0.0,0.0,0.699,0.7187,0.6764,0.6755,0.6755,0.6773,0.7026,0.6775,0.622,0.7973,0.0,0.0,0.0,0.0,0.0,0.0,0.5518,0.5029,0.606,0.672,0.6925,0.6945,0.7537,0.8809,0.9991,1.0802,1.1188,1.1898,1.2461,1.2707,1.2015,0.0,0.0,0.0,0.0,0.0,0.0,0.0,0.0,0.0,0.0,0.0,0.0,0.0,0.0,0.0,0.0,0.0,0.0,0.0,0.0,0.6038,0.0,0.0,0.0,0.0,0.0,0.0,0.0,0.0,0.0,0.0,0.5797,0.6161,0.6156,0.5391,0.0,0.0,0.0,0.0,0.4409,0.4476,0.4682,0.4965,0.5292,0.5757,0.616,0.6274,0.0,0.0,0.9541,1.0496,1.0881,1.019,1.0754,1.1814,1.344,1.3058,1.2591,1.2612,1.2947,1.3147,1.2539,1.3205,1.4068,0.5013,0.0,0.0,0.0,0.0,0.4694,0.4629,0.4167,0.469,0.4847,0.4694,0.4694,0.0,0.0,0.0,0.0,0.0,0.0,0.6002,0.6506,0.6804,0.7031,0.7274,0.7532,0.7698,0.778,0.8106,0.8048,0.7621,0.8128,0.7415,0.553,0.0,0.0,0.0,0.0,0.5711,0.5996,0.6717,0.7276,0.7594,0.7812,0.8305,0.914,0.951,1.0065,1.0897,1.114,1.1384,1.1641,1.2026,0.0,0.0,0.0,0.0,0.0,0.0,0.0,0.0,0.0,0.0,0.0,0.0,0.0,0.0,0.0,0.0,0.0,0.0,0.0,0.5839,0.5107,0.4831,0.0,0.0,0.0,0.0,0.0,0.0,0.0,0.0,0.0,0.4385,0.4661,0.4808,0.0,0.0,0.4575,0.4859,0.4243,0.4209,0.5497,0.5746,0.0,0.0,0.5979,0.6244,0.641,0.7586,0.8778,0.9641,1.0162,1.0503,1.0524,0.9852,0.9825,1.1459,1.1575,1.1417,1.1676,1.1655,1.1477,1.1271,1.1742,1.2245,0.543,0.5257,0.5145,0.4887,0.4599,0.5026,0.4961,0.457,0.5026,0.5155,0.5078,0.5013,0.4938,0.4842,0.4571,0.0,0.0,0.0,0.6133,0.7017,0.7017,0.7177,0.7521,0.7684,0.7852,0.7944,0.8177,0.8177,0.7912,0.7693,0.6946,0.5692,0.0,0.0,0.5162,0.5505,0.5844,0.619,0.6737,0.7224,0.7643,0.8082,0.8475,0.8902,0.9155,0.9595,1.017,1.0575,1.0872,1.1049,1.1983,1.173,0.0,0.0,0.0,0.0,0.0,0.0,0.0,0.0,0.0,0.0,0.0,0.6235,0.0,0.0,0.0,0.0,0.4617,0.5092,0.4902,0.4533,0.0,0.0,0.0,0.0,0.0,0.0,0.0,0.4449,0.45,0.4357,0.3863,0.3875,0.4028,0.4324,0.4353,0.4363,0.4317,0.0,0.4513,0.6254,0.6519,0.642,0.6062,0.6278,0.6607,0.702,0.7833,0.8577,0.9119,0.9384,0.9562,0.9654,0.9044,0.8807,1.004,1.0272,1.0469,1.1056,1.1131,1.1047,1.103,1.1352,1.1727,0.5861,0.585,0.5617,0.5487,0.5446,0.5446,0.545,0.545,0.545,0.5515,0.5576,0.5477,0.5399,0.5358,0.4404,0.0,0.6164,0.5519,0.6085,0.7447,0.7498,0.7493,0.7493,0.7493,0.7493,0.7526,0.7493,0.7493,0.7484,0.7049,0.6688,0.6448,0.6439,0.6211,0.5802,0.5869,0.5902,0.5849,0.633,0.6843,0.737,0.8007,0.8333,0.8322,0.8941,0.927,0.9311,1.017,1.0668,1.0762,1.1848,1.1551,0.9741,0.0,0.0,0.0,0.0,0.0,0.0,0.0,0.0,0.0,0.0,0.0,0.0,0.0,0.0,0.0,0.3584,0.0,0.3496,0.4184,0.0,0.0,0.0,0.5023,0.5176,0.6178,0.5996,0.3865,0.0,0.0,0.4063,0.0,0.3772,0.4314,0.4665,0.47,0.4235,0.4415,0.5141,0.6752,0.6986,0.6827,0.6392,0.6647,0.7127,0.771,0.8172,0.8353,0.8409,0.8459,0.843,0.8495,0.8394,0.8557,0.8955,0.9361,0.9796,1.0648,1.1185,1.1472,1.1365,1.1739,1.2057,0.6419,0.6481,0.641,0.6186,0.5834,0.5834,0.5834,0.5871,0.5871,0.5766,0.5589,0.5552,0.554,0.5538,0.5456,0.5726,0.6286,0.6416,0.6775,0.7241,0.7433,0.7493,0.7493,0.7493,0.7493,0.7493,0.7493,0.7493,0.7521,0.7728,0.7511,0.6886,0.6952,0.6476,0.5477,0.5433,0.5735,0.6257,0.6385,0.6939,0.795,0.8436,0.8661,0.8595,0.8754,0.8904,0.9079,0.9308,0.9673,1.0264,1.1459,1.2258,1.253,1.2427,0.0,0.0,0.0,0.0,0.0,0.0,0.0,0.0,0.0,0.594,0.4668,0.0,0.4668,0.0,0.3682,0.3028,0.3325,0.335,0.0,0.0,0.3203,0.3506,0.4957,0.5338,0.4975,0.3755,0.4136,0.4494,0.4505,0.4304,0.4445,0.51,0.4848,0.485,0.5506,0.5345,0.5548,0.672,0.6993,0.6953,0.6834,0.7059,0.7321,0.7523,0.7842,0.809,0.8082,0.8262,0.8394,0.8394,0.8394,0.8618,0.9108,0.9128,0.9268,0.9932,1.0602,1.0981,1.0725,1.0981,1.1303,0.6624,0.6702,0.6702,0.6556,0.6289,0.6289,0.6329,0.6283,0.6257,0.6098,0.5921,0.5813,0.5721,0.5613,0.5725,0.6034,0.6496,0.6735,0.7063,0.7462,0.7588,0.7584,0.7493,0.7493,0.7493,0.7493,0.7493,0.7493,0.7521,0.7782,0.7614,0.7106,0.704,0.6601,0.5804,0.5473,0.5496,0.5887,0.6463,0.7112,0.7869,0.8487,0.8742,0.8577,0.8543,0.8504,0.8481,0.8573,0.8819,0.9266,1.051,1.109,1.0885,1.1912,1.042,0.0,0.0,0.0,0.0,0.0,0.0,0.0,0.0,0.0,0.0,0.0,0.3573,0.4572,0.3693,0.3141,0.3323,0.402,0.428,0.3806,0.3849,0.3876,0.3832,0.4523,0.4635,0.3714,0.4276,0.4833,0.5101,0.4919,0.4981,0.561,0.5352,0.5407,0.6091,0.6121,0.6299,0.6886,0.6993,0.6993,0.6993,0.7133,0.7265,0.7391,0.7697,0.7966,0.8,0.8242,0.8394,0.8394,0.8394,0.8557,0.9036,0.8975,0.8955,0.9297,0.9922,1.0332,1.0293,1.0592,1.0945,0.6739,0.6756,0.6759,0.678,0.681,0.6753,0.6709,0.6661,0.6552,0.6416,0.6293,0.6118,0.5905,0.565,0.5647,0.6024,0.6676,0.6725,0.7104,0.7789,0.7829,0.774,0.7564,0.7531,0.7517,0.7493,0.7493,0.7493,0.7493,0.7587,0.7421,0.7122,0.6948,0.672,0.634,0.5702,0.5361,0.5372,0.647,0.7155,0.7404,0.8154,0.8423,0.8276,0.8214,0.8066,0.7817,0.8022,0.8162,0.8255,0.9373,0.9321,0.7866,1.0629,1.1036,0.0,0.8158,0.0,0.0,0.0,0.0,0.0,0.0,0.0,0.0,0.3107,0.2536,0.3956,0.3865,0.3666,0.3531,0.5145,0.554,0.398,0.4956,0.4892,0.2924,0.4005,0.4683,0.3869,0.4657,0.5355,0.555,0.5408,0.5449,0.5827,0.5965,0.6108,0.6443,0.6744,0.6933,0.6993,0.6993,0.6993,0.6993,0.7,0.7091,0.7321,0.76,0.785,0.7946,0.8152,0.8345,0.8394,0.8394,0.8516,0.8862,0.8822,0.8773,0.8842,0.9357,0.9812,1.0076,1.0518,1.0953,0.6953,0.7014,0.7014,0.7156,0.7397,0.7037,0.6746,0.6545,0.6402,0.6323,0.6296,0.6269,0.6153,0.5915,0.5909,0.6206,0.6632,0.6785,0.7191,0.7802,0.7957,0.7954,0.7759,0.7754,0.766,0.7498,0.7493,0.7493,0.7526,0.7874,0.7636,0.6845,0.7173,0.6946,0.6117,0.0,0.0,0.0,0.6374,0.6798,0.6854,0.6952,0.7172,0.748,0.7496,0.0,0.7793,0.7858,0.7982,0.8209,0.8765,0.0,0.0,0.0,0.0,0.0,0.0,0.0,0.0,0.0,0.0,0.0,0.5965,0.4523,0.3303,0.4871,0.5726,0.5118,0.4998,0.4764,0.4264,0.4778,0.4999,0.4576,0.4589,0.4551,0.4455,0.481,0.4919,0.4771,0.4946,0.5116,0.5301,0.5513,0.5806,0.6112,0.6376,0.6626,0.6846,0.6937,0.6993,0.6993,0.6993,0.6993,0.6993,0.6993,0.7021,0.7105,0.7301,0.7566,0.7746,0.7953,0.8172,0.8353,0.8394,0.8414,0.8508,0.8496,0.857,0.8753,0.9128,0.9517,0.9926,1.0474,1.1083,0.7102,0.0,0.7095,0.723,0.0,0.7045,0.6841,0.6688,0.6542,0.6474,0.6402,0.633,0.6176,0.5993,0.5993,0.6217,0.6585,0.6687,0.7131,0.7794,0.7789,0.7852,0.7924,0.775,0.7655,0.7645,0.7536,0.7493,0.7526,0.7717,0.7598,0.7113,0.7489,0.7368,0.6769,0.6733,0.6498,0.6066,0.6593,0.7061,0.748,0.7659,0.7899,0.8215,0.0,0.0,0.0,0.0,0.0,0.0,0.0,0.0,0.0,0.0,0.0,0.9259,0.8961,0.858,0.8165,0.7605,0.7315,0.7442,0.6119,0.4988,0.427,0.5995,0.6591,0.5387,0.542,0.5448,0.5235,0.5528,0.5641,0.5361,0.4927,0.4762,0.4963,0.5007,0.5007,0.505,0.5306,0.5501,0.5539,0.5863,0.6184,0.6413,0.6598,0.6774,0.6958,0.6993,0.6993,0.6993,0.6993,0.6993,0.6993,0.6993,0.6993,0.7021,0.7223,0.7461,0.767,0.7974,0.8242,0.8373,0.8394,0.8394,0.8414,0.8496,0.8581,0.8604,0.9077,0.9572,0.9869,1.0425,1.096,0.7305,0.7098,0.7129,0.7258,0.735,0.7038,0.6923,0.6906,0.0,0.0,0.0,0.6416,0.6271,0.6114,0.6111,0.6339,0.6722,0.6719,0.7116,0.7788,0.7604,0.7708,0.8016,0.7719,0.764,0.7768,0.7636,0.7527,0.7493,0.7493,0.7554,0.7637,0.7832,0.7832,0.7642,0.7554,0.719,0.6625,0.6913,0.743,0.8147,0.8487,0.8774,0.9023,0.8709,0.8508,0.8409,0.8165,0.8039,0.7985,0.8032,0.8305,0.8811,0.8657,0.8738,0.9158,0.8991,0.8864,0.8791,0.7872,0.7313,0.7335,0.6453,0.6003,0.6177,0.6751,0.6661,0.5625,0.5842,0.6071,0.6184,0.6487,0.6544,0.616,0.5659,0.5324,0.5197,0.504,0.5007,0.5072,0.555,0.5933,0.5841,0.6169,0.6468,0.6632,0.6783,0.6877,0.6971,0.6993,0.6993,0.6993,0.6993,0.6993,0.6993,0.6993,0.6993,0.6993,0.7196,0.7412,0.7691,0.8002,0.8258,0.8394,0.8394,0.8457,0.8566,0.8696,0.8706,0.8476,0.9142,0.9803,0.9851,1.0383,1.0871,0.74,0.7109,0.7285,0.7395,0.7402,0.7183,0.7065,0.7031,0.6681,0.6532,0.6518,0.659,0.6627,0.6607,0.6607,0.6811,0.7178,0.7178,0.7387,0.7718,0.7694,0.7744,0.7841,0.7779,0.777,0.7792,0.7744,0.7674,0.7508,0.7493,0.7717,0.8037,0.814,0.8135,0.8069,0.7717,0.7428,0.7334,0.7385,0.7484,0.7603,0.7677,0.7899,0.8285,0.7903,0.7874,0.839,0.8584,0.8571,0.8362,0.855,0.8838,0.9097,0.9118,0.9124,0.9176,0.9178,0.9044,0.8831,0.8651,0.8557,0.855,0.8404,0.8003,0.7278,0.7124,0.7009,0.6832,0.6847,0.6939,0.6956,0.6972,0.6876,0.6596,0.6701,0.6545,0.593,0.5319,0.5029,0.505,0.5572,0.589,0.5728,0.6147,0.6551,0.6627,0.7043,0.7299,0.7098,0.6993,0.6993,0.6993,0.6993,0.6993,0.7033,0.7013,0.704,0.6993,0.7082,0.7272,0.7628,0.7735,0.7923,0.8319,0.8425,0.8624,0.9024,0.899,0.8944,0.9072,0.9549,0.9812,0.9842,1.0365,1.0937,0.7539,0.7285,0.7339,0.7421,0.7489,0.7417,0.7339,0.7251,0.7051,0.6865,0.6732,0.6751,0.678,0.6702,0.6702,0.6785,0.6992,0.6992,0.7159,0.7444,0.7307,0.7534,0.8012,0.7799,0.774,0.7938,0.7829,0.7702,0.754,0.7744,0.7972,0.8199,0.8495,0.8495,0.8204,0.7977,0.7879,0.7879,0.7624,0.7766,0.8302,0.832,0.8709,0.9468,0.9078,0.8991,0.9297,0.9299,0.9225,0.9119,0.9112,0.9305,0.9657,0.9666,0.9637,0.967,0.9384,0.9224,0.9279,0.9104,0.8951,0.8824,0.8778,0.8554,0.7941,0.7405,0.7106,0.7106,0.7106,0.7106,0.7106,0.7106,0.7042,0.6881,0.7026,0.6967,0.655,0.5606,0.5147,0.5485,0.5804,0.5997,0.6029,0.6622,0.7028,0.7098,0.7454,0.7626,0.7506,0.7386,0.7239,0.7032,0.7,0.708,0.7235,0.7399,0.7406,0.7301,0.7386,0.7509,0.7702,0.7745,0.7996,0.8328,0.8585,0.876,0.8943,0.9002,0.9115,0.9284,0.9762,1.0019,1.0107,1.0176,1.0449,0.7689,0.747,0.7458,0.7539,0.7641,0.7611,0.7546,0.7472,0.7468,0.7322,0.7095,0.7001,0.6943,0.6807,0.68,0.68,0.68,0.68,0.6951,0.7186,0.6922,0.7226,0.7928,0.765,0.7641,0.7943,0.7932,0.7821,0.7659,0.8103,0.8525,0.8783,0.9098,0.907,0.8663,0.8457,0.8361,0.8366,0.8042,0.8269,0.9145,0.9274,0.9792,1.051,1.0341,1.018,1.0083,0.9967,0.9883,0.9786,0.9729,0.9826,1.018,1.0177,1.0114,1.008,0.9664,0.9477,0.9646,0.9384,0.9144,0.9018,0.8878,0.8657,0.8327,0.7768,0.7322,0.7198,0.7122,0.7112,0.7166,0.7139,0.7139,0.7192,0.7139,0.6988,0.6754,0.5751,0.5246,0.5868,0.6126,0.6307,0.6542,0.7085,0.7515,0.7689,0.7882,0.8012,0.8065,0.7976,0.7719,0.7486,0.7299,0.7313,0.7571,0.7789,0.7812,0.7645,0.7726,0.7859,0.7938,0.8128,0.8209,0.843,0.8895,0.907,0.8816,0.9173,0.9523,0.968,1.0071,1.04,1.0264,0.9942,0.9836,0.7796,0.7621,0.7709,0.7777,0.7773,0.7662,0.7668,0.776,0.777,0.7685,0.7516,0.739,0.7244,0.7068,0.7048,0.7045,0.7041,0.7055,0.7027,0.6941,0.6777,0.6879,0.7274,0.7417,0.7525,0.7624,0.8065,0.8148,0.7841,0.8586,0.9454,1.0333,1.0227,1.0046,0.991,0.9255,0.892,0.892,0.8888,0.9139,0.9709,1.0206,1.0491,1.0586,1.0566,1.0425,1.0147,1.0354,1.0385,1.0127,1.0338,1.0499,1.0539,1.0539,1.0419,1.0171,1.0067,0.9947,0.9699,0.9384,0.9324,0.9532,0.9125,0.8729,0.8462,0.837,0.8086,0.7553,0.7214,0.7252,0.7413,0.7273,0.7219,0.7434,0.7246,0.6839,0.6296,0.5466,0.5263,0.5911,0.6588,0.6816,0.6677,0.7134,0.7709,0.8214,0.8277,0.8397,0.8577,0.8578,0.8538,0.8452,0.8179,0.7859,0.7916,0.8056,0.8079,0.7943,0.7892,0.8102,0.8368,0.8543,0.854,0.8671,0.914,0.95,0.9583,0.9869,1.0295,1.0281,1.0505,1.0742,1.0361,0.9894,0.973,0.787,0.7733,0.7787,0.7814,0.7814,0.7845,0.7843,0.7894,0.7897,0.7813,0.7729,0.7658,0.7499,0.7282,0.7278,0.7231,0.7098,0.7095,0.7068,0.7001,0.6862,0.6965,0.7219,0.749,0.7647,0.7715,0.818,0.8286,0.8194,0.8983,0.9875,1.062,1.0674,1.0361,0.9832,0.9592,0.9454,0.946,0.9492,0.9748,1.0199,1.0168,1.0295,1.0561,1.0586,1.0546,1.0439,1.0533,1.0533,1.0425,1.0526,1.0751,1.0996,1.0744,1.0791,1.1147,1.0956,1.0464,0.9749,0.9726,0.9704,0.9729,0.9573,0.9407,0.9118,0.8836,0.8524,0.8207,0.7749,0.7536,0.7696,0.7515,0.7461,0.7616,0.7348,0.71,0.7141,0.658,0.6424,0.7031,0.7351,0.7465,0.7397,0.7722,0.8188,0.8569,0.865,0.8677,0.8765,0.8778,0.8778,0.8778,0.8584,0.839,0.8257,0.8404,0.8417,0.8303,0.8343,0.8566,0.8652,0.9145,0.9279,0.9043,0.9493,0.9915,1.0058,1.0223,1.0534,1.0718,1.0993,1.1066,1.0107,0.9618,0.9457,0.8072,0.795,0.7936,0.7936,0.7943,0.7958,0.7988,0.7988,0.7988,0.7924,0.7882,0.7875,0.7733,0.7509,0.7455,0.737,0.7223,0.7224,0.7156,0.718,0.697,0.6999,0.7215,0.7467,0.7638,0.776,0.8136,0.85,0.881,0.9751,1.0538,1.1064,1.1133,1.0781,1.0205,1.0175,1.0149,1.0149,1.0116,1.0277,1.0511,1.0231,1.0199,1.0555,1.0586,1.0586,1.0586,1.0586,1.0586,1.0586,1.0586,1.0807,1.124,1.0846,1.0965,1.1677,1.1608,1.111,1.0185,1.0257,1.0211,0.9999,0.997,0.99,0.9788,0.9483,0.9218,0.9053,0.8546,0.8266,0.8023,0.7777,0.7723,0.7957,0.7589,0.7503,0.7779,0.7591,0.7573,0.7872,0.8001,0.8105,0.8085,0.829,0.8571,0.8738,0.8798,0.8778,0.8778,0.8778,0.8778,0.8778,0.8804,0.8717,0.855,0.8624,0.8671,0.8624,0.8657,0.8758,0.8858,0.9452,0.9938,0.9636,0.9866,1.0067,1.0324,1.0527,1.0935,1.1251,1.1401,1.1203,1.0342,0.9772,0.9648,0.8377,0.8248,0.8296,0.8228,0.8289,0.8102,0.7995,0.8022,0.8005,0.7992,0.7982,0.7988,0.7894,0.7787,0.7672,0.7587,0.7553,0.7421,0.7398,0.7368,0.7075,0.6932,0.6951,0.7181,0.7343,0.7563,0.8099,0.9005,1.0254,1.0952,1.1631,1.2145,1.1648,1.1509,1.1565,1.1135,1.0942,1.0876,1.0837,1.0796,1.0633,1.0555,1.0555,1.0586,1.0586,1.0586,1.0586,1.0586,1.0586,1.0586,1.0586,1.0814,1.1209,1.0895,1.0965,1.1334,1.1763,1.1763,1.1265,1.1002,1.0777,1.0536,1.013,0.9951,1.0332,1.0345,1.0238,0.9981,0.9673,0.9241,0.8509,0.8119,0.8062,0.8315,0.807,0.7871,0.7925,0.8365,0.8393,0.8152,0.8404,0.8557,0.8422,0.8611,0.8738,0.8771,0.8778,0.8778,0.8778,0.8778,0.8778,0.8778,0.8778,0.8771,0.8751,0.8778,0.8791,0.8751,0.875,0.8856,0.9145,0.9451,0.9828,1.0179,1.0234,1.0361,1.0576,1.0998,1.1565,1.1748,1.1417,1.1024,1.0635,1.043,1.0244,0.817,0.8123,0.8123,0.8177,0.8313,0.8208,0.8238,0.8319,0.8319,0.8269,0.8214,0.8282,0.8241,0.8099,0.8052,0.7868,0.7611,0.7539,0.7465,0.7415,0.7258,0.7112,0.6929,0.7246,0.7567,0.7825,0.8246,0.926,1.0616,1.1403,1.1916,1.2191,1.1904,1.177,1.1812,1.147,1.1189,1.1015,1.0995,1.0881,1.0633,1.0586,1.0586,1.0586,1.0586,1.0586,1.0586,1.0586,1.0586,1.0586,1.0586,1.0933,1.1677,1.2197,1.2197,1.1856,1.2243,1.2274,1.1818,1.1659,1.1459,1.108,1.0956,1.0836,1.0901,1.0763,1.0567,1.0532,1.039,0.987,0.9112,0.8629,0.8538,0.8572,0.8229,0.809,0.8395,0.8666,0.8711,0.8538,0.8704,0.8744,0.8697,0.8744,0.8804,0.8778,0.8778,0.8778,0.8778,0.8778,0.8778,0.8778,0.8778,0.8778,0.8778,0.8778,0.8778,0.8778,0.8824,0.8949,0.9152,0.9335,0.967,1.0108,1.0283,1.059,1.0812,1.1351,1.1941,1.2016,1.1691,1.1233,1.1016,1.0653,1.0429,0.8241,0.8271,0.8282,0.836,0.8411,0.8467,0.8438,0.8531,0.8435,0.8436,0.8357,0.8397,0.8381,0.8343,0.8391,0.8157,0.7824,0.7719,0.7611,0.7512,0.7465,0.7312,0.7149,0.7327,0.7683,0.8201,0.906,0.9973,1.0823,1.1735,1.2207,1.2298,1.2047,1.1953,1.1944,1.1717,1.1463,1.1303,1.1269,1.1102,1.0801,1.0795,1.0821,1.0747,1.0734,1.0687,1.06,1.0586,1.0586,1.0586,1.0586,1.0958,1.1771,1.2873,1.3108,1.2421,1.2736,1.2767,1.2236,1.2081,1.1825,1.1397,1.1233,1.124,1.1428,1.0965,1.0854,1.1064,1.0812,1.0265,0.9668,0.9319,0.9134,0.8937,0.8479,0.8342,0.8732,0.8778,0.8778,0.8751,0.8758,0.8778,0.8778,0.8778,0.8778,0.8778,0.8778,0.8778,0.8778,0.8778,0.8778,0.8778,0.8778,0.8778,0.8785,0.8811,0.8976,0.9002,0.8956,0.9054,0.9159,0.9316,0.9498,0.9973,1.0385,1.0735,1.1167,1.1669,1.1969,1.2144,1.1774,1.1261,1.101,1.0746,1.0505,0.8632,0.8835,0.8868,0.8774,0.8676,0.8652,0.8604,0.8506,0.8384,0.8414,0.8525,0.837,0.8418,0.8462,0.8482,0.8397,0.8279,0.7967,0.7811,0.776,0.7651,0.7506,0.7381,0.7455,0.7797,0.8373,1.029,1.1039,1.0964,1.2131,1.2641,1.2331,1.212,1.2114,1.2285,1.1997,1.1893,1.1832,1.1812,1.1571,1.1109,1.1223,1.1216,1.1002,1.0982,1.0855,1.0606,1.0586,1.0586,1.0624,1.0618,1.0839,1.1584,1.2742,1.3268,1.2942,1.3216,1.3117,1.2574,1.2259,1.195,1.1545,1.1021,1.1146,1.1615,1.1303,1.1195,1.1671,1.1205,1.0488,1.0194,1.0033,0.9741,0.9304,0.8916,0.8864,0.8851,0.8791,0.8778,0.8778,0.8778,0.8778,0.8778,0.8778,0.8778,0.8778,0.8778,0.8778,0.8778,0.8778,0.8778,0.8818,0.8918,0.9018,0.8918,0.8844,0.9095,0.9279,0.9199,0.923,0.9316,0.942,0.9316,0.9681,1.0231,1.0616,1.1065,1.1553,1.1852,1.1925,1.1538,1.135,1.1202,1.0961,1.0506,0.8902,0.8528,0.8479,0.8574,0.8682,0.8601,0.8632,0.8788,0.8747,0.8696,0.8659,0.8703,0.8699,0.8645,0.8638,0.8615,0.8547,0.8265,0.8018,0.7838,0.7767,0.7614,0.7513,0.7731,0.8247,0.9148,1.0889,1.1608,1.1636,1.2692,1.312,1.2717,1.2556,1.2442,1.2311,1.2204,1.2084,1.1926,1.1906,1.167,1.1329,1.1342,1.1289,1.1056,1.1182,1.1069,1.0633,1.0586,1.0586,1.0586,1.0902,1.1466,1.2297,1.3086,1.342,1.3338,1.342,1.345,1.3208,1.2789,1.2328,1.1919,1.1639,1.1545,1.1763,1.222,1.2405,1.2359,1.1639,1.1081,1.0711,1.0302,0.9873,0.9277,0.9332,0.9345,0.9272,0.9025,0.8811,0.8778,0.8778,0.8778,0.8804,0.8811,0.8857,0.8837,0.8837,0.8851,0.8804,0.8778,0.8778,0.8785,0.9045,0.9265,0.9172,0.918,0.9419,0.962,0.9601,0.9448,0.9499,0.942,0.9316,0.9439,0.9991,1.0488,1.0964,1.1326,1.1578,1.1794,1.1623,1.154,1.1501,1.1136,1.0555,0.901,0.8402,0.8402,0.8448,0.8611,0.852,0.8587,0.8743,0.8713,0.8662,0.8648,0.872,0.8754,0.8726,0.8767,0.876,0.8686,0.8455,0.8214,0.7994,0.7913,0.7787,0.7688,0.8116,0.8678,0.9503,1.1111,1.1841,1.1696,1.2877,1.3394,1.2986,1.2951,1.2804,1.2536,1.2458,1.2318,1.2078,1.2037,1.1891,1.1677,1.1697,1.161,1.139,1.1456,1.1356,1.1075,1.0787,1.0688,1.0933,1.149,1.2143,1.2713,1.3177,1.348,1.348,1.348,1.348,1.345,1.3011,1.2613,1.2236,1.195,1.1856,1.1988,1.2789,1.2934,1.2842,1.1973,1.1317,1.1029,1.0595,1.0043,0.9437,0.9325,0.9372,0.9305,0.9045,0.8811,0.8804,0.891,0.8883,0.8837,0.9035,0.9061,0.9061,0.9184,0.9077,0.8957,0.8778,0.8884,0.9058,0.9372,0.9479,0.9426,0.9545,0.9727,0.9925,1.0057,0.9845,0.9724,0.9492,0.9335,0.9366,0.9747,1.0105,1.0541,1.0863,1.1141,1.1353,1.1489,1.1293,1.104,1.0846,1.0422,0.9109,0.857,0.857,0.8629,0.8618,0.8545,0.8523,0.8516,0.8404,0.8442,0.8526,0.8564,0.8601,0.8726,0.8794,0.8787,0.8706,0.8574,0.8431,0.8275,0.8136,0.8043,0.8191,0.8571,0.9017,0.9716,1.1218,1.1855,1.178,1.3026,1.3487,1.326,1.322,1.308,1.2871,1.2817,1.2683,1.2438,1.2385,1.2238,1.202,1.2171,1.2138,1.1879,1.1784,1.1744,1.1605,1.12,1.1006,1.1404,1.2212,1.2644,1.2728,1.3177,1.348,1.348,1.348,1.348,1.339,1.3064,1.2705,1.2421,1.2019,1.1732,1.2143,1.2474,1.2964,1.326,1.229,1.1445,1.1337,1.0954,1.0394,0.9762,0.9312,0.9051,0.8818,0.8824,0.8785,0.8857,0.9008,0.9106,0.8962,0.9335,0.951,0.9639,0.9889,0.9753,0.9355,0.9234,0.9247,0.9509,0.9856,0.978,0.9753,0.9742,0.9942,1.0222,1.0394,1.0303,0.9911,0.9601,0.9439,0.9456,0.9558,0.9836,1.0097,1.0454,1.0718,1.0872,1.088,1.07,1.069,1.0677,1.0569,0.9853,0.9185,0.9138,0.9276,0.9405,0.885,0.8611,0.8781,0.8642,0.8625,0.8757,0.8699,0.8712,0.8723,0.8862,0.8801,0.8733,0.8662,0.8642,0.856,0.8323,0.8499,0.8758,0.8956,0.9447,1.0285,1.1467,1.2178,1.2235,1.3336,1.3773,1.35,1.35,1.3353,1.3133,1.3086,1.306,1.2986,1.2959,1.2792,1.2589,1.2583,1.2409,1.1966,1.2037,1.1917,1.1681,1.1845,1.1907,1.1848,1.2428,1.295,1.3177,1.339,1.348,1.348,1.348,1.348,1.339,1.3064,1.2736,1.2552,1.239,1.1926,1.1185,1.2436,1.3177,1.3381,1.2781,1.2205,1.1833,1.1351,1.072,0.9888,0.9459,0.9198,0.8898,0.8778,0.8778,0.8831,0.9035,0.9237,0.9465,0.9792,1.018,1.0438,1.0584,1.0596,1.0141,0.9755,0.9799,1.0093,1.0358,1.0218,1.0094,1.0033,1.0147,1.0482,1.0687,1.0784,1.0299,0.976,0.964,0.959,0.9701,0.9951,0.9989,1.0162,1.0308,1.0657,1.0597,1.0639,1.0954,1.1035,1.0875,1.0221,0.9778,0.9497,0.9497,0.9501,0.8761,0.8462,0.8477,0.8476,0.8723,0.9097,0.9165,0.9183,0.9251,0.9341,0.9105,0.8794,0.8672,0.8611,0.856,0.8299,0.8534,0.9033,0.9194,0.9673,1.0592,1.1491,1.1965,1.2419,1.338,1.377,1.3873,1.3913,1.3801,1.3373,1.3347,1.3287,1.3206,1.31,1.2951,1.2804,1.2656,1.2449,1.2154,1.2204,1.2076,1.1832,1.2303,1.2449,1.2266,1.2666,1.3216,1.345,1.348,1.348,1.348,1.348,1.348,1.345,1.3208,1.3064,1.2942,1.2911,1.2597,1.2228,1.2956,1.348,1.345,1.3072,1.2582,1.202,1.1467,1.084,1.0148,0.9605,0.9219,0.8831,0.8778,0.8778,0.8883,0.914,0.9543,0.994,1.048,1.1205,1.1808,1.1887,1.1559,1.1059,1.0651,1.0358,1.0594,1.0688,1.0501,1.0482,1.0435,1.0638,1.0957,1.0912,1.1046,1.0799,1.0164,0.9854,0.9791,0.9911,1.0029,1.0169,1.0329,1.0578,1.0797,1.0687,1.0822,1.1168,1.1444,1.1283,1.0413,1.0377,0.9837,0.9519,0.9306,0.8729,0.8374,0.813,0.811,0.8591,0.9297,0.9696,0.9738,0.9988,0.9896,0.9667,0.9051,0.874,0.8659,0.8598,0.8387,0.8537,0.9361,0.9376,0.9789,1.0548,1.1076,1.1822,1.2495,1.3238,1.3746,1.4058,1.4369,1.4188,1.3753,1.3653,1.3513,1.3373,1.3206,1.3052,1.2898,1.2659,1.2465,1.2291,1.2265,1.2371,1.238,1.2646,1.2719,1.2305,1.305,1.342,1.348,1.348,1.348,1.348,1.348,1.348,1.348,1.345,1.345,1.342,1.342,1.348,1.3329,1.342,1.348,1.348,1.3103,1.2728,1.2182,1.1464,1.1105,1.0754,0.9911,0.9106,0.895,0.8857,0.8778,0.8804,0.923,0.981,1.0673,1.1383,1.2237,1.3101,1.3066,1.249,1.2,1.1589,1.1138,1.0829,1.0846,1.0782,1.0811,1.0836,1.1176,1.1461,1.1243,1.1263,1.1315,1.0828,1.0257,1.003,1.0115,1.0381,1.0753,1.092,1.0959,1.1098,1.1083,1.1303,1.1598,1.1786,1.1761,1.0413,1.0417,1.0946,1.078,1.0243,0.9658,0.9038,0.8419,0.8374,0.8581,0.8984,0.9515,0.9889,1.0057,1.0217,0.9988,0.9718,0.9251,0.8996,0.9306,0.857,0.889,0.96,0.9723,0.9934,1.0605,1.1365,1.2154,1.2888,1.3471,1.3989,1.4402,1.4476,1.4349,1.4048,1.3961,1.3975,1.3881,1.3829,1.3474,1.312,1.2979,1.2719,1.2365,1.2285,1.2633,1.3043,1.3014,1.3195,1.3579,1.358,1.348,1.348,1.348,1.348,1.348,1.348,1.348,1.348,1.348,1.348,1.348,1.348,1.348,1.348,1.348,1.348,1.348,1.3398,1.3094,1.2658,1.1773,1.1745,1.187,1.1176,1.0177,0.9978,0.9382,0.8989,0.8958,0.9221,1.0061,1.1968,1.1911,1.2824,1.4029,1.3997,1.34,1.2957,1.2538,1.2057,1.1615,1.1677,1.1709,1.1522,1.1545,1.1694,1.1787,1.1577,1.1421,1.1484,1.1471,1.0899,1.0505,1.029,1.0675,1.118,1.0982,1.0942,1.1215,1.1551,1.1795,1.2023,1.2166,1.2275,1.1525,1.1551,1.1643,1.1439,1.0938,0.9996,0.9263,0.879,0.8429,0.8657,0.929,1.002,1.0505,1.075,1.1095,1.1123,1.0683,1.0184,1.0024,1.0188,0.9717,0.9839,1.0309,1.061,1.0861,1.1061,1.1355,1.2262,1.338,1.3933,1.4321,1.4705,1.4723,1.4583,1.4289,1.4162,1.4082,1.4021,1.3935,1.3647,1.3273,1.3046,1.2844,1.2351,1.2201,1.2458,1.3089,1.2881,1.3171,1.3618,1.3665,1.348,1.348,1.348,1.348,1.348,1.348,1.348,1.348,1.348,1.348,1.348,1.348,1.348,1.348,1.348,1.348,1.348,1.348,1.3368,1.3125,1.272,1.2732,1.2889,1.2735,1.1889,1.0775,1.0058,0.9755,0.9757,1.0047,1.093,1.1839,1.2356,1.3424,1.4686,1.4277,1.3774,1.3967,1.3514,1.3025,1.2697,1.2789,1.272,1.2413,1.2313,1.2243,1.2158,1.1825,1.1677,1.1618,1.158,1.1465,1.1092,1.0717,1.1097,1.1458,1.1204,1.1263,1.1969,1.2356,1.2415,1.2413,1.2478,1.2569,1.2711,1.2581,1.2123,1.1791,1.1393,1.0309,0.9593,0.9095,0.8656,0.9027,0.984,1.0819,1.145,1.1842,1.2325,1.2187,1.1581,1.1138,1.0798,1.0763,1.0694,1.0632,1.0835,1.1197,1.1657,1.1771,1.1836,1.2692,1.3861,1.4415,1.4608,1.4987,1.5068,1.4816,1.4522,1.4295,1.4148,1.4075,1.3901,1.3594,1.326,1.2986,1.2757,1.2325,1.2349,1.2459,1.2886,1.2894,1.3036,1.3432,1.348,1.348,1.348,1.348,1.348,1.348,1.348,1.348,1.348,1.348,1.348,1.348,1.348,1.348,1.348,1.348,1.348,1.345,1.342,1.3359,1.348,1.3238,1.3237,1.3497,1.4089,1.3375,1.1923,1.1271,1.0959,1.0557,1.0594,1.1249,1.2164,1.2882,1.4098,1.5003,1.4521,1.421,1.441,1.4499,1.3971,1.3851,1.3923,1.3743,1.3463,1.2834,1.2795,1.262,1.2259,1.1957,1.1809,1.174,1.1663,1.1421,1.1272,1.1573,1.165,1.1462,1.1829,1.2718,1.2873,1.2625,1.2636,1.2728,1.283,1.241,1.1834,1.2407,1.225,1.1668,1.1406,1.0517,0.9454,0.985,0.9996,1.002,1.1403,1.226,1.2607,1.2748,1.2417,1.1855,1.1503,1.12,1.1196,1.118,1.1164,1.1212,1.1481,1.2011,1.2633,1.2744,1.3389,1.4322,1.4649,1.4957,1.5285,1.5304,1.5057,1.4696,1.4406,1.4302,1.4155,1.4008,1.3728,1.33,1.3046,1.2786,1.2382,1.2592,1.2841,1.2976,1.3339,1.3558,1.3505,1.3489,1.348,1.348,1.348,1.348,1.348,1.348,1.348,1.348,1.348,1.348,1.348,1.348,1.348,1.348,1.348,1.348,1.342,1.3238,1.3094,1.345,1.348,1.3674,1.407,1.4359,1.444,1.402,1.3012,1.1855,1.1219,1.1218,1.1422,1.2417,1.331,1.4246,1.4954,1.4894,1.4508,1.444,1.4765,1.4883,1.4942,1.5108,1.4844,1.4519,1.3713,1.323,1.3147,1.282,1.2274,1.2096,1.1972,1.1817,1.1459,1.1435,1.16,1.1639,1.1567,1.1936,1.2503,1.2622,1.2657,1.2833,1.2953,1.2949,1.3155,1.2278,1.2662,1.2565,1.2191,1.1835,1.1234,1.052,1.0505,1.0454,1.081,1.1733,1.2528,1.2901,1.3428,1.332,1.2876,1.2488,1.2307,1.2287,1.2272,1.2294,1.2077,1.2144,1.2856,1.3461,1.3507,1.3864,1.4959,1.5217,1.5352,1.5484,1.5484,1.5237,1.495,1.4619,1.4482,1.4295,1.4142,1.3808,1.3227,1.2966,1.2559,1.2533,1.2746,1.2997,1.3252,1.3393,1.3662,1.3729,1.3592,1.3506,1.348,1.348,1.348,1.348,1.348,1.348,1.348,1.348,1.348,1.348,1.348,1.348,1.348,1.348,1.348,1.345,1.339,1.3338,1.3731,1.3821,1.4052,1.43,1.4647,1.4795,1.443,1.3368,1.2636,1.2054,1.2241,1.2514,1.2949,1.3762,1.4441,1.4827,1.505,1.4893,1.4617,1.4795,1.5147,1.5332,1.5352,1.5079,1.4697,1.4043,1.339,1.3307,1.3072,1.2552,1.2344,1.2158,1.1778,1.1365,1.1466,1.1817,1.163,1.1584,1.195,1.2244,1.2266,1.2387,1.2891,1.3163,1.3085,1.3883,1.2829,1.2835,1.284,1.2726,1.2142,1.1766,1.1545,1.1215,1.1157,1.1435,1.2219,1.2841,1.3288,1.3813,1.4132,1.4143,1.3644,1.3291,1.3064,1.327,1.3367,1.319,1.3408,1.358,1.4075,1.3986,1.4161,1.5078,1.5596,1.573,1.5701,1.5524,1.5471,1.5291,1.4877,1.4656,1.4442,1.4229,1.3801,1.3287,1.2732,1.2392,1.2476,1.2762,1.3188,1.3427,1.3831,1.3947,1.3973,1.3819,1.3613,1.3498,1.348,1.348,1.348,1.348,1.348,1.348,1.348,1.348,1.348,1.348,1.348,1.348,1.348,1.348,1.3511,1.361,1.367,1.395,1.433,1.4389,1.433,1.4647,1.4824,1.4091,1.3498,1.3489,1.3237,1.3353,1.3417,1.3583,1.3814,1.4396,1.4827,1.5049,1.5186,1.4913,1.4736,1.4971,1.5264,1.5323,1.505,1.4638,1.4112,1.3511,1.3117,1.282,1.2344,1.2313,1.2313,1.1903,1.1553,1.1996,1.2251,1.1934,1.1618,1.1851,1.1972,1.1918,1.2202,1.2812,1.303,1.2983,1.3695,1.3044,1.2894,1.2877,1.3007,1.2747,1.2343,1.1989,1.2443,1.2618,1.2427,1.3189,1.3689,1.3976,1.4083,1.4196,1.4051,1.3723,1.3218,1.291,1.3218,1.3167,1.277,1.3651,1.3766,1.4131,1.4192,1.4625,1.5062,1.5563,1.5722,1.5573,1.5789,1.5925,1.5444,1.505,1.4834,1.4529,1.4235,1.3901,1.3473,1.2998,1.2744,1.2904,1.333,1.3737,1.3777,1.4325,1.4704,1.4181,1.4093,1.3862,1.3588,1.348,1.348,1.348,1.348,1.348,1.348,1.348,1.348,1.348,1.348,1.348,1.348,1.348,1.348,1.3502,1.3731,1.3941,1.413,1.4577,1.4586,1.4398,1.43,1.427,1.3769,1.3255,1.3338,1.3962,1.3903,1.3791,1.3846,1.4043,1.427,1.4695,1.5059,1.5186,1.5245,1.503,1.4942,1.5264,1.5294,1.5059,1.449,1.3962,1.348,1.2986,1.2574,1.222,1.2251,1.2243,1.222,1.2089,1.2406,1.2274,1.167,1.149,1.1661,1.1794,1.1832,1.2237,1.2784,1.2871,1.2856,1.3161,1.2899,1.2851,1.2867,1.291,1.2937,1.2809,1.2689,1.2909,1.3164,1.3304,1.3466,1.383,1.4132,1.4196,1.4196,1.4089,1.3696,1.3378,1.3008,1.3275,1.327,1.3018,1.2923,1.3044,1.3894,1.3498,1.3543,1.4292,1.5062,1.5313,1.5449,1.5624,1.577,1.5578,1.519,1.4943,1.4636,1.4195,1.3707,1.3367,1.3032,1.2862,1.3005,1.3506,1.3858,1.4391,1.5027,1.5257,1.4778,1.4581,1.4238,1.3956,1.3827,1.3776,1.348,1.348,1.348,1.348,1.3489,1.348,1.348,1.348,1.348,1.348,1.3511,1.3511,1.3511,1.3791,1.4031,1.427,1.4725,1.4666,1.4478,1.4181,1.3649,1.3407,1.3072,1.3011,1.3761,1.4449,1.433,1.4201,1.424,1.4508,1.4893,1.5137,1.5216,1.5332,1.5294,1.5264,1.5352,1.5264,1.5059,1.441,1.3782,1.3307,1.282,1.2421,1.2127,1.2151,1.212,1.2089,1.1934,1.1872,1.1639,1.1281,1.1394,1.1629,1.1735,1.1809,1.2244,1.2628,1.268,1.27,1.291,1.2807,1.2807,1.2878,1.2947,1.3066,1.3184,1.3236,1.3227,1.3437,1.3685,1.3669,1.382,1.4116,1.4196,1.4191,1.4159,1.3696,1.3518,1.3475,1.3475,1.3475,1.3309,1.2806,1.3103,1.4191,1.33,1.3329,1.3998,1.4646,1.5011,1.5395,1.5569,1.5703,1.5729,1.5411,1.503,1.4723,1.4142,1.3687,1.3367,1.3099,1.3006,1.311,1.3419,1.3861,1.4661,1.5417,1.5548,1.5197,1.4949,1.4632,1.4316,1.423,1.4153,1.3964,1.393,1.3913,1.381,1.3708,1.3523,1.348,1.348,1.348,1.3541,1.3601,1.3662,1.3662,1.41,1.4309,1.4478,1.4813,1.4656,1.4499,1.4291,1.3549,1.2928,1.2775,1.3216,1.4341,1.4863,1.4784,1.4656,1.4538,1.4745,1.5128,1.5274,1.5264,1.5352,1.542,1.5264,1.5235,1.5186,1.4824,1.3983,1.342,1.3003,1.2613,1.2212,1.2065,1.2058,1.2027,1.1965,1.1778,1.156,1.174,1.1825,1.1707,1.1608,1.1716,1.1852,1.2105,1.2351,1.2472,1.2627,1.3201,1.2807,1.2807,1.3056,1.3378,1.3195,1.3357,1.368,1.3518,1.3566,1.3766,1.3809,1.3916,1.4137,1.4196,1.4196,1.4169,1.3696,1.3545,1.3497,1.348,1.3497,1.345,1.3609,1.3813,1.4137,1.3537,1.3645,1.4126,1.4277,1.4773,1.5341,1.5531,1.5905,1.5941,1.5471,1.5003,1.4663,1.4168,1.3874,1.3533,1.3287,1.3123,1.3099,1.3357,1.3724,1.4217,1.5331,1.5762,1.5377,1.5249,1.5018,1.4718,1.4641,1.4555,1.4435,1.441,1.4401,1.4324,1.3964,1.3613,1.3506,1.3489,1.354,1.3716,1.4156,1.421,1.4036,1.4363,1.4467,1.4606,1.4706,1.4529,1.441,1.4201,1.3731,1.3133,1.2713,1.3307,1.4756,1.5118,1.4804,1.4577,1.4339,1.4508,1.4863,1.5157,1.5177,1.5323,1.5391,1.5089,1.5001,1.502,1.4508,1.3433,1.2926,1.265,1.2266,1.184,1.1879,1.1972,1.1903,1.184,1.184,1.1716,1.2027,1.2166,1.1757,1.1528,1.1708,1.1866,1.1964,1.2289,1.2567,1.27,1.3249,1.2813,1.2807,1.2997,1.3249,1.3308,1.3518,1.3744,1.3583,1.3518,1.362,1.376,1.3959,1.4137,1.4196,1.4196,1.4126,1.3696,1.361,1.3593,1.3572,1.3572,1.365,1.3593,1.3591,1.3921,1.3759,1.3759,1.4137,1.4191,1.4589,1.5018,1.5294,1.5401,1.5361,1.5352,1.4957,1.4589,1.4242,1.3948,1.3613,1.3414,1.35,1.426,1.386,1.471,1.5654,1.6018,1.6095,1.5917,1.5685,1.5377,1.512,1.506,1.4975,1.4821,1.4828,1.4819,1.4777,1.4427,1.4247,1.411,1.387,1.3668,1.4064,1.4412,1.4448,1.4439,1.4397,1.4357,1.4369,1.4389,1.433,1.4231,1.4052,1.37,1.3255,1.2744,1.295,1.4201,1.4469,1.4389,1.4189,1.3989,1.4249,1.4567,1.4854,1.5118,1.5294,1.542,1.5177,1.4981,1.499,1.4547,1.3541,1.2948,1.2428,1.195,1.1529,1.1622,1.1747,1.1747,1.1685,1.1747,1.1794,1.1865,1.1798,1.1486,1.1443,1.1628,1.1631,1.1584,1.2031,1.2578,1.2783,1.3588,1.3055,1.3001,1.309,1.3222,1.3405,1.361,1.3755,1.3577,1.3475,1.3486,1.3663,1.3906,1.4116,1.4196,1.4121,1.3986,1.3696,1.3626,1.3588,1.3566,1.347,1.3404,1.3441,1.3591,1.3753,1.3699,1.3759,1.4191,1.4196,1.4325,1.452,1.4769,1.4952,1.5331,1.5074,1.4856,1.4629,1.4269,1.3948,1.3606,1.3507,1.3689,1.4667,1.4697,1.5256,1.6091,1.6399,1.6376,1.6287,1.6098,1.578,1.5617,1.5523,1.5489,1.53,1.5163,1.5155,1.512,1.4829,1.4718,1.4536,1.4238,1.4256,1.4487,1.4603,1.4555,1.4546,1.4301,1.404,1.401,1.3971,1.3601,1.342,1.4001,1.3769,1.3103,1.2621,1.2928,1.3489,1.3489,1.339,1.3821,1.3649,1.383,1.43,1.4942,1.5177,1.5323,1.542,1.5391,1.5186,1.5079,1.4478,1.3791,1.2986,1.222,1.1794,1.1435,1.1373,1.1435,1.1498,1.1622,1.1755,1.1756,1.1649,1.1458,1.121,1.1324,1.1531,1.1564,1.163,1.1988,1.2529,1.2783,1.4358,1.3539,1.3443,1.3424,1.34,1.3464,1.3593,1.3744,1.3572,1.351,1.3453,1.3518,1.375,1.4067,1.4105,1.4019,1.3803,1.3572,1.3502,1.3545,1.3529,1.3153,1.3155,1.3306,1.3478,1.3266,1.3428,1.3813,1.4196,1.4196,1.4131,1.4046,1.4299,1.4666,1.5688,1.5258,1.4997,1.487,1.4326,1.4015,1.3748,1.3627,1.3889,1.4709,1.5279,1.5856,1.6506,1.6661,1.6696,1.6604,1.6467,1.6156,1.5874,1.6379,1.6405,1.6052,1.6086,1.6173,1.621,1.5283,1.4931,1.4897,1.4709,1.4769,1.4735,1.4737,1.4652,1.4619,1.4105,1.3709,1.3588,1.339,1.2873,1.2781,1.3338,1.3528,1.2828,1.259,1.2867,1.2889,1.2367,1.2151,1.2881,1.3338,1.3428,1.3932,1.4824,1.5235,1.5323,1.541,1.541,1.5274,1.5079,1.4389,1.3662,1.275,1.2011,1.1584,1.131,1.1185,1.1247,1.1373,1.1536,1.1755,1.1741,1.1681,1.1353,1.0994,1.1066,1.1115,1.1652,1.1895,1.2184,1.2431,1.271,1.3636,1.3055,1.3055,1.3139,1.3211,1.3233,1.3367,1.3556,1.3502,1.3389,1.333,1.3529,1.3658,1.3771,1.3868,1.3825,1.3593,1.3357,1.3308,1.3669,1.3566,1.3231,1.3064,1.3087,1.3207,1.3044,1.332,1.3759,1.4196,1.4191,1.4046,1.3908,1.3902,1.4298,1.468,1.4667,1.4669,1.452,1.4344,1.4235,1.3913,1.3781,1.4145,1.5271,1.5656,1.6198,1.7015,1.7098,1.7055,1.6999,1.6888,1.6524,1.6276,1.6696,1.6602,1.6206,1.6103,1.6171,1.6054,1.5548,1.5463,1.5403,1.536,1.5343,1.5411,1.538,1.5083,1.4491,1.3922,1.342,1.2868,1.2428,1.1988,1.1965,1.2297,1.2582,1.2375,1.2498,1.2644,1.2451,1.205,1.1956,1.239,1.2936,1.3116,1.3325,1.412,1.4911,1.5186,1.5323,1.5381,1.5274,1.501,1.4321,1.3532,1.2528,1.1825,1.1435,1.1122,1.0933,1.1028,1.131,1.1474,1.1692,1.1688,1.1645,1.1041,1.0557,1.0509,1.0685,1.1302,1.1828,1.2135,1.2382,1.2627,1.3636,1.3055,1.3055,1.2992,1.304,1.3066,1.3206,1.3319,1.3276,1.3173,1.3184,1.3443,1.3561,1.3534,1.3604,1.3658,1.3464,1.334,1.3394,1.3771,1.3685,1.3324,1.3047,1.2822,1.2718,1.2659,1.2822,1.3261,1.3699,1.4029,1.3997,1.3767,1.3668,1.3633,1.3883,1.4026,1.4272,1.4209,1.4193,1.4217,1.4002,1.4028,1.4426,1.5282,1.5842,1.6228,1.7203,1.7573,1.7466,1.7389,1.7184,1.6824,1.6627,1.6516,1.6499,1.6233,1.6148,1.6208,1.6062,1.5831,1.5728,1.5728,1.5805,1.5805,1.5686,1.5297,1.4986,1.4447,1.3813,1.3113,1.2437,1.1903,1.1622,1.1591,1.1622,1.1934,1.1747,1.184,1.1872,1.1709,1.1707,1.1729,1.1974,1.2387,1.2765,1.3019,1.3355,1.4107,1.4843,1.4942,1.4874,1.4608,1.4579,1.4043,1.3191,1.2251,1.1639,1.1247,1.1028,1.0839,1.1153,1.1498,1.156,1.1646,1.1742,1.151,1.0537,1.0093,1.0214,1.0517,1.1048,1.1569,1.2002,1.2357,1.2627,1.4412,1.3539,1.3497,1.3206,1.2856,1.299,1.3093,1.3098,1.292,1.2937,1.3087,1.3136,1.3265,1.341,1.3453,1.3432,1.3434,1.3362,1.3534,1.3701,1.3696,1.3295,1.2891,1.2635,1.2136,1.2037,1.2231,1.2602,1.3014,1.3739,1.389,1.3499,1.3254,1.3188,1.3286,1.3494,1.3795,1.3825,1.4039,1.3957,1.3787,1.3926,1.4379,1.4977,1.5339,1.5871,1.6621,1.7056,1.72,1.7248,1.7303,1.6923,1.6679,1.647,1.6456,1.645,1.6433,1.633,1.6156,1.5899,1.5831,1.5805,1.5805,1.5805,1.5618,1.5162,1.4838,1.4357,1.3738,1.3033,1.2375,1.1934,1.149,1.1435,1.1341,1.1216,1.087,1.0839,1.0839,1.0828,1.0907,1.1099,1.1656,1.2094,1.2522,1.2575,1.283,1.3114,1.3778,1.4183,1.3974,1.3373,1.3403,1.3636,1.2856,1.1864,1.1389,1.0965,1.1059,1.0996,1.1334,1.1622,1.1716,1.1825,1.1873,1.1451,1.0451,1.0102,1.0098,1.0507,1.1082,1.1594,1.2126,1.2455,1.2725,1.3588,1.3007,1.3007,1.291,1.2824,1.2883,1.2947,1.3098,1.3195,1.3163,1.2883,1.3227,1.32,1.304,1.313,1.3104,1.3044,1.3028,1.3254,1.3432,1.362,1.2906,1.2325,1.1864,1.1292,1.1099,1.1312,1.1972,1.2847,1.3574,1.3288,1.2709,1.2875,1.2842,1.291,1.3032,1.318,1.3432,1.3781,1.3732,1.3562,1.3649,1.4091,1.4482,1.4596,1.5126,1.5628,1.6347,1.6458,1.6191,1.7249,1.7364,1.6577,1.6822,1.6987,1.6747,1.6561,1.6278,1.6002,1.5865,1.5805,1.5805,1.5805,1.5608,1.5454,1.5206,1.479,1.4229,1.3691,1.3049,1.2297,1.1748,1.1383,1.1213,1.1121,1.0925,1.064,1.0633,1.0646,1.078,1.0827,1.1102,1.162,1.1975,1.2342,1.2265,1.2299,1.252,1.2671,1.305,1.3031,1.2405,1.2562,1.2874,1.2352,1.144,1.1073,1.0776,1.1009,1.1227,1.1399,1.165,1.1855,1.1842,1.1698,1.1159,1.0365,1.0197,1.0194,1.071,1.1267,1.1769,1.2224,1.2529,1.2774,1.3437,1.2807,1.2807,1.2862,1.2894,1.2899,1.2985,1.3109,1.3173,1.3056,1.2867,1.3105,1.3083,1.2889,1.292,1.2958,1.2953,1.2985,1.3163,1.341,1.3464,1.2851,1.2125,1.1358,1.0811,1.0465,1.0445,1.0952,1.1949,1.2437,1.2336,1.2385,1.2567,1.2699,1.2769,1.2834,1.2925,1.3171,1.3366,1.3473,1.342,1.3361,1.3707,1.3921,1.3888,1.4228,1.4622,1.5414,1.5526,1.5511,1.6829,1.6912,1.6373,1.671,1.6983,1.6766,1.6596,1.6338,1.6088,1.5891,1.584,1.5805,1.5797,1.5591,1.5411,1.5189,1.4698,1.4164,1.3671,1.3083,1.2251,1.1525,1.1251,1.1,1.0866,1.0727,1.07,1.0687,1.0807,1.0942,1.1142,1.1424,1.1736,1.2061,1.22,1.2096,1.1914,1.1772,1.1742,1.1778,1.1779,1.1421,1.1787,1.2163,1.1607,1.1369,1.1314,1.1293,1.1495,1.1663,1.1639,1.1809,1.2116,1.1834,1.1396,1.0878,1.0451,1.0366,1.0433,1.0986,1.1545,1.2076,1.2455,1.2652,1.2832,1.3703,1.2856,1.2791,1.2824,1.3028,1.2974,1.298,1.3028,1.2883,1.2797,1.2813,1.2824,1.2845,1.2818,1.2856,1.2899,1.2926,1.298,1.3087,1.3432,1.3394,1.2874,1.2016,1.1365,1.0537,1.0087,1.0043,1.0441,1.0535,1.1209,1.1933,1.2095,1.2054,1.2264,1.2834,1.2835,1.2829,1.2904,1.316,1.3278,1.3205,1.3269,1.3423,1.3418,1.3474,1.3675,1.3931,1.4368,1.4852,1.5213,1.588,1.6085,1.6069,1.6401,1.6619,1.6683,1.6538,1.6394,1.6171,1.5977,1.584,1.5805,1.5797,1.5643,1.5489,1.5394,1.495,1.405,1.3457,1.2871,1.2115,1.1831,1.1593,1.1275,1.1042,1.0889,1.0794,1.0975,1.1323,1.1443,1.151,1.1772,1.1906,1.2192,1.2242,1.2067,1.1822,1.156,1.143,1.1251,1.1019,1.0905,1.1332,1.1765,1.1579,1.146,1.1736,1.1848,1.1848,1.1718,1.1436,1.1836,1.2434,1.1783,1.1069,1.1038,1.0785,1.0617,1.0714,1.1404,1.1944,1.2425,1.27,1.2808,1.2856,1.3737,1.3275,1.2719,1.2533,1.2549,1.2429,1.242,1.2571,1.2527,1.2592,1.2786,1.2802,1.2807,1.2807,1.2807,1.2824,1.2845,1.291,1.2996,1.3125,1.3195,1.2521,1.1619,1.1019,1.0136,0.9657,0.9692,1.0194,1.0546,1.1033,1.1375,1.1498,1.1601,1.2102,1.2657,1.2655,1.257,1.2521,1.2754,1.2883,1.2828,1.2882,1.2951,1.2892,1.2939,1.279,1.3033,1.3366,1.3244,1.3204,1.5484,1.5977,1.5677,1.6273,1.6613,1.6746,1.6513,1.6342,1.6136,1.591,1.5705,1.5743,1.5753,1.5719,1.5694,1.5634,1.5099,1.4056,1.3184,1.2584,1.2204,1.2071,1.1933,1.1614,1.1329,1.1122,1.0961,1.1363,1.1844,1.1904,1.196,1.2017,1.2151,1.2175,1.2238,1.2167,1.1973,1.1821,1.1821,1.1661,1.1268,1.1135,1.1216,1.1458,1.141,1.1525,1.1771,1.1613,1.1423,1.1309,1.1241,1.1619,1.1974,1.1301,1.0718,1.0803,1.0842,1.0668,1.0956,1.1731,1.2195,1.2613,1.2763,1.2856,1.2881,1.349,1.308,1.2494,1.2253,1.2226,1.2148,1.2175,1.2237,1.2253,1.2323,1.2532,1.2699,1.2807,1.2807,1.2807,1.2797,1.2797,1.2813,1.2845,1.2926,1.2777,1.2029,1.1309,1.0698,0.9634,0.9013,0.9148,0.9619,1.0348,1.015,1.0192,1.0583,1.1058,1.1411,1.186,1.184,1.1819,1.1736,1.2078,1.2268,1.2365,1.2565,1.2759,1.2694,1.2538,1.2339,1.2344,1.27,1.2576,1.2805,1.4558,1.5409,1.547,1.5977,1.6394,1.6452,1.6358,1.6196,1.5955,1.5702,1.5394,1.5408,1.5726,1.57,1.5081,1.4988,1.5157,1.4151,1.2956,1.2314,1.2211,1.2073,1.2093,1.1888,1.1837,1.1757,1.169,1.1877,1.2111,1.2138,1.2144,1.2158,1.2178,1.1964,1.1983,1.1872,1.1764,1.1979,1.2005,1.2058,1.163,1.1321,1.1393,1.1522,1.1654,1.1701,1.1809,1.1497,1.1136,1.126,1.1386,1.1429,1.1404,1.0996,1.0762,1.0864,1.0827,1.0906,1.1346,1.2088,1.2479,1.2767,1.2879,1.3013,1.3023,1.3164,1.2592,1.2217,1.2073,1.2083,1.2051,1.2073,1.2105,1.2137,1.2105,1.2148,1.2602,1.2775,1.277,1.2716,1.2764,1.2748,1.2657,1.27,1.2711,1.2721,1.2003,1.1231,1.0465,0.9577,0.8983,0.8873,0.9368,0.9979,0.9542,0.9369,0.9624,0.9764,0.9969,1.0282,1.0405,1.0595,1.0805,1.1165,1.1453,1.1858,1.237,1.2662,1.2684,1.2581,1.2457,1.2355,1.2349,1.2371,1.2809,1.3558,1.4191,1.4706,1.5144,1.5655,1.5802,1.58,1.5701,1.5575,1.5188,1.4893,1.4859,1.5328,1.5226,1.4552,1.4514,1.4652,1.4145,1.2951,1.2321,1.2221,1.2167,1.2201,1.2184,1.2218,1.2245,1.2251,1.2251,1.2212,1.2225,1.2216,1.221,1.2133,1.1918,1.1658,1.1509,1.1614,1.1898,1.2137,1.2151,1.2004,1.1646,1.1504,1.1657,1.1808,1.1844,1.1835,1.1583,1.1296,1.1424,1.1454,1.1269,1.1122,1.1052,1.0912,1.0923,1.1283,1.1554,1.2048,1.252,1.2967,1.3285,1.3275,1.3359,1.3232,1.3099,1.2137,1.1854,1.191,1.204,1.1894,1.1916,1.211,1.2242,1.2145,1.2,1.242,1.2678,1.2479,1.2479,1.2501,1.2544,1.2538,1.2501,1.2479,1.2571,1.2073,1.1412,1.0596,1.0108,0.9657,0.9355,0.9585,0.988,0.9242,0.8998,0.9623,0.9472,0.9786,1.0451,1.0346,0.9974,1.0135,1.0365,1.0722,1.1609,1.2122,1.2662,1.278,1.277,1.2576,1.2457,1.2377,1.2292,1.2393,1.2771,1.3392,1.3801,1.4218,1.4699,1.5123,1.5122,1.5054,1.4867,1.4591,1.4307,1.3939,1.4291,1.4339,1.3981,1.405,1.4101,1.3933,1.3026,1.2415,1.2218,1.2251,1.2265,1.2265,1.2285,1.2285,1.2291,1.2132,1.1983,1.1966,1.1936,1.2049,1.2188,1.1777,1.1214,1.1133,1.1146,1.1471,1.1787,1.2009,1.2194,1.1697,1.1309,1.1693,1.181,1.1839,1.1806,1.1582,1.1349,1.1256,1.1106,1.0791,1.0713,1.0807,1.0863,1.0881,1.1338,1.1972,1.2551,1.2996,1.3576,1.3905,1.3831,1.3704,1.3568]}]]